[[{"header":{"parameterUnit":"m.s-1","parameterCategory":1,"la1":31.0,"la2":29.5877,"lo1":-88.7671,"lo2":-86.6584,"dy":0.0162,"dx":0.0185,"nx":115,"ny":88,"refTime":"2026-05-20T00:00:00:Z","depth":0,"parameterNumber":2,"parameterNumberName":"U-component_of_WINDS"},"data":[0.0,0.0,0.0,0.0,0.0,0.0,0.0,0.0,0.0,0.0,0.0,0.0,0.0,0.0,0.0,0.0,0.0,0.0,0.0,0.0,0.0,0.0,0.0,0.0,0.0,0.0,0.0,0.0,0.0,0.0,0.0,0.0,0.0,0.0,0.0,0.0,0.0,0.0,0.0,0.0,0.0,0.0,0.0,0.0,0.0,0.0,0.0,0.0,0.0,0.0,0.0,0.0,0.0,0.0,0.0,0.0,0.0,0.0,0.0,0.0,0.0,0.0,0.0,0.0,0.0,0.0,0.0,0.0,0.0,0.0,0.0,0.0,0.0,0.0,0.0,0.0,0.0,0.0,0.0,0.0,0.0,0.0,0.0,0.0,0.0,0.0,0.0,0.0,0.0,0.0,0.0,0.0,0.0,0.0,0.0,0.0,0.0,0.0,0.0,0.0,0.0,0.0,0.0,0.0,0.0,0.0,0.0,0.0,0.0,0.0,0.0,0.0,0.0,0.0,0.0,0.0,0.0,0.0,0.0,0.0,0.0,0.0,0.0,0.0,0.0,0.0,0.0,0.0,0.0,0.0,0.0,0.0,0.0,0.0,0.0,0.0,0.0,0.0,0.0,0.0,0.0,0.0,0.0,0.0,0.0,0.0,0.0,0.0,0.0,0.0,0.0,0.0,0.0,0.0,0.0,0.0,0.0,0.0,0.0,0.0,0.0,0.0,0.0,0.0,0.0,0.0,0.0,0.0,0.0,0.0,0.0,0.0,0.0,0.0,0.0,0.0,0.0,0.0,0.0,0.0,0.0,0.0,0.0,0.0,0.0,0.0,0.0,0.0,0.0,0.0,0.0,0.0,0.0,0.0,0.0,0.0,0.0,0.0,0.0,0.0,0.0,0.0,0.0,0.0,0.0,0.0,0.0,0.0,0.0,0.0,0.0,0.0,0.0,0.0,0.0,0.0,0.0,0.0,0.0,0.0,0.0,0.0,0.0,0.0,0.0,0.0,0.0,0.0,0.0,0.0,0.0,0.0,0.0,0.0,0.0,0.0,0.0,0.0,0.0,0.0,0.0,0.0,0.0,0.0,0.0,0.0,0.0,0.0,0.0,0.0,0.0,0.0,0.0,0.0,0.0,0.0,0.0,0.0,0.0,0.0,0.0,0.0,0.0,0.0,0.0,0.0,0.0,0.0,0.0,0.0,0.0,0.0,0.0,0.0,0.0,0.0,0.0,0.0,0.0,0.0,0.0,0.0,0.0,0.0,0.0,0.0,0.0,0.0,0.0,0.0,0.0,0.0,0.0,0.0,0.0,0.0,0.0,0.0,0.0,0.0,0.0,0.0,0.0,0.0,0.0,0.0,0.0,0.0,0.0,0.0,0.0,0.0,0.0,0.0,0.0,0.0,0.0,0.0,0.0,0.0,0.0,0.0,0.0,0.0,0.0,0.0,0.0,0.0,0.0,0.0,0.0,0.0,0.0,0.0,0.0,0.0,0.0,0.0,0.0,0.0,0.0,0.0,0.0,0.0,0.0,0.0,0.0,0.0,0.0,0.0,0.0,0.0,0.0,0.0,0.0,0.0,0.0,0.0,0.0,0.0,0.0,0.0,0.0,0.0,0.0,0.0,0.0,0.0,0.0,0.0,0.0,0.0,0.0,0.0,0.0,0.0,0.0,0.0,0.0,0.0,0.0,0.0,0.0,0.0,0.0,0.0,0.0,0.0,0.0,0.0,0.0,0.0,0.0,0.0,0.0,0.0,0.0,0.0,0.0,0.0,0.0,0.0,0.0,0.0,0.0,0.0,0.0,0.0,0.0,0.0,0.0,0.0,0.0,0.0,0.0,0.0,0.0,0.0,0.0,0.0,0.0,0.0,0.0,0.0,0.0,0.0,0.0,0.0,0.0,0.0,0.0,0.0,0.0,0.0,0.0,0.0,0.0,0.0,0.0,0.0,0.0,0.0,0.0,0.0,0.0,0.0,0.0,0.0,0.0,0.0,0.0,0.0,0.0,0.0,0.0,0.0,0.0,0.0,0.0,0.0,0.0,0.0,0.0,0.0,0.0,0.0,0.0,0.0,0.0,0.0,0.0,0.0,0.0,0.0,0.0,0.0,0.0,0.0,0.0,0.0,0.0,0.0,0.0,0.0,0.0,0.0,0.0,0.0,0.0,0.0,0.0,0.0,0.0,0.0,0.0,0.0,0.0,0.0,0.0,0.0,0.0,0.0,0.0,0.0,0.0,0.0,0.0,0.0,0.0,0.0,0.0,0.0,0.0,0.0,0.0,0.0,0.0,0.0,0.0,0.0,0.0,0.0,0.0,0.0,0.0,0.0,0.0,0.0,0.0,0.0,0.0,0.0,0.0,0.0,0.0,0.0,0.0,0.0,0.0,0.0,0.0,0.0,0.0,0.0,0.0,0.0,0.0,0.0,0.0,0.0,0.0,0.0,0.0,0.0,0.0,0.0,0.0,0.0,0.0,0.0,0.0,0.0,0.0,0.0,0.0,0.0,0.0,0.0,0.0,0.0,0.0,0.0,0.0,0.0,0.0,0.0,0.0,0.0,0.0,0.0,0.0,0.0,0.0,0.0,0.0,0.0,0.0,0.0,0.0,0.0,0.0,0.0,0.0,0.0,0.0,0.0,0.0,0.0,0.0,0.0,0.0,0.0,0.0,0.0,0.0,0.0,0.0,0.0,0.0,0.0,0.0,0.0,0.0,0.0,0.0,0.0,0.0,0.0,0.0,0.0,0.0,0.0,0.0,0.0,0.0,0.0,0.0,0.0,0.0,0.0,0.0,0.0,0.0,0.0,0.0,0.0,0.0,0.0,0.0,0.0,0.0,0.0,0.0,0.0,0.0,0.0,0.0,0.0,0.0,0.0,0.0,0.0,0.0,0.0,0.0,0.0,0.0,0.0,0.0,0.0,0.0,0.0,0.0,0.0,0.0,0.0,0.0,0.0,0.0,0.0,0.0,0.0,0.0,0.0,0.0,0.0,0.0,0.0,0.0,0.0,0.0,0.0,0.0,0.0,0.0,0.0,0.0,0.0,0.0,0.0,0.0,0.0,0.0,0.0,0.0,0.0,0.0,0.0,0.0,0.0,0.0,0.0,0.0,0.0,0.0,0.0,0.0,0.0,0.0,0.0,0.0,0.0,0.0,0.0,0.0,0.0,0.0,0.0,0.0,0.0,0.0,0.0,0.0,0.0,0.0,0.0,0.0,0.0,0.0,0.0,0.0,0.0,0.0,0.0,0.0,0.0,0.0,0.0,0.0,0.0,0.0,0.0,0.0,0.0,0.0,0.0,0.0,0.0,0.0,0.0,0.0,0.0,0.0,0.0,0.0,0.0,0.0,0.0,0.0,0.0,0.0,0.0,0.0,0.0,0.0,0.0,0.0,0.0,0.0,0.0,0.0,0.0,0.0,0.0,0.0,0.0,0.0,0.0,0.0,0.0,0.0,0.0,0.0,0.0,0.0,0.0,0.0,0.0,0.0,0.0,0.0,0.0,0.0,0.0,0.0,0.0,0.0,0.0,0.0,0.0,0.0,0.0,0.0,0.0,0.0,0.0,0.0,0.0,0.0,0.0,0.0,0.0,0.0,0.0,0.0,0.0,0.0,0.0,0.0,0.0,0.0,0.0,0.0,0.0,0.0,0.0,0.0,0.0,0.0,0.0,0.0,0.0,0.0,0.0,0.0,0.0,0.0,0.0,0.0,0.0,0.0,0.0,0.0,0.0,0.0,0.0,0.0,0.0,0.0,0.0,0.0,0.0,0.0,0.0,0.0,0.0,0.0,0.0,0.0,0.0,0.0,0.0,0.0,0.0,0.0,0.0,0.0,0.0,0.0,0.0,0.0,0.0,0.0,0.0,0.0,0.0,0.0,0.0,0.0,0.0,0.0,0.0,0.0,0.0,0.0,0.0,0.0,0.0,0.0,0.0,0.0,0.0,0.0,0.0,0.0,0.0,0.0,0.0,0.0,0.0,0.0,0.0,0.0,0.0,0.0,0.0,0.0,0.0,0.0,0.0,0.0,0.0,0.0,0.0,0.0,0.0,0.0,0.0,0.0,0.0,0.0,0.0,0.0,0.0,0.0,0.0,0.0,0.0,0.0,0.0,0.0,0.0,0.0,0.0,0.0,0.0,0.0,0.0,0.0,0.0,0.0,0.0,0.0,0.0,0.0,0.0,0.0,0.0,0.0,0.0,0.0,0.0,0.0,0.0,0.0,0.0,0.0,0.0,0.0,0.0,0.0,0.0,0.0,0.0,0.0,0.0,-1.2525,0.0,0.0,0.0,0.0,0.0,0.0,0.0,0.0,0.0,0.0,0.0,0.0,0.0,0.0,0.0,0.0,0.0,0.0,0.0,0.0,0.0,0.0,0.0,0.0,0.0,0.0,0.0,0.0,0.0,0.0,0.0,0.0,0.0,0.0,0.0,0.0,0.0,0.0,0.0,0.0,0.0,0.0,0.0,0.0,0.0,0.0,0.0,0.0,0.0,0.0,0.0,0.0,0.0,0.0,0.0,0.0,0.0,0.0,0.0,0.0,0.0,0.0,0.0,0.0,0.0,0.0,0.0,0.0,0.0,0.0,0.0,0.0,0.0,0.0,0.0,0.0,0.0,0.0,0.0,0.0,0.0,0.0,0.0,0.0,0.0,0.0,0.0,0.0,0.0,0.0,0.0,0.0,0.0,0.0,0.0,0.0,0.0,0.0,0.0,0.0,0.0,0.0,0.0,0.0,0.0,0.0,0.0,0.0,0.0,0.0,-1.4256,-1.406,-1.3703,-1.3498,-1.3467,0.0,0.0,0.0,0.0,0.0,0.0,0.0,0.0,0.0,0.0,0.0,0.0,0.0,0.0,0.0,0.0,0.0,0.0,0.0,0.0,0.0,0.0,0.0,0.0,0.0,0.0,0.0,0.0,0.0,0.0,0.0,0.0,0.0,0.0,0.0,0.0,0.0,0.0,0.0,0.0,0.0,0.0,0.0,0.0,0.0,0.0,0.0,0.0,0.0,0.0,0.0,0.0,0.0,0.0,0.0,0.0,0.0,0.0,0.0,0.0,0.0,0.0,0.0,0.0,0.0,0.0,0.0,0.0,0.0,0.0,0.0,0.0,0.0,0.0,0.0,0.0,0.0,0.0,0.0,0.0,0.0,0.0,0.0,0.0,0.0,0.0,0.0,0.0,0.0,0.0,0.0,0.0,0.0,0.0,0.0,0.0,0.0,0.0,0.0,0.0,0.0,0.0,0.0,0.0,0.0,0.0,0.0,0.0,0.0,0.0,0.0,0.0,-1.4549,-1.443,-1.4388,0.0,0.0,0.0,0.0,0.0,0.0,0.0,0.0,0.0,0.0,0.0,0.0,0.0,0.0,0.0,0.0,0.0,0.0,0.0,0.0,0.0,0.0,0.0,0.0,0.0,0.0,0.0,0.0,0.0,0.0,0.0,0.0,0.0,0.0,0.0,0.0,0.0,0.0,0.0,0.0,0.0,0.0,0.0,0.0,0.0,0.0,0.0,0.0,0.0,0.0,0.0,0.0,0.0,0.0,0.0,0.0,0.0,0.0,0.0,0.0,0.0,0.0,0.0,0.0,0.0,0.0,0.0,0.0,0.0,0.0,0.0,0.0,0.0,0.0,0.0,0.0,0.0,0.0,0.0,0.0,0.0,0.0,0.0,0.0,0.0,0.0,0.0,0.0,0.0,0.0,0.0,0.0,0.0,0.0,0.0,0.0,0.0,0.0,0.0,0.0,0.0,0.0,0.0,0.0,0.0,0.0,0.0,0.0,0.0,0.0,-1.5178,-1.6588,-1.5934,0.0,-1.5199,0.0,0.0,0.0,0.0,0.0,0.0,0.0,0.0,0.0,0.0,0.0,0.0,0.0,0.0,0.0,0.0,0.0,0.0,0.0,0.0,0.0,0.0,0.0,0.0,0.0,0.0,0.0,0.0,0.0,0.0,0.0,0.0,0.0,0.0,0.0,0.0,0.0,0.0,0.0,0.0,0.0,0.0,0.0,0.0,0.0,0.0,0.0,0.0,0.0,0.0,0.0,0.0,0.0,0.0,0.0,0.0,0.0,0.0,0.0,0.0,0.0,0.0,0.0,0.0,0.0,0.0,0.0,0.0,0.0,0.0,0.0,0.0,0.0,0.0,0.0,0.0,0.0,0.0,0.0,0.0,0.0,0.0,0.0,0.0,0.0,0.0,0.0,0.0,0.0,0.0,0.0,0.0,0.0,0.0,0.0,0.0,0.0,0.0,0.0,0.0,0.0,0.0,0.0,0.0,0.0,0.0,0.0,0.0,0.0,0.0,-1.5622,-1.6288,-1.595,-1.5634,0.0,0.0,0.0,0.0,0.0,0.0,0.0,0.0,0.0,0.0,0.0,0.0,0.0,0.0,0.0,0.0,0.0,0.0,0.0,0.0,0.0,0.0,0.0,0.0,0.0,0.0,0.0,0.0,0.0,0.0,0.0,0.0,0.0,0.0,0.0,0.0,0.0,0.0,0.0,0.0,0.0,0.0,0.0,0.0,0.0,0.0,0.0,0.0,0.0,0.0,0.0,0.0,0.0,0.0,0.0,0.0,0.0,0.0,0.0,0.0,0.0,0.0,0.0,0.0,0.0,0.0,0.0,0.0,0.0,0.0,0.0,0.0,0.0,0.0,0.0,0.0,0.0,0.0,0.0,0.0,0.0,0.0,0.0,0.0,0.0,0.0,0.0,0.0,0.0,0.0,0.0,0.0,0.0,0.0,0.0,0.0,0.0,0.0,0.0,0.0,0.0,0.0,0.0,0.0,0.0,0.0,0.0,0.0,0.0,0.0,-1.6168,0.0,-1.6534,-1.6276,-1.5789,-1.5019,0.0,0.0,0.0,0.0,0.0,0.0,0.0,0.0,0.0,0.0,0.0,0.0,0.0,0.0,0.0,0.0,0.0,0.0,0.0,0.0,0.0,0.0,0.0,0.0,0.0,0.0,0.0,0.0,0.0,0.0,0.0,0.0,0.0,0.0,0.0,0.0,0.0,0.0,0.0,0.0,0.0,0.0,0.0,0.0,0.0,0.0,0.0,0.0,0.0,0.0,0.0,0.0,0.0,0.0,0.0,0.0,0.0,0.0,0.0,0.0,0.0,0.0,0.0,0.0,0.0,0.0,0.0,0.0,0.0,0.0,0.0,0.0,0.0,0.0,0.0,0.0,0.0,0.0,0.0,0.0,0.0,0.0,0.0,0.0,0.0,0.0,0.0,0.0,0.0,0.0,0.0,0.0,0.0,0.0,0.0,0.0,0.0,0.0,0.0,0.0,0.0,0.0,0.0,0.0,0.0,0.0,0.0,0.0,0.0,-1.7801,-1.7399,-1.8102,-1.7391,-1.6088,0.0,0.0,0.0,0.0,0.0,0.0,0.0,0.0,0.0,0.0,0.0,0.0,0.0,0.0,0.0,0.0,0.0,0.0,0.0,0.0,0.0,0.0,0.0,0.0,0.0,0.0,0.0,0.0,0.0,0.0,0.0,0.0,0.0,0.0,0.0,0.0,0.0,0.0,0.0,0.0,0.0,0.0,0.0,0.0,0.0,0.0,0.0,0.0,0.0,0.0,0.0,0.0,0.0,0.0,0.0,0.0,0.0,0.0,0.0,0.0,0.0,0.0,0.0,0.0,0.0,0.0,0.0,0.0,0.0,0.0,0.0,0.0,0.0,0.0,0.0,0.0,0.0,0.0,0.0,0.0,0.0,0.0,0.0,0.0,0.0,0.0,0.0,0.0,0.0,0.0,0.0,0.0,0.0,0.0,0.0,0.0,0.0,0.0,0.0,0.0,0.0,0.0,0.0,0.0,0.0,0.0,0.0,0.0,0.0,-1.6285,-1.6372,-1.6972,-1.8177,-1.646,-1.5343,0.0,0.0,0.0,0.0,0.0,0.0,0.0,0.0,0.0,0.0,0.0,0.0,0.0,0.0,0.0,0.0,0.0,0.0,0.0,0.0,0.0,0.0,0.0,0.0,0.0,0.0,0.0,0.0,0.0,0.0,0.0,0.0,0.0,0.0,0.0,0.0,0.0,0.0,0.0,0.0,0.0,0.0,0.0,0.0,0.0,0.0,0.0,0.0,0.0,0.0,0.0,0.0,0.0,0.0,0.0,0.0,0.0,0.0,0.0,0.0,0.0,0.0,0.0,0.0,0.0,0.0,0.0,0.0,0.0,0.0,0.0,0.0,0.0,0.0,0.0,0.0,0.0,0.0,0.0,0.0,0.0,0.0,0.0,0.0,0.0,0.0,0.0,0.0,0.0,0.0,0.0,0.0,0.0,0.0,0.0,0.0,0.0,0.0,0.0,0.0,0.0,0.0,0.0,0.0,0.0,0.0,0.0,0.0,0.0,-1.5778,0.0,-1.7491,0.0,-1.6441,-1.5096,0.0,0.0,0.0,0.0,0.0,0.0,0.0,0.0,0.0,0.0,0.0,0.0,0.0,0.0,0.0,0.0,0.0,0.0,0.0,0.0,0.0,0.0,0.0,0.0,0.0,0.0,0.0,0.0,0.0,0.0,0.0,0.0,0.0,0.0,0.0,0.0,0.0,0.0,0.0,0.0,0.0,0.0,0.0,0.0,0.0,0.0,0.0,0.0,0.0,0.0,0.0,0.0,0.0,0.0,0.0,0.0,0.0,0.0,0.0,0.0,0.0,0.0,0.0,0.0,0.0,0.0,0.0,0.0,0.0,0.0,0.0,0.0,0.0,0.0,0.0,0.0,0.0,0.0,0.0,0.0,0.0,0.0,0.0,0.0,0.0,0.0,0.0,0.0,0.0,0.0,0.0,0.0,0.0,0.0,0.0,0.0,0.0,0.0,0.0,0.0,0.0,0.0,0.0,0.0,0.0,0.0,0.0,0.0,-1.5059,-1.8073,-1.9008,-1.9056,-1.8343,-1.7417,-1.5474,0.0,0.0,0.0,0.0,0.0,0.0,0.0,0.0,0.0,0.0,0.0,0.0,0.0,0.0,0.0,0.0,0.0,0.0,0.0,0.0,0.0,0.0,0.0,0.0,0.0,0.0,0.0,0.0,0.0,0.0,0.0,0.0,0.0,0.0,0.0,0.0,0.0,0.0,0.0,0.0,0.0,0.0,0.0,0.0,0.0,0.0,0.0,0.0,0.0,0.0,0.0,0.0,0.0,0.0,0.0,0.0,0.0,0.0,0.0,0.0,0.0,0.0,0.0,0.0,0.0,0.0,0.0,0.0,0.0,0.0,0.0,0.0,0.0,0.0,0.0,0.0,0.0,0.0,0.0,0.0,0.0,0.0,0.0,0.0,0.0,0.0,0.0,0.0,0.0,0.0,0.0,0.0,0.0,0.0,0.0,0.0,0.0,0.0,0.0,0.0,0.0,0.0,0.0,0.0,0.0,0.0,0.0,0.0,0.0,-1.665,-1.7987,-1.8846,-1.9029,-1.6682,-1.5402,0.0,0.0,0.0,0.0,0.0,0.0,0.0,0.0,0.0,0.0,0.0,0.0,0.0,0.0,0.0,0.0,0.0,0.0,0.0,0.0,0.0,0.0,0.0,0.0,0.0,0.0,0.0,0.0,0.0,0.0,0.0,0.0,0.0,0.0,0.0,0.0,0.0,0.0,0.0,0.0,0.0,0.0,0.0,0.0,0.0,0.0,0.0,0.0,0.0,0.0,0.0,0.0,0.0,0.0,0.0,0.0,0.0,0.0,0.0,0.0,0.0,0.0,0.0,0.0,0.0,0.0,0.0,0.0,0.0,0.0,0.0,0.0,0.0,0.0,0.0,0.0,0.0,0.0,0.0,0.0,0.0,0.0,0.0,0.0,0.0,0.0,0.0,0.0,0.0,0.0,0.0,0.0,0.0,0.0,0.0,0.0,0.0,0.0,0.0,0.0,0.0,0.0,0.0,0.0,0.0,0.0,0.0,0.0,0.0,-1.7801,-1.9008,-1.9773,-1.9955,-1.7374,-1.6016,-1.6048,0.0,0.0,0.0,0.0,0.0,0.0,0.0,0.0,0.0,0.0,0.0,0.0,0.0,0.0,0.0,0.0,0.0,0.0,0.0,0.0,0.0,0.0,0.0,0.0,0.0,0.0,0.0,0.0,0.0,0.0,0.0,0.0,0.0,0.0,0.0,0.0,0.0,0.0,0.0,0.0,0.0,0.0,0.0,0.0,0.0,0.0,0.0,0.0,0.0,0.0,0.0,0.0,0.0,0.0,0.0,0.0,0.0,0.0,0.0,0.0,0.0,0.0,0.0,0.0,0.0,0.0,0.0,0.0,0.0,0.0,0.0,0.0,0.0,0.0,0.0,0.0,0.0,0.0,0.0,0.0,0.0,0.0,0.0,0.0,0.0,0.0,0.0,0.0,0.0,0.0,0.0,0.0,0.0,0.0,0.0,0.0,0.0,0.0,0.0,0.0,0.0,0.0,0.0,0.0,0.0,0.0,0.0,0.0,-2.0994,-2.1829,-2.184,-2.0971,-1.9309,-1.7306,0.0,0.0,0.0,0.0,0.0,0.0,0.0,0.0,0.0,0.0,0.0,0.0,0.0,0.0,0.0,0.0,0.0,0.0,0.0,0.0,0.0,0.0,0.0,0.0,0.0,0.0,0.0,0.0,0.0,0.0,0.0,0.0,0.0,0.0,0.0,0.0,0.0,0.0,0.0,0.0,0.0,0.0,0.0,0.0,0.0,0.0,0.0,0.0,0.0,0.0,0.0,0.0,0.0,0.0,0.0,0.0,0.0,0.0,0.0,0.0,0.0,0.0,0.0,0.0,0.0,0.0,0.0,0.0,0.0,0.0,0.0,0.0,0.0,0.0,0.0,0.0,0.0,0.0,0.0,0.0,0.0,0.0,0.0,0.0,0.0,0.0,0.0,0.0,0.0,0.0,0.0,0.0,0.0,0.0,0.0,0.0,0.0,0.0,0.0,0.0,0.0,0.0,0.0,0.0,0.0,0.0,0.0,0.0,0.0,-2.3487,-2.4891,-2.4947,-2.3516,-2.1283,-1.9492,0.0,0.0,0.0,0.0,0.0,0.0,0.0,0.0,0.0,0.0,0.0,0.0,0.0,0.0,0.0,0.0,0.0,0.0,0.0,0.0,0.0,0.0,0.0,0.0,0.0,0.0,0.0,0.0,0.0,0.0,0.0,0.0,0.0,0.0,0.0,0.0,0.0,0.0,0.0,0.0,0.0,0.0,0.0,0.0,0.0,0.0,0.0,0.0,0.0,0.0,0.0,0.0,0.0,0.0,0.0,0.0,0.0,0.0,0.0,0.0,0.0,0.0,0.0,0.0,0.0,0.0,0.0,0.0,0.0,0.0,0.0,0.0,0.0,0.0,0.0,0.0,0.0,0.0,0.0,0.0,0.0,0.0,0.0,0.0,0.0,0.0,0.0,0.0,0.0,0.0,0.0,0.0,0.0,0.0,0.0,0.0,0.0,0.0,0.0,0.0,0.0,0.0,0.0,0.0,0.0,0.0,0.0,0.0,-2.2652,-2.5055,-2.7036,-2.7428,-2.6168,-2.3299,-2.1038,0.0,0.0,0.0,0.0,0.0,0.0,0.0,0.0,0.0,0.0,0.0,0.0,0.0,0.0,0.0,0.0,0.0,0.0,0.0,0.0,0.0,0.0,0.0,0.0,0.0,0.0,0.0,0.0,0.0,0.0,0.0,0.0,0.0,0.0,0.0,0.0,0.0,0.0,0.0,0.0,0.0,0.0,0.0,0.0,0.0,0.0,0.0,0.0,0.0,0.0,0.0,0.0,0.0,0.0,0.0,0.0,0.0,0.0,0.0,0.0,0.0,0.0,0.0,0.0,0.0,0.0,0.0,0.0,0.0,0.0,0.0,0.0,0.0,0.0,0.0,0.0,0.0,0.0,0.0,0.0,0.0,0.0,0.0,0.0,0.0,0.0,0.0,0.0,0.0,0.0,0.0,0.0,0.0,0.0,0.0,0.0,0.0,0.0,0.0,0.0,0.0,0.0,0.0,0.0,0.0,0.0,0.0,0.0,-2.3711,-2.6161,-2.8424,-2.9232,-2.834,-2.5181,-2.2304,0.0,0.0,0.0,0.0,0.0,0.0,0.0,0.0,0.0,0.0,0.0,0.0,0.0,0.0,0.0,0.0,0.0,0.0,0.0,0.0,0.0,0.0,0.0,0.0,0.0,0.0,0.0,0.0,0.0,0.0,0.0,0.0,0.0,0.0,0.0,0.0,0.0,0.0,0.0,0.0,0.0,0.0,0.0,0.0,0.0,0.0,0.0,0.0,0.0,0.0,0.0,0.0,0.0,0.0,0.0,0.0,0.0,0.0,0.0,0.0,0.0,0.0,0.0,0.0,0.0,0.0,0.0,0.0,0.0,0.0,0.0,0.0,0.0,0.0,0.0,0.0,0.0,0.0,0.0,0.0,0.0,0.0,0.0,0.0,0.0,0.0,0.0,0.0,0.0,0.0,0.0,0.0,0.0,0.0,0.0,0.0,0.0,0.0,0.0,0.0,0.0,0.0,0.0,0.0,0.0,0.0,0.0,0.0,-2.4823,-2.8009,-2.9087,-2.9213,-2.8415,-2.6309,-2.4018,0.0,0.0,0.0,0.0,0.0,0.0,0.0,0.0,0.0,0.0,0.0,0.0,0.0,0.0,0.0,0.0,0.0,0.0,0.0,0.0,0.0,0.0,0.0,0.0,0.0,0.0,0.0,0.0,0.0,0.0,0.0,0.0,0.0,0.0,0.0,0.0,0.0,0.0,0.0,0.0,0.0,0.0,0.0,0.0,0.0,0.0,0.0,0.0,-0.8225,0.0,0.0,0.0,0.0,0.0,0.0,0.0,0.0,0.0,0.0,0.0,0.0,0.0,0.0,0.0,0.0,0.0,0.0,0.0,0.0,0.0,0.0,0.0,0.0,0.0,0.0,0.0,0.0,0.0,0.0,0.0,0.0,0.0,0.0,0.0,0.0,0.0,0.0,0.0,0.0,0.0,0.0,0.0,0.0,0.0,0.0,0.0,0.0,0.0,0.0,0.0,0.0,0.0,0.0,0.0,0.0,0.0,0.0,0.0,-2.5996,-2.9272,-2.9626,-2.9713,-2.96,-2.782,-2.5494,0.0,0.0,0.0,0.0,0.0,0.0,0.0,0.0,0.0,0.0,0.0,0.0,0.0,0.0,0.0,0.0,0.0,0.0,0.0,0.0,0.0,0.0,0.0,0.0,0.0,0.0,0.0,0.0,0.0,0.0,0.0,0.0,0.0,0.0,0.0,0.0,0.0,0.0,0.0,0.0,0.0,0.0,0.0,0.0,0.0,0.0,0.0,0.0,0.0,0.0,0.0,0.0,0.0,0.0,0.0,0.0,0.0,0.0,0.0,0.0,0.0,0.0,0.0,0.0,0.0,0.0,0.0,0.0,0.0,0.0,0.0,0.0,0.0,0.0,0.0,0.0,0.0,0.0,0.0,0.0,0.0,0.0,0.0,0.0,0.0,0.0,0.0,0.0,0.0,0.0,0.0,0.0,0.0,0.0,0.0,0.0,0.0,0.0,0.0,0.0,0.0,0.0,0.0,0.0,0.0,0.0,0.0,-2.4148,-2.6946,-3.0253,-3.0087,-3.0273,-3.1031,-2.9148,-2.6618,-2.3508,0.0,0.0,0.0,0.0,0.0,0.0,0.0,0.0,0.0,0.0,0.0,0.0,0.0,0.0,0.0,0.0,0.0,0.0,0.0,0.0,0.0,0.0,0.0,0.0,0.0,0.0,0.0,0.0,0.0,0.0,0.0,0.0,0.0,0.0,0.0,0.0,0.0,0.0,-1.0797,-1.2542,0.0,0.0,0.0,0.0,0.0,0.0,0.0,0.0,-1.0302,0.0,0.0,0.0,0.0,0.0,0.0,0.0,0.0,0.0,0.0,0.0,0.0,0.0,0.0,0.0,0.0,0.0,0.0,0.0,0.0,0.0,0.0,0.0,0.0,0.0,0.0,0.0,0.0,0.0,0.0,0.0,0.0,0.0,0.0,0.0,0.0,0.0,0.0,0.0,0.0,0.0,0.0,0.0,0.0,0.0,0.0,0.0,0.0,0.0,0.0,0.0,0.0,0.0,0.0,0.0,0.0,-2.4548,-2.5034,-2.7225,-3.1302,-3.0418,-3.0273,-3.1012,-2.9167,-2.6907,-2.4361,0.0,0.0,0.0,0.0,0.0,0.0,0.0,0.0,0.0,0.0,0.0,0.0,0.0,0.0,0.0,0.0,0.0,0.0,0.0,0.0,0.0,0.0,0.0,0.0,0.0,0.0,0.0,0.0,0.0,0.0,0.0,0.0,0.0,0.0,0.0,0.0,0.0,0.0,0.0,-1.3951,-1.4615,0.0,0.0,0.0,0.0,0.0,0.0,0.0,0.0,-1.0573,0.0,0.0,0.0,0.0,0.0,0.0,0.0,0.0,0.0,0.0,0.0,0.0,0.0,0.0,0.0,0.0,0.0,0.0,0.0,0.0,0.0,0.0,0.0,0.0,0.0,0.0,0.0,0.0,0.0,0.0,0.0,0.0,0.0,0.0,0.0,0.0,0.0,0.0,0.0,0.0,0.0,0.0,0.0,0.0,0.0,0.0,0.0,0.0,0.0,0.0,0.0,0.0,0.0,0.0,0.0,-2.3865,-2.6118,-2.8864,-3.2154,-3.1678,-3.148,-3.1712,-2.9493,-2.7074,0.0,0.0,0.0,0.0,0.0,0.0,0.0,0.0,0.0,0.0,0.0,0.0,0.0,0.0,0.0,0.0,0.0,0.0,0.0,0.0,0.0,0.0,0.0,0.0,0.0,0.0,0.0,0.0,0.0,0.0,0.0,0.0,0.0,0.0,0.0,0.0,0.0,0.0,0.0,0.0,-1.5219,-1.5934,-1.5934,0.0,0.0,0.0,0.0,0.0,0.0,-1.2489,-1.2025,0.0,0.0,0.0,0.0,0.0,0.0,0.0,0.0,0.0,0.0,0.0,0.0,0.0,0.0,0.0,0.0,0.0,0.0,0.0,0.0,0.0,0.0,0.0,0.0,0.0,0.0,0.0,0.0,0.0,0.0,0.0,0.0,0.0,0.0,0.0,0.0,0.0,0.0,0.0,0.0,0.0,0.0,0.0,0.0,0.0,0.0,0.0,0.0,0.0,0.0,0.0,0.0,0.0,0.0,0.0,-2.2836,-2.6953,-3.0339,-3.2769,-3.2728,-3.2556,-3.2374,-3.0111,-2.7482,0.0,0.0,0.0,0.0,0.0,0.0,0.0,0.0,0.0,0.0,0.0,0.0,0.0,0.0,0.0,0.0,0.0,0.0,0.0,0.0,0.0,0.0,0.0,0.0,0.0,0.0,0.0,0.0,0.0,0.0,0.0,0.0,0.0,0.0,0.0,0.0,0.0,0.0,0.0,0.0,0.0,-1.7576,-1.7294,-1.6743,0.0,0.0,0.0,0.0,-1.5397,-1.4747,0.0,0.0,0.0,0.0,0.0,0.0,0.0,0.0,0.0,0.0,0.0,0.0,0.0,0.0,0.0,0.0,0.0,0.0,0.0,0.0,0.0,0.0,0.0,0.0,0.0,0.0,0.0,0.0,0.0,0.0,0.0,0.0,0.0,0.0,0.0,0.0,0.0,0.0,0.0,0.0,0.0,0.0,0.0,0.0,0.0,0.0,0.0,0.0,0.0,0.0,0.0,0.0,0.0,0.0,0.0,0.0,-2.2874,-2.6972,-3.0333,-3.2724,-3.2588,-3.2422,-3.2384,-3.107,-2.8507,0.0,0.0,0.0,0.0,0.0,0.0,0.0,0.0,0.0,0.0,0.0,0.0,0.0,0.0,0.0,0.0,0.0,0.0,0.0,0.0,0.0,0.0,0.0,0.0,0.0,0.0,0.0,0.0,0.0,0.0,0.0,0.0,0.0,0.0,0.0,0.0,0.0,0.0,0.0,0.0,0.0,-1.9545,-1.8252,-1.7993,-1.7942,0.0,0.0,-1.6691,-1.6519,-1.7038,0.0,0.0,0.0,0.0,0.0,0.0,0.0,0.0,0.0,0.0,0.0,0.0,0.0,0.0,0.0,0.0,0.0,0.0,0.0,0.0,0.0,0.0,0.0,0.0,0.0,0.0,0.0,0.0,0.0,0.0,0.0,0.0,0.0,0.0,0.0,0.0,0.0,0.0,0.0,0.0,0.0,0.0,0.0,0.0,0.0,0.0,0.0,0.0,0.0,0.0,0.0,0.0,0.0,0.0,0.0,-2.1812,-2.3624,-2.8184,-3.1583,-3.3564,-3.3869,-3.3477,-3.2431,-3.0894,-2.8334,0.0,0.0,0.0,0.0,0.0,0.0,0.0,0.0,0.0,0.0,0.0,0.0,0.0,0.0,0.0,0.0,0.0,0.0,0.0,0.0,0.0,0.0,0.0,0.0,0.0,0.0,0.0,0.0,0.0,0.0,0.0,0.0,0.0,0.0,0.0,0.0,0.0,0.0,0.0,0.0,0.0,0.0,-1.8338,-1.8545,0.0,0.0,0.0,-1.8424,-1.8758,0.0,0.0,0.0,0.0,0.0,0.0,0.0,0.0,0.0,0.0,0.0,0.0,0.0,0.0,0.0,0.0,0.0,0.0,0.0,0.0,0.0,0.0,0.0,0.0,0.0,0.0,0.0,0.0,0.0,0.0,0.0,0.0,0.0,0.0,0.0,0.0,0.0,0.0,0.0,0.0,0.0,0.0,0.0,0.0,0.0,0.0,0.0,0.0,0.0,0.0,0.0,0.0,0.0,0.0,0.0,0.0,0.0,-2.4452,-2.941,-3.2718,-3.416,-3.4799,-3.4253,-3.245,-3.0781,0.0,0.0,0.0,0.0,0.0,0.0,0.0,0.0,0.0,0.0,0.0,0.0,0.0,0.0,0.0,0.0,0.0,0.0,0.0,0.0,0.0,0.0,0.0,0.0,0.0,0.0,0.0,-0.6202,0.0,0.0,0.0,0.0,0.0,0.0,0.0,0.0,0.0,0.0,0.0,0.0,0.0,0.0,-1.9872,-1.9062,-1.9648,-2.0234,0.0,0.0,-2.0062,-2.0613,-1.9889,-1.8703,0.0,0.0,0.0,0.0,0.0,0.0,0.0,0.0,0.0,0.0,0.0,0.0,0.0,0.0,0.0,0.0,0.0,0.0,0.0,0.0,0.0,0.0,0.0,0.0,0.0,0.0,0.0,0.0,0.0,0.0,0.0,0.0,0.0,0.0,0.0,0.0,0.0,0.0,0.0,0.0,0.0,0.0,0.0,0.0,0.0,0.0,0.0,0.0,0.0,0.0,0.0,0.0,0.0,0.0,0.0,-2.5327,-3.0237,-3.3256,-3.4173,-3.4677,-3.4121,-3.2441,-3.1192,-2.8636,0.0,0.0,0.0,0.0,0.0,0.0,0.0,0.0,0.0,0.0,0.0,0.0,0.0,0.0,0.0,0.0,0.0,0.0,0.0,0.0,0.0,0.0,0.0,0.0,0.0,0.0,0.0,0.0,0.0,0.0,0.0,0.0,0.0,0.0,0.0,0.0,0.0,0.0,0.0,0.0,0.0,-2.2113,-2.1147,-2.1837,-2.2474,0.0,0.0,-2.1458,-2.1522,-2.1992,-2.117,-1.7576,0.0,0.0,0.0,0.0,0.0,0.0,0.0,0.0,0.0,0.0,0.0,0.0,0.0,0.0,0.0,0.0,0.0,0.0,0.0,0.0,0.0,0.0,0.0,0.0,0.0,0.0,0.0,0.0,0.0,0.0,0.0,0.0,0.0,0.0,0.0,0.0,0.0,0.0,0.0,0.0,0.0,0.0,0.0,0.0,0.0,0.0,0.0,0.0,0.0,0.0,0.0,0.0,0.0,-2.3889,-2.6096,-3.0583,-3.3564,-3.4916,-3.4935,-3.4102,-3.245,-3.1715,-2.9192,0.0,0.0,0.0,0.0,0.0,0.0,0.0,0.0,0.0,0.0,0.0,0.0,0.0,0.0,0.0,0.0,0.0,0.0,0.0,0.0,0.0,0.0,0.0,0.0,0.0,0.0,0.0,0.0,-0.9162,-0.9508,-0.9996,0.0,0.0,0.0,0.0,0.0,0.0,0.0,0.0,0.0,0.0,-2.2785,-2.3009,-2.3664,0.0,0.0,-2.3646,-2.3367,-2.2423,-2.2526,-2.1716,-1.8861,-1.7759,0.0,0.0,0.0,0.0,0.0,0.0,0.0,0.0,0.0,0.0,0.0,0.0,0.0,0.0,0.0,0.0,0.0,0.0,0.0,0.0,0.0,0.0,0.0,0.0,0.0,0.0,0.0,0.0,0.0,0.0,0.0,0.0,0.0,0.0,0.0,0.0,0.0,0.0,0.0,0.0,0.0,0.0,0.0,0.0,0.0,0.0,0.0,0.0,0.0,0.0,0.0,0.0,-2.4178,-2.6967,-3.0891,-3.375,-3.5462,-3.5107,-3.4111,-3.2452,-3.1771,-2.9378,0.0,0.0,0.0,0.0,0.0,0.0,0.0,0.0,0.0,0.0,0.0,0.0,0.0,0.0,0.0,0.0,0.0,0.0,0.0,0.0,0.0,0.0,0.0,0.0,0.0,0.0,0.0,0.0,-1.0549,-1.078,-1.1356,0.0,0.0,0.0,0.0,0.0,0.0,0.0,0.0,0.0,0.0,-2.3712,-2.4543,-2.4853,-2.4919,-2.4663,-2.4456,-2.4008,-2.3164,-2.2854,-2.1992,-1.9947,0.0,0.0,0.0,0.0,0.0,0.0,0.0,0.0,0.0,0.0,0.0,0.0,0.0,0.0,0.0,0.0,0.0,0.0,0.0,0.0,0.0,0.0,0.0,0.0,0.0,0.0,0.0,0.0,0.0,0.0,-1.5288,0.0,0.0,0.0,0.0,0.0,0.0,0.0,0.0,0.0,0.0,0.0,0.0,0.0,0.0,0.0,0.0,0.0,0.0,0.0,0.0,0.0,0.0,-2.4471,-2.7832,-3.1179,-3.3731,-3.5409,-3.5107,-3.4102,-3.2452,-3.1247,-2.9062,-2.5726,0.0,0.0,0.0,0.0,0.0,0.0,0.0,0.0,0.0,0.0,0.0,0.0,0.0,0.0,0.0,0.0,0.0,0.0,0.0,0.0,0.0,0.0,0.0,0.0,0.0,0.0,-1.1391,-1.1373,-1.1391,0.0,0.0,0.0,0.0,0.0,0.0,0.0,0.0,0.0,0.0,-2.3522,-2.5126,-2.5594,-2.5284,-2.5198,-2.5594,-2.4077,-2.3043,-2.3698,-2.3198,-2.2181,0.0,0.0,0.0,0.0,0.0,0.0,0.0,0.0,0.0,0.0,0.0,0.0,0.0,0.0,0.0,0.0,0.0,0.0,0.0,0.0,0.0,0.0,0.0,0.0,0.0,0.0,0.0,-2.0619,-1.985,0.0,0.0,0.0,0.0,0.0,0.0,0.0,0.0,0.0,0.0,0.0,-2.5332,-2.562,0.0,0.0,0.0,0.0,0.0,0.0,0.0,0.0,0.0,0.0,0.0,0.0,-2.5317,-2.8646,-3.1487,-3.3672,-3.5232,-3.5046,-3.4027,-3.226,-3.1688,-2.9359,-2.5039,0.0,0.0,0.0,0.0,0.0,0.0,0.0,0.0,0.0,0.0,0.0,0.0,0.0,0.0,0.0,0.0,0.0,0.0,0.0,0.0,0.0,0.0,0.0,0.0,0.0,-1.2334,0.0,0.0,0.0,0.0,0.0,0.0,0.0,0.0,0.0,0.0,0.0,-2.1389,-2.2871,-2.4612,-2.5784,-2.5939,-2.6299,-2.6402,0.0,0.0,0.0,0.0,0.0,0.0,0.0,0.0,0.0,0.0,0.0,0.0,0.0,0.0,-1.891,-1.5549,-1.4025,-1.371,-1.5084,0.0,0.0,0.0,0.0,0.0,0.0,0.0,0.0,0.0,0.0,0.0,0.0,0.0,0.0,-2.424,0.0,-2.3408,0.0,0.0,0.0,0.0,0.0,0.0,0.0,0.0,-2.7217,-2.8404,-2.8409,-2.8948,-2.8929,0.0,-2.6948,-2.4413,0.0,0.0,0.0,0.0,0.0,0.0,0.0,0.0,-2.5765,-2.9044,-3.1552,-3.3434,-3.4686,-3.4775,-3.3921,-3.2153,-3.1067,-2.8765,-2.5039,-2.1755,-1.924,0.0,0.0,0.0,0.0,0.0,0.0,0.0,0.0,0.0,0.0,0.0,0.0,0.0,0.0,0.0,0.0,0.0,0.0,0.0,0.0,0.0,0.0,0.0,-1.3492,0.0,0.0,0.0,0.0,0.0,0.0,0.0,0.0,0.0,-2.3078,-2.2819,-2.2923,-2.4422,-2.5712,-2.6523,-2.6523,0.0,0.0,0.0,0.0,0.0,0.0,0.0,-2.4833,-2.4301,-2.5092,-2.5195,-2.3388,-2.1527,-2.0734,-2.2113,0.0,0.0,-1.8502,-1.7453,-1.7339,-1.8178,-1.8643,-1.907,-1.9595,-2.0271,-2.0746,0.0,0.0,0.0,0.0,0.0,0.0,0.0,0.0,-2.8203,-2.8159,0.0,-2.7217,0.0,0.0,0.0,0.0,0.0,-2.7184,0.0,0.0,-3.2237,-3.3353,-3.1852,-3.1814,-3.1795,-3.1737,-3.0827,-2.914,-2.6621,-2.3447,0.0,0.0,0.0,0.0,0.0,0.0,-2.5856,-2.9148,-3.1479,-3.3043,-3.3936,-3.4376,-3.3815,-3.2096,-2.9519,-2.7408,-2.5792,-2.4068,-2.1718,-1.8559,-1.6774,0.0,0.0,0.0,0.0,0.0,0.0,0.0,0.0,0.0,0.0,0.0,0.0,0.0,0.0,0.0,0.0,0.0,0.0,0.0,0.0,-1.4313,0.0,0.0,0.0,0.0,0.0,0.0,0.0,0.0,0.0,0.0,-2.4902,-2.4405,-2.4439,-2.5921,0.0,0.0,0.0,0.0,-2.6506,-2.7264,-2.6126,-2.5454,-2.6128,-2.5592,-2.5126,-2.5178,0.0,0.0,-2.4388,-2.4198,-2.4215,-2.3974,-2.4163,-2.4198,-2.3802,-2.2354,-2.1927,-2.334,-2.3133,-2.3095,-2.3753,-2.4706,-2.5459,-3.4994,0.0,0.0,0.0,0.0,-3.1352,-3.2641,-3.5026,-3.3808,-3.3333,-3.3231,-3.1756,0.0,0.0,0.0,0.0,0.0,0.0,-3.0871,-3.2436,-3.4295,-3.4865,-3.4404,-3.4404,-3.4103,-3.3449,-3.2602,-3.1506,-3.0237,-2.925,-2.5774,-2.0062,0.0,0.0,0.0,0.0,-2.8109,-3.0642,-3.2101,-3.3329,-3.4384,-3.4669,-3.3869,-3.1923,-2.9438,-2.7631,-2.66,-2.5002,-2.3112,-2.0959,-1.8767,0.0,0.0,0.0,0.0,0.0,0.0,0.0,0.0,0.0,0.0,0.0,0.0,0.0,0.0,0.0,0.0,0.0,0.0,0.0,-1.4355,-1.4165,-1.4598,0.0,0.0,0.0,0.0,0.0,0.0,0.0,0.0,0.0,-2.7489,-2.6576,-2.5818,0.0,0.0,-2.8092,-2.8092,-2.8334,-2.861,-2.8834,-2.8489,0.0,-2.8506,-2.7471,-2.7006,-2.804,-2.8592,-2.8644,-2.7989,-2.7661,-2.723,-2.6454,-2.6368,-2.6161,-2.5232,-2.3646,-2.3164,-2.4681,-2.5574,-2.596,-2.6109,-2.6486,-2.6739,-3.97,-3.6796,-3.5122,-3.4891,-3.5641,-3.5141,-3.6295,-3.843,-3.745,-3.718,-3.7373,-3.568,-3.4064,-3.2545,-3.107,0.0,0.0,0.0,-3.3712,-3.5218,-3.6103,-3.6507,-3.6488,-3.65,-3.6219,-3.5661,-3.4487,-3.368,-3.3179,-3.2506,-2.9525,-2.45,0.0,0.0,-2.5375,-2.7357,-2.9561,-3.1907,-3.2797,-3.3521,-3.4163,-3.386,-3.3077,-3.1805,-2.9731,-2.8226,-2.7408,-2.6108,-2.4615,-2.2915,-2.0862,-1.8754,0.0,0.0,0.0,0.0,0.0,0.0,0.0,0.0,0.0,0.0,0.0,-1.1315,-1.01,0.0,0.0,0.0,-1.3355,-1.5262,-1.6074,-1.5978,0.0,0.0,0.0,0.0,0.0,0.0,0.0,-2.1187,-2.213,-2.4178,-2.8075,-2.8127,-2.7868,-2.8144,-2.8558,-2.8782,-2.8575,0.0,-2.9575,-2.9782,-2.9644,-2.942,-2.9248,-2.8816,-2.8816,-2.9661,-2.961,-2.942,-2.9248,-2.9282,-2.9161,-2.8644,-2.8472,-2.804,-2.6576,-2.5781,-2.5784,-2.7214,-2.8109,-2.8593,-2.8493,-2.8733,-2.8973,-4.347,-4.3066,-3.9084,-3.7815,-3.8392,-3.8392,-3.8911,-3.9688,-3.9623,-4.0015,-4.0573,-3.9008,-3.8277,-3.8046,-3.5764,0.0,-3.486,-3.6315,-3.7026,-3.7123,-3.7853,-3.8161,-3.8104,-3.8084,-3.8065,-3.795,-3.6442,-3.5654,-3.55,-3.3987,-3.2346,-3.0692,-2.9159,-2.8684,-2.9165,-2.9319,-3.0571,-3.2929,-3.3386,-3.3639,-3.3658,-3.2441,-3.1801,-3.1794,-3.0158,-2.8876,-2.804,-2.7146,-2.5967,-2.4385,-2.277,-2.1189,-1.9599,0.0,0.0,0.0,0.0,0.0,0.0,0.0,0.0,0.0,0.0,0.0,0.0,0.0,0.0,0.0,-1.577,0.0,-1.8304,-1.8941,0.0,0.0,0.0,-1.9924,-2.0756,-2.2733,-2.375,-2.3143,0.0,0.0,-2.7644,-2.9265,-3.0231,-2.9748,-2.9644,-2.9437,-2.8989,-2.9403,-2.9851,-3.0386,-3.0024,-2.9558,-2.9368,-2.9851,-3.0351,-3.042,-3.0006,-2.9644,-2.9317,-2.9817,-3.0351,-3.0213,-3.03,-2.9765,-2.7868,-2.8523,-2.9748,-3.0179,-3.0541,-3.0731,-3.0679,-3.111,-3.1507,-4.6538,-4.5846,-4.4182,-4.2874,-4.1893,-4.1893,-4.2335,-4.3047,-4.245,-4.2297,-4.2412,-4.1373,-4.0527,-3.9881,-3.9265,-3.9381,-3.9981,-3.9719,-3.995,-4.0519,-4.0104,-3.9592,-3.8996,-3.8988,-3.8642,-3.8007,-3.7603,-3.7084,-3.6423,-3.6,-3.4949,-3.3353,-3.2897,-3.1814,-3.0212,-3.1371,-3.2464,-3.343,-3.3699,-3.4014,-3.4281,-3.2664,-3.1801,-3.1794,-2.9601,-2.8021,-2.7204,-2.6395,-2.5467,-2.4413,-2.2795,-2.1887,-2.1784,-1.7938,0.0,0.0,0.0,0.0,0.0,0.0,0.0,0.0,0.0,-1.4037,-1.1605,0.0,-1.5401,0.0,-1.659,-1.9671,-1.9843,-1.9527,0.0,0.0,-2.2233,-2.2647,-2.4525,-2.5232,-2.573,-2.6161,-2.6851,-2.8177,-3.0437,-3.1145,-3.1386,-3.1248,-3.0765,-3.03,-3.0006,-3.0696,-3.1282,-3.1369,-3.1282,-3.1214,-3.1058,-3.1265,-3.1438,-3.1438,-3.1317,-3.1214,-3.1093,-3.1248,-3.1282,-3.0748,-3.061,-3.0334,-2.9679,-2.9903,-3.042,-3.1214,-3.1489,-3.1541,-3.1524,-3.1679,-3.18,-4.7836,-4.7394,-4.6894,-4.597,-4.4739,-4.397,-4.3893,-4.4239,-4.3835,-4.3624,-4.3605,-4.3143,-4.245,-4.167,-4.167,-4.1931,-4.2335,-4.1873,-4.17,-4.1758,-4.1296,-4.065,-3.9842,-3.9842,-3.9592,-3.9104,-3.8738,-3.8315,-3.7834,-3.7065,-3.6238,-3.5315,-3.4949,-3.4083,-3.2744,-3.3114,-3.3662,-3.4305,-3.4243,-3.4271,-3.4364,-3.2698,-3.1626,-3.1236,-2.9601,-2.8114,-2.6925,-2.6488,-2.5671,-2.4458,-2.3137,-2.2496,-2.2528,-1.9486,-1.7217,0.0,0.0,0.0,0.0,0.0,0.0,0.0,0.0,0.0,0.0,0.0,-1.8288,-1.6582,-1.9062,-2.1078,-2.1854,-2.2151,-2.3009,-2.4646,-2.506,-2.5732,-2.7006,-2.773,-2.8178,-2.8282,-2.8885,-2.992,-3.1576,-3.18,-3.18,-3.18,-3.1473,-3.1127,-3.1041,-3.1455,-3.18,-3.18,-3.18,-3.18,-3.18,-3.18,-3.18,-3.18,-3.18,-3.18,-3.18,-3.18,-3.1662,-3.1265,-3.1179,-3.1145,-3.0989,-3.0955,-3.1179,-3.1507,-3.1231,-3.1076,-3.1645,-3.18,-3.18,-4.8355,-4.8413,-4.8202,-4.7682,-4.6923,-4.5316,-4.4586,-4.447,-4.4451,-4.4451,-4.4451,-4.4355,-4.3989,-4.3412,-4.3431,-4.3412,-4.3431,-4.3297,-4.2777,-4.1962,-4.1846,-4.1335,-4.0516,-4.0496,-4.0496,-4.0458,-3.9785,-3.9392,-3.9265,-3.7661,-3.6801,-3.6625,-3.5856,-3.5446,-3.5379,-3.4488,-3.4353,-3.5115,-3.4648,-3.427,-3.4023,-3.2481,-3.131,-3.0586,-2.9619,-2.8403,-2.6962,-2.6702,-2.5922,-2.4495,-2.3562,-2.2974,-2.2638,-2.1098,-1.9768,0.0,-1.7918,0.0,0.0,0.0,0.0,0.0,0.0,0.0,0.0,-1.9234,-2.063,-2.2694,-2.2505,-2.2819,-2.4129,-2.5542,-2.6439,-2.6575,-2.7816,-2.8696,-2.8747,-2.9972,-3.0575,-2.9886,-3.0989,-3.18,-3.18,-3.18,-3.18,-3.18,-3.1765,-3.1731,-3.1783,-3.1783,-3.18,-3.18,-3.18,-3.18,-3.18,-3.18,-3.18,-3.18,-3.18,-3.18,-3.18,-3.18,-3.1783,-3.1783,-3.1748,-3.1765,-3.18,-3.1765,-3.1714,-3.1593,-3.0748,-3.0455,-3.142,-3.1524,-3.1541,-4.9567,-5.0077,-4.8682,-4.8009,-4.7798,-4.6836,-4.6009,-4.5364,-4.5364,-4.5364,-4.5306,-4.4605,-4.4586,-4.5114,-4.5124,-4.5124,-4.5094,-4.4374,-4.3624,-4.2835,-4.2124,-4.1335,-4.0535,-4.0496,-4.0496,-4.0496,-4.0362,-3.9938,-3.9284,-3.8257,-3.7314,-3.6452,-3.5659,-3.5166,-3.5019,0.0,0.0,0.0,-3.3795,-3.3271,-3.3169,-3.1663,-3.0753,-3.0549,-2.8486,0.0,-2.6869,-2.5624,-2.4807,-2.4464,-2.3588,0.0,0.0,0.0,0.0,0.0,0.0,0.0,0.0,0.0,0.0,0.0,-2.0734,-1.9958,-1.9189,-1.9809,-2.1224,-2.3544,-2.6275,-2.7575,-2.673,-2.742,-2.8196,-2.8834,-2.9679,-3.0248,-3.0317,-3.1059,-3.1507,-3.1403,-3.1627,-3.18,-3.18,-3.18,-3.18,-3.18,-3.18,-3.18,-3.18,-3.18,-3.18,-3.18,-3.18,-3.18,-3.18,-3.18,-3.18,-3.18,-3.18,-3.18,-3.18,-3.18,-3.18,-3.18,-3.18,-3.18,-3.18,-3.18,-3.1627,-3.1059,-3.111,-3.1455,-3.1714,-3.08,-3.0144,-4.926,0.0,-4.9106,-4.8279,0.0,-4.749,-4.6778,-4.5594,-4.5594,-4.5594,-4.5575,-4.5133,-4.519,-4.5594,-4.5594,-4.5594,-4.5594,-4.5152,-4.4498,-4.3662,-4.2835,-4.1989,-4.1123,-4.0708,-4.0496,-4.0489,-4.0408,-4.0197,-3.9827,-3.838,-3.7453,-3.7033,-3.5697,-3.4991,-3.4889,-3.4699,-3.4528,-3.4397,-3.386,-3.3584,-3.354,-3.2017,-3.0995,-3.0586,-2.9006,0.0,0.0,0.0,0.0,0.0,0.0,0.0,0.0,0.0,0.0,-2.2236,-2.1879,-2.147,-2.1056,-2.1694,-2.244,-2.3181,-2.3608,-2.3164,-2.1647,-2.2233,-2.3501,-2.5458,-2.8005,-2.9196,-2.8506,-2.9075,-2.9679,-3.0075,-3.0782,-3.1231,-3.1282,-3.1558,-3.18,-3.18,-3.18,-3.18,-3.18,-3.18,-3.18,-3.18,-3.18,-3.18,-3.18,-3.18,-3.18,-3.18,-3.18,-3.18,-3.18,-3.18,-3.18,-3.18,-3.18,-3.18,-3.18,-3.18,-3.18,-3.18,-3.18,-3.18,-3.18,-3.18,-3.1679,-3.1317,-3.1127,-3.1282,-3.161,-3.0886,-3.0196,-4.8606,-4.9375,-4.9221,-4.8471,-4.7394,-4.8048,-4.7375,-4.5806,0.0,0.0,0.0,-4.5594,-4.5594,-4.5594,-4.5594,-4.5594,-4.5594,-4.5594,-4.5133,-4.4278,-4.347,-4.2643,-4.1769,-4.0893,-4.0496,-4.0489,-4.033,-4.0321,-4.0364,-3.8384,-3.7433,-3.7404,-3.5742,-3.4821,-3.4753,-3.4615,-3.4427,-3.4191,-3.4048,-3.3974,-3.3937,-3.2407,-3.1273,-3.0604,-2.9675,-2.8515,-2.7167,-2.6914,-2.619,-2.4875,-2.4072,-2.3943,-2.4568,-2.4115,-2.4415,-2.5651,-2.5296,-2.4749,-2.4267,-2.4971,-2.5247,-2.4836,-2.5988,-2.5973,-2.4301,-2.4936,-2.6074,-2.7696,-2.9092,-2.9868,-2.9748,-3.042,-3.0904,-3.0886,-3.1558,-3.199,-3.2007,-3.2127,-3.2248,-3.2093,-3.2214,-3.2162,-3.211,-3.2076,-3.1921,-3.1834,-3.18,-3.1886,-3.1938,-3.1886,-3.18,-3.18,-3.18,-3.18,-3.18,-3.18,-3.18,-3.18,-3.18,-3.18,-3.18,-3.18,-3.18,-3.18,-3.18,-3.18,-3.18,-3.18,-3.1748,-3.1627,-3.1094,-3.0748,-3.1334,-3.1127,-3.0627,-4.8606,-4.9336,-4.8606,-4.8586,-4.9048,-4.9163,-4.8279,-4.6701,-4.5922,-4.5594,-4.5594,-4.5594,-4.5594,-4.5594,-4.5594,-4.5594,-4.5594,-4.5594,-4.5152,-4.4278,-4.347,-4.2643,-4.1769,-4.0912,-4.0496,-4.0496,-4.0473,-4.0381,-4.0059,-3.8495,-3.7471,-3.6947,-3.5448,-3.452,-3.4316,-3.4269,-3.4215,-3.4197,-3.3522,-3.3169,-3.3138,-3.1589,-3.0716,-3.0549,-2.9099,-2.8189,-2.7947,-2.7269,-2.6757,-2.6477,-2.6298,-2.6249,-2.6326,-2.5779,-2.5574,-2.574,-2.531,-2.5229,-2.5749,-2.6523,-2.7471,-2.8575,-2.8886,-2.8023,-2.5715,-2.6385,-2.7799,-2.9679,-3.0782,-3.1214,-3.0714,-3.1179,-3.161,-3.1696,-3.2283,-3.2748,-3.2766,-3.33,-3.3524,-3.3128,-3.349,-3.3507,-3.3059,-3.28,-3.2403,-3.1972,-3.2024,-3.2059,-3.2438,-3.2196,-3.1852,-3.18,-3.18,-3.18,-3.1869,-3.18,-3.18,-3.18,-3.18,-3.18,-3.18,-3.18,-3.18,-3.18,-3.18,-3.18,-3.18,-3.18,-3.1576,-3.1179,-3.1179,-3.142,-3.1127,-3.0852,-3.0489,-4.8606,-4.9317,-4.8971,-4.8779,-4.8702,-4.8682,-4.8009,-4.6904,-4.6471,-4.6028,-4.5614,-4.5594,-4.5594,-4.5594,-4.5594,-4.5594,-4.5594,-4.5594,-4.5383,-4.4913,-4.3682,-4.2893,-4.2412,-4.1143,-4.0496,-4.0489,-4.0239,-4.0148,-4.0005,-3.8167,-3.7099,-3.6885,-3.524,-3.4316,-3.4209,-3.4216,-3.4216,-3.4197,-3.3856,-3.364,-3.3621,-3.2518,-3.1701,-3.1273,-3.0065,-2.9229,-2.8802,-2.801,-2.7525,-2.7446,-2.6952,-2.7056,-2.7871,-2.7367,-2.7433,-2.8253,-2.7777,-2.7592,-2.7903,-2.8282,-2.8782,-2.9437,-2.9506,-2.9179,-2.8282,-2.8385,-2.9058,-3.0386,-3.13,-3.1662,-3.1317,-3.1593,-3.1955,-3.2369,-3.2714,-3.3179,-3.38,-3.3973,-3.4113,-3.4059,-3.3697,-3.3404,-3.3317,-3.2714,-3.2472,-3.2507,-3.2817,-3.3024,-3.299,-3.3024,-3.3061,-3.2992,-3.2369,-3.2041,-3.2265,-3.2024,-3.1834,-3.18,-3.18,-3.18,-3.18,-3.18,-3.18,-3.18,-3.18,-3.18,-3.18,-3.18,-3.1627,-3.1508,-3.1507,-3.1593,-3.1334,-3.0989,-3.0144,-4.8779,-4.9394,-4.9413,-4.9106,-4.8682,-4.8682,-4.8125,-4.7201,-4.7173,-4.6586,-4.5671,-4.5594,-4.5594,-4.5594,-4.5594,-4.5594,-4.5594,-4.5594,-4.5594,-4.5421,-4.3874,-4.3085,-4.2912,-4.1324,-4.0496,-4.0465,-4.012,-4.0043,-3.9929,-3.8128,-3.6944,-3.6529,-3.4994,-3.4216,-3.4216,-3.4216,-3.4216,-3.4216,-3.4216,-3.4216,-3.4179,-3.3398,-3.2692,-3.2091,-3.1292,-3.0567,-2.9954,-2.9299,-2.8913,-2.8804,-2.8189,-2.8356,-2.942,-2.8946,-2.9161,-3.0288,-2.9978,-2.9713,-2.9765,-2.9765,-2.9834,-3.0024,-3.0024,-3.0196,-3.0541,-3.0265,-3.0265,-3.0886,-3.1472,-3.1783,-3.1765,-3.1783,-3.2093,-3.2783,-3.3076,-3.3645,-3.4645,-3.4717,-3.4648,-3.4766,-3.4007,-3.3473,-3.3197,-3.2731,-3.2697,-3.3369,-3.3973,-3.4059,-3.3628,-3.4093,-3.4542,-3.432,-3.33,-3.2541,-3.2835,-3.2265,-3.1852,-3.18,-3.18,-3.18,-3.18,-3.18,-3.18,-3.18,-3.18,-3.18,-3.18,-3.18,-3.1783,-3.1731,-3.1765,-3.1783,-3.1731,-3.1351,-3.0317,-4.9317,-4.9394,-4.9452,-4.9837,-5.0375,-5.0414,-4.9471,-4.8067,-4.799,-4.7086,-4.5671,-4.5594,-4.5594,-4.5594,-4.5594,-4.5594,-4.5594,-4.5594,-4.5594,-4.5421,-4.3874,-4.3085,-4.2951,-4.1324,-4.0496,-4.0489,-4.0414,-4.0276,-4.0101,-3.8912,-3.7465,-3.5739,-3.4655,-3.4216,-3.4216,-3.4216,-3.4216,-3.4216,-3.4216,-3.4216,-3.4141,-3.3398,-3.2964,-3.289,-3.2109,-3.1682,-3.1478,-3.1504,-3.1426,-3.1358,-3.1198,-3.1196,-3.1176,-3.0462,-3.0147,-3.0511,-3.0345,-3.0317,-3.0559,-3.061,-3.0851,-3.1507,-3.1507,-3.1524,-3.161,-3.1576,-3.1593,-3.1679,-3.1731,-3.18,-3.18,-3.1817,-3.2179,-3.2921,-3.3524,-3.4283,-3.5028,-3.5732,-3.587,-3.5214,-3.4921,-3.4576,-3.3628,-3.3662,-3.3906,-3.3923,-3.4648,-3.499,-3.4835,-3.537,-3.5852,-3.5749,-3.48,-3.3699,-3.311,-3.2283,-3.1955,-3.1852,-3.18,-3.18,-3.18,-3.18,-3.18,-3.18,-3.18,-3.18,-3.18,-3.18,-3.18,-3.18,-3.18,-3.18,-3.18,-3.1696,-3.0938,-5.0173,-5.0164,-5.0173,-5.0356,-5.0673,-5.0683,-4.9702,-4.8135,-4.8096,-4.7163,-4.571,-4.5594,-4.5594,-4.5594,-4.5594,-4.5594,-4.5594,-4.5594,-4.5594,-4.5441,-4.3874,-4.3085,-4.2912,-4.1324,-4.0496,-4.0473,-4.023,-4.0034,-3.9694,-3.8282,-3.6794,-3.5535,-3.4637,-3.4216,-3.4216,-3.4216,-3.4216,-3.4216,-3.4216,-3.4216,-3.4179,-3.3881,-3.3473,-3.3008,-3.2685,-3.2247,-3.1849,-3.1801,-3.176,-3.1703,-3.1721,-3.1855,-3.2182,-3.15,-3.1333,-3.1778,-3.141,-3.1214,-3.1334,-3.1351,-3.1489,-3.1783,-3.18,-3.18,-3.18,-3.18,-3.18,-3.18,-3.18,-3.18,-3.1817,-3.2179,-3.2748,-3.3473,-3.3921,-3.4389,-3.5111,-3.5456,-3.549,-3.5232,-3.518,-3.4973,-3.449,-3.4887,-3.4956,-3.4545,-3.5062,-3.5663,-3.5352,-3.5818,-3.6232,-3.6232,-3.5732,-3.4921,-3.3852,-3.311,-3.2524,-3.2007,-3.18,-3.18,-3.1834,-3.18,-3.18,-3.18,-3.18,-3.18,-3.18,-3.18,-3.18,-3.18,-3.18,-3.18,-3.18,-3.18,-3.1438,-5.0683,-5.0683,-5.0683,-5.0683,-5.0683,-5.0683,-4.9702,-4.8212,-4.8096,-4.7163,-4.5671,-4.5594,-4.5594,-4.5594,-4.5594,-4.5594,-4.5594,-4.5594,-4.5594,-4.5441,-4.4085,-4.3316,-4.297,-4.1604,-4.0727,-4.0468,-4.012,-3.984,-3.9547,-3.8046,-3.6702,-3.5838,-3.4959,-3.442,-3.4234,-3.4216,-3.4216,-3.4216,-3.4216,-3.4216,-3.4216,-3.4216,-3.3918,-3.341,-3.3336,-3.3057,-3.2518,-3.2451,-3.2439,-3.2374,-3.2374,-3.2593,-3.3025,-3.2605,-3.2448,-3.2626,-3.2144,-3.18,-3.18,-3.18,-3.18,-3.18,-3.18,-3.18,-3.18,-3.18,-3.18,-3.18,-3.18,-3.18,-3.1869,-3.2283,-3.299,-3.3923,-3.3938,-3.418,-3.5318,-3.537,-3.5214,-3.518,-3.518,-3.5128,-3.5076,-3.5611,-3.5818,-3.5111,-3.5611,-3.6163,-3.5697,-3.5956,-3.6284,-3.6284,-3.6266,-3.5749,-3.4628,-3.4024,-3.3317,-3.2714,-3.2403,-3.2179,-3.2041,-3.199,-3.18,-3.18,-3.18,-3.18,-3.18,-3.18,-3.18,-3.18,-3.18,-3.18,-3.18,-3.18,-3.18,-5.0683,-5.0683,-5.0683,-5.0683,-5.0683,-5.0683,-4.9721,-4.8096,-4.8096,-4.7163,-4.571,-4.5594,-4.5594,-4.5594,-4.5594,-4.5594,-4.5594,-4.5594,-4.5594,-4.5518,-4.4624,-4.3816,-4.3066,-4.2162,-4.1277,-4.0515,-4.0223,-3.991,-3.9476,-3.8619,-3.7692,-3.6638,-3.5789,-3.5014,-3.4383,-3.4234,-3.4216,-3.4216,-3.4216,-3.4216,-3.4216,-3.4216,-3.4179,-3.4086,-3.4123,-3.4048,-3.4011,-3.4048,-3.4048,-3.4067,-3.3981,-3.4012,-3.4012,-3.3854,-3.3393,-3.2587,-3.2055,-3.18,-3.18,-3.18,-3.18,-3.18,-3.18,-3.18,-3.18,-3.18,-3.18,-3.18,-3.18,-3.18,-3.1817,-3.2093,-3.2645,-3.3785,-3.3455,-3.4128,-3.5887,-3.5473,-3.5214,-3.518,-3.5249,-3.5301,-3.5249,-3.5835,-3.618,-3.6059,-3.6215,-3.6232,-3.6197,-3.6249,-3.6284,-3.6284,-3.6249,-3.6025,-3.5283,-3.4749,-3.4421,-3.3869,-3.3197,-3.2817,-3.2593,-3.2352,-3.2024,-3.18,-3.18,-3.18,-3.18,-3.18,-3.18,-3.18,-3.18,-3.18,-3.18,-3.18,-3.18,-5.0683,-5.0683,-5.0683,-5.0683,-5.0683,-5.0683,-4.9702,-4.8135,-4.8096,-4.7163,-4.5787,-4.5594,-4.5594,-4.5594,-4.5594,-4.5594,-4.5594,-4.5594,-4.5594,-4.5498,-4.4701,-4.3874,-4.3066,-4.22,-4.127,-4.0391,-4.0062,-3.9705,-3.9186,-3.8425,-3.7882,-3.7307,-3.6142,-3.5324,-3.499,-3.4457,-3.4216,-3.4216,-3.4216,-3.4216,-3.4216,-3.4216,-3.4216,-3.4216,-3.4216,-3.4216,-3.4216,-3.4216,-3.4216,-3.4216,-3.4161,-3.4124,-3.4061,-3.3602,-3.2937,-3.2144,-3.191,-3.18,-3.18,-3.18,-3.18,-3.18,-3.18,-3.18,-3.18,-3.18,-3.18,-3.18,-3.18,-3.18,-3.2007,-3.2645,-3.3248,-3.3335,-3.3955,-3.4387,-3.4818,-3.5042,-3.5128,-3.5094,-3.5439,-3.5904,-3.5904,-3.6128,-3.6284,-3.6284,-3.6284,-3.6284,-3.6284,-3.6284,-3.6284,-3.6284,-3.6284,-3.6215,-3.6008,-3.537,-3.4887,-3.4525,-3.4042,-3.3438,-3.3059,-3.2317,-3.1869,-3.1972,-3.1938,-3.2076,-3.2162,-3.2127,-3.2076,-3.1903,-3.1903,-3.1938,-3.18,-3.18,-3.18,-5.0683,-5.0683,-5.0683,-5.0683,-5.0683,-5.0683,-4.9875,-4.8548,-4.8221,-4.7298,-4.6144,-4.5729,-4.5594,-4.5594,-4.5594,-4.5594,-4.5594,-4.5594,-4.5594,-4.5556,-4.4989,-4.4143,-4.3143,-4.2489,-4.1513,-4.032,-3.9867,-3.9482,-3.9082,-3.8544,-3.8172,-3.7833,-3.6532,-3.5751,-3.5417,-3.4637,-3.4216,-3.4216,-3.4216,-3.4216,-3.4216,-3.4216,-3.4216,-3.4216,-3.4216,-3.4216,-3.4216,-3.4216,-3.4216,-3.4197,-3.4136,-3.4086,-3.3998,-3.3222,-3.2553,-3.2091,-3.1892,-3.18,-3.18,-3.18,-3.18,-3.18,-3.18,-3.18,-3.18,-3.18,-3.18,-3.18,-3.18,-3.18,-3.2024,-3.2921,-3.3559,-3.3352,-3.4007,-3.4611,-3.4783,-3.5042,-3.5214,-3.5421,-3.587,-3.6232,-3.6284,-3.6284,-3.6284,-3.6284,-3.6284,-3.6284,-3.6284,-3.6284,-3.6284,-3.6284,-3.6284,-3.6284,-3.618,-3.5818,-3.5611,-3.5301,-3.48,-3.4162,-3.3524,-3.2645,-3.2127,-3.2196,-3.23,-3.2455,-3.2543,-3.2526,-3.2386,-3.2214,-3.2196,-3.23,-3.2076,-3.18,-3.1834,-5.0683,-5.0683,-5.0683,-5.0683,-5.0683,-5.0683,-5.0212,-4.926,-4.8509,-4.7721,-4.6874,-4.6067,-4.5748,-4.5671,-4.5652,-4.5594,-4.5594,-4.5594,-4.5594,-4.5575,-4.5518,-4.4613,-4.3143,-4.2964,-4.1892,-4.0167,-3.9721,-3.9376,-3.9078,-3.899,-3.8655,-3.7931,-3.7151,-3.6365,-3.5547,-3.4804,-3.4253,-3.4216,-3.4216,-3.4216,-3.4216,-3.4216,-3.4216,-3.4216,-3.4216,-3.4216,-3.4216,-3.4216,-3.4216,-3.4185,-3.4124,-3.4067,-3.3834,-3.2999,-3.2402,-3.2335,-3.2037,-3.1818,-3.18,-3.18,-3.18,-3.18,-3.18,-3.18,-3.18,-3.18,-3.18,-3.18,-3.18,-3.1834,-3.2041,-3.261,-3.3231,-3.3852,-3.3662,-3.4214,-3.5439,-3.5611,-3.5473,-3.6025,-3.6266,-3.6284,-3.6284,-3.6284,-3.6284,-3.6284,-3.6284,-3.6284,-3.6284,-3.6284,-3.6284,-3.6284,-3.6284,-3.6284,-3.6284,-3.6266,-3.6249,-3.6128,-3.5576,-3.501,-3.4507,-3.3766,-3.3162,-3.311,-3.3214,-3.3371,-3.3371,-3.3354,-3.3248,-3.3093,-3.2955,-3.2645,-3.2334,-3.2093,-3.1955,-5.0683,-5.0683,-5.0683,-5.0683,-5.0683,-5.0683,-5.0231,-4.9413,-4.9086,-4.8529,-4.7682,-4.6874,-4.6509,-4.6336,-4.5893,-4.5594,-4.5594,-4.5594,-4.5594,-4.5586,-4.5586,-4.472,-4.3348,-4.2898,-4.175,-3.997,-3.9383,-3.9178,-3.9129,-3.9101,-3.8934,-3.8618,-3.7894,-3.7127,-3.6328,-3.5516,-3.4847,-3.4271,-3.4216,-3.4216,-3.4216,-3.4216,-3.4216,-3.4216,-3.4216,-3.4216,-3.4216,-3.4216,-3.4191,-3.4136,-3.4061,-3.3868,-3.3426,-3.2797,-3.2283,-3.2037,-3.1893,-3.18,-3.18,-3.18,-3.18,-3.18,-3.18,-3.18,-3.18,-3.18,-3.18,-3.18,-3.1817,-3.2145,-3.3076,-3.3041,-3.311,-3.3266,-3.399,-3.4628,-3.5473,-3.5801,-3.6025,-3.6215,-3.6284,-3.6284,-3.6284,-3.6284,-3.6284,-3.6284,-3.6284,-3.6284,-3.6284,-3.6284,-3.6284,-3.6284,-3.6284,-3.6284,-3.6284,-3.6284,-3.6284,-3.6284,-3.5956,-3.5645,-3.5214,-3.4973,-3.4387,-3.4007,-3.4128,-3.418,-3.4199,-3.4199,-3.4111,-3.3749,-3.3421,-3.3041,-3.2628,-3.2472,-3.2421,-5.0683,-5.0683,-5.0683,-5.0683,-5.0683,-5.0683,-5.0394,-4.9856,-4.9529,-4.9067,-4.8452,-4.7375,-4.6904,-4.6721,-4.599,-4.5614,-4.5594,-4.5594,-4.555,-4.5476,-4.5448,-4.4671,-4.3339,-4.233,-4.1177,-3.9752,-3.9232,-3.9082,-3.9101,-3.9101,-3.9082,-3.8952,-3.8302,-3.7665,-3.7039,-3.6067,-3.5175,-3.4699,-3.4364,-3.4216,-3.4216,-3.4216,-3.4216,-3.4216,-3.4216,-3.4216,-3.4216,-3.4173,-3.4148,-3.4061,-3.3792,-3.34,-3.3032,-3.2504,-3.2056,-3.1874,-3.18,-3.18,-3.18,-3.18,-3.18,-3.18,-3.18,-3.18,-3.18,-3.18,-3.18,-3.18,-3.2179,-3.2854,-3.3731,-3.3697,-3.3473,-3.3749,-3.4576,-3.5283,-3.5576,-3.6008,-3.6249,-3.6284,-3.6284,-3.6284,-3.6284,-3.6284,-3.6284,-3.6284,-3.6284,-3.6284,-3.6284,-3.6284,-3.6284,-3.6284,-3.6284,-3.6284,-3.6284,-3.6284,-3.6284,-3.6284,-3.6232,-3.6008,-3.5714,-3.5801,-3.5508,-3.5025,-3.4938,-3.4956,-3.4973,-3.5094,-3.5097,-3.4525,-3.4007,-3.38,-3.3559,-3.3197,-3.3076,-5.0683,-5.0683,-5.0683,-5.0683,-5.0683,-5.0683,-5.0654,-5.0519,-4.9885,-4.9529,-4.9144,-4.7798,-4.7038,-4.6817,-4.6047,-4.5594,-4.5594,-4.5594,-4.5467,-4.5292,-4.5144,-4.4635,-4.3566,-4.1815,-4.0509,-3.9727,-3.928,-3.9096,-3.9101,-3.9101,-3.9101,-3.9008,-3.8432,-3.7931,-3.7559,-3.6346,-3.5584,-3.5306,-3.4618,-3.4216,-3.4216,-3.4216,-3.4216,-3.4197,-3.4204,-3.4185,-3.4173,-3.4074,-3.4018,-3.3967,-3.3339,-3.295,-3.2715,-3.2179,-3.1819,-3.18,-3.18,-3.18,-3.18,-3.18,-3.18,-3.18,-3.18,-3.18,-3.18,-3.18,-3.1903,-3.2076,-3.2714,-3.3507,-3.413,-3.4217,-3.4493,-3.5094,-3.5318,-3.5645,-3.6163,-3.6284,-3.6284,-3.6284,-3.6284,-3.6284,-3.6284,-3.6284,-3.6284,-3.6284,-3.6284,-3.6284,-3.6284,-3.6284,-3.6284,-3.6284,-3.6301,-3.6284,-3.6284,-3.6284,-3.6284,-3.6284,-3.6284,-3.6215,-3.6111,-3.6215,-3.6284,-3.587,-3.5594,-3.5645,-3.5697,-3.5749,-3.5697,-3.5318,-3.4973,-3.4821,-3.4421,-3.3973,-3.3783,-5.0683,-5.0683,-5.0683,-5.0683,-5.0683,-5.0683,-5.0683,-5.0673,-5.0462,-5.0279,-4.9971,-4.8529,-4.7769,-4.7625,-4.624,-4.5594,-4.5594,-4.5586,-4.5448,-4.5201,-4.4977,-4.4345,-4.3215,-4.1588,-4.0512,-4.0076,-3.9435,-3.9101,-3.9101,-3.9101,-3.9101,-3.9101,-3.8859,-3.8451,-3.7819,-3.6891,-3.6073,-3.5454,-3.4643,-3.4216,-3.4216,-3.4216,-3.4216,-3.4179,-3.4161,-3.4136,-3.4068,-3.3784,-3.3588,-3.3542,-3.3103,-3.2827,-3.2747,-3.2179,-3.18,-3.18,-3.18,-3.18,-3.18,-3.18,-3.18,-3.18,-3.18,-3.18,-3.18,-3.18,-3.2162,-3.2697,-3.3231,-3.399,-3.5197,-3.5197,-3.5318,-3.5852,-3.5939,-3.6025,-3.6215,-3.6284,-3.6284,-3.6284,-3.6284,-3.6284,-3.6284,-3.6284,-3.6318,-3.6335,-3.637,-3.6301,-3.6318,-3.6422,-3.649,-3.6353,-3.6318,-3.6301,-3.6284,-3.6284,-3.6284,-3.6284,-3.6301,-3.6318,-3.6249,-3.6249,-3.6284,-3.6146,-3.599,-3.5973,-3.6059,-3.6128,-3.6008,-3.5852,-3.5542,-3.518,-3.4887,-3.4525,-3.4542,-5.0683,-5.0683,-5.0683,-5.0683,-5.0683,-5.0683,-5.0683,-5.0683,-5.0683,-5.0683,-5.0375,-4.9298,-4.8452,-4.7971,-4.674,-4.5932,-4.5624,-4.5485,-4.5282,-4.5007,-4.4643,-4.3938,-4.288,-4.1623,-4.0849,-4.03,-3.951,-3.9138,-3.9101,-3.9101,-3.9101,-3.9101,-3.9101,-3.8841,-3.8432,-3.7596,-3.6811,-3.603,-3.5175,-3.4606,-3.4234,-3.4216,-3.4204,-3.4161,-3.4124,-3.4086,-3.3985,-3.3616,-3.339,-3.3273,-3.2908,-3.2651,-3.2715,-3.2162,-3.1818,-3.18,-3.18,-3.18,-3.18,-3.18,-3.18,-3.18,-3.18,-3.199,-3.2196,-3.2265,-3.2628,-3.3145,-3.3731,-3.48,-3.5818,-3.5887,-3.5887,-3.6163,-3.6284,-3.6284,-3.6284,-3.6284,-3.6284,-3.6284,-3.6284,-3.6284,-3.6284,-3.6301,-3.649,-3.6715,-3.687,-3.6628,-3.6404,-3.6594,-3.6719,-3.6611,-3.6732,-3.687,-3.706,-3.7111,-3.7198,-3.7129,-3.6818,-3.6749,-3.6508,-3.6456,-3.6284,-3.6284,-3.6284,-3.6284,-3.6284,-3.6284,-3.6215,-3.6025,-3.5766,-3.5645,-3.5421,-3.5197,-3.5214,-5.0683,-5.0683,-5.0683,-5.0683,-5.0683,-5.0683,-5.0683,-5.0683,-5.0683,-5.0683,-5.0442,-4.9663,-4.8682,-4.8048,-4.6951,-4.6278,-4.5586,-4.5371,-4.5041,-4.4701,-4.428,-4.3676,-4.3077,-4.1983,-4.1225,-4.0531,-3.9602,-3.9157,-3.9101,-3.9101,-3.9101,-3.9101,-3.9101,-3.9101,-3.8804,-3.8228,-3.7522,-3.6792,-3.5826,-3.5101,-3.4606,-3.4482,-3.4464,-3.4408,-3.437,-3.4107,-3.3825,-3.349,-3.324,-3.3169,-3.262,-3.2469,-3.2586,-3.2073,-3.1855,-3.18,-3.18,-3.18,-3.18,-3.18,-3.1886,-3.1955,-3.199,-3.2231,-3.2817,-3.3041,-3.3231,-3.3697,-3.4579,-3.537,-3.6059,-3.6249,-3.6232,-3.6284,-3.6284,-3.6284,-3.6284,-3.6284,-3.6284,-3.6284,-3.6284,-3.6284,-3.6318,-3.6439,-3.6697,-3.7129,-3.7357,-3.7443,-3.7249,-3.7387,-3.7301,-3.7042,-3.7267,-3.7616,-3.7858,-3.806,-3.818,-3.8198,-3.7789,-3.7495,-3.7008,-3.6784,-3.6439,-3.6284,-3.6284,-3.6284,-3.6284,-3.6284,-3.6318,-3.6249,-3.6042,-3.6128,-3.618,-3.5939,-3.5852,-5.0683,-5.0683,-5.0683,-5.0683,-5.0683,-5.0683,-5.0683,-5.0683,-5.0683,-5.0683,-5.0375,-4.9106,-4.8375,-4.8009,-4.674,-4.5748,-4.5569,-4.5282,-4.4954,-4.4465,-4.4162,-4.3946,-4.3429,-4.2314,-4.1553,-4.0977,-3.977,-3.9138,-3.9101,-3.9101,-3.9101,-3.9101,-3.9101,-3.9101,-3.8971,-3.8395,-3.7856,-3.7424,-3.629,-3.5535,-3.5318,-3.5156,-3.5099,-3.5036,-3.4945,-3.438,-3.356,-3.309,-3.2813,-3.2554,-3.2369,-3.2214,-3.2091,-3.1997,-3.1905,-3.1817,-3.1834,-3.1834,-3.1817,-3.1903,-3.2076,-3.2593,-3.2714,-3.3007,-3.3714,-3.3837,-3.4165,-3.4648,-3.5059,-3.5594,-3.6146,-3.6284,-3.6284,-3.6284,-3.6284,-3.6301,-3.6301,-3.6318,-3.637,-3.637,-3.6353,-3.6318,-3.637,-3.6939,-3.7249,-3.7564,-3.7892,-3.8203,-3.8272,-3.8249,-3.7974,-3.7698,-3.8008,-3.8353,-3.8508,-3.8784,-3.906,-3.906,-3.8686,-3.8358,-3.787,-3.7249,-3.6956,-3.6594,-3.6284,-3.6335,-3.6559,-3.6422,-3.6473,-3.6387,-3.6284,-3.6284,-3.6284,-3.6284,-3.6284,-5.0683,-5.0683,-5.0683,-5.0683,-5.0683,-5.0683,-5.0683,-5.0683,-5.0683,-5.0683,-5.0539,-4.9654,-4.8894,-4.8067,-4.7163,-4.6396,-4.5447,-4.5007,-4.4612,-4.425,-4.4048,-4.4005,-4.3801,-4.2797,-4.198,-4.1479,-4.0364,-3.9584,-3.9212,-3.9101,-3.9101,-3.9101,-3.9101,-3.9101,-3.9101,-3.8655,-3.8265,-3.7843,-3.7092,-3.643,-3.6083,-3.5943,-3.5599,-3.5333,-3.5114,-3.454,-3.3426,-3.3001,-3.2651,-3.2369,-3.2196,-3.2001,-3.2045,-3.2457,-3.2507,-3.1938,-3.2179,-3.2283,-3.2317,-3.2352,-3.2662,-3.3386,-3.3455,-3.3904,-3.4318,-3.4527,-3.4869,-3.5456,-3.5749,-3.5921,-3.6232,-3.6284,-3.6284,-3.6284,-3.6301,-3.6456,-3.6766,-3.687,-3.6922,-3.6956,-3.6991,-3.7318,-3.7594,-3.7732,-3.806,-3.8456,-3.8767,-3.906,-3.9083,-3.9008,-3.8732,-3.8612,-3.8888,-3.9112,-3.9215,-3.9474,-3.9894,-3.9784,-3.9491,-3.9232,-3.8922,-3.8215,-3.7525,-3.7267,-3.7077,-3.6956,-3.7077,-3.6887,-3.6663,-3.6439,-3.6335,-3.6301,-3.6335,-3.6439,-3.6387,-5.0683,-5.0683,-5.0683,-5.0683,-5.0683,-5.0683,-5.0683,-5.0683,-5.0683,-5.0683,-5.0615,-5.0567,-4.9239,-4.8212,-4.7683,-4.6652,-4.5392,-4.4688,-4.4303,-4.4064,-4.4036,-4.4005,-4.3819,-4.328,-4.2575,-4.1757,-4.0754,-3.9937,-3.9287,-3.9101,-3.9101,-3.9101,-3.9101,-3.9101,-3.9101,-3.9064,-3.8753,-3.8187,-3.7775,-3.7345,-3.6855,-3.6689,-3.6288,-3.5851,-3.5395,-3.486,-3.3933,-3.3353,-3.292,-3.2564,-3.2416,-3.2147,-3.2179,-3.2938,-3.3559,-3.2214,-3.2817,-3.2921,-3.2852,-3.3007,-3.3421,-3.4199,-3.4268,-3.4611,-3.5094,-3.5249,-3.549,-3.5887,-3.6197,-3.6197,-3.6284,-3.6525,-3.6525,-3.6559,-3.6594,-3.6973,-3.7473,-3.7754,-3.7996,-3.803,-3.7892,-3.7991,-3.837,-3.8634,-3.8991,-3.9353,-3.9646,-3.9836,-3.9836,-3.9802,-3.9583,-3.9531,-3.979,-3.9888,-3.9957,-3.9957,-4.0411,-4.0359,-4.0112,-3.9991,-3.9836,-3.9457,-3.8836,-3.8323,-3.8099,-3.7927,-3.7732,-3.7663,-3.7318,-3.6749,-3.6784,-3.7146,-3.7008,-3.668,-3.6663,-5.0683,-5.0683,-5.0683,-5.0683,-5.0683,-5.0683,-5.0683,-5.0683,-5.0683,-5.0683,-5.0557,-4.972,-4.8848,-4.7802,-4.6701,-4.5679,-4.4819,-4.4416,-4.4236,-4.4017,-4.4005,-4.4005,-4.3931,-4.3782,-4.3262,-4.2389,-4.1237,-4.0067,-3.938,-3.9101,-3.9101,-3.9101,-3.9101,-3.9101,-3.9101,-3.9082,-3.9017,-3.8646,-3.8197,-3.7762,-3.7562,-3.7432,-3.7264,-3.6828,-3.6292,-3.5575,-3.4848,-3.4169,-3.3793,-3.3838,-3.4306,-3.3473,-3.2593,-3.2852,-3.3386,-3.3697,-3.3785,-3.368,-3.3317,-3.3593,-3.4214,-3.4821,-3.501,-3.5335,-3.5835,-3.6008,-3.6025,-3.6128,-3.6284,-3.6284,-3.6318,-3.6784,-3.7219,-3.7409,-3.7715,-3.8129,-3.8422,-3.8789,-3.9134,-3.9117,-3.8858,-3.8686,-3.91,-3.9376,-3.9474,-3.9802,-4.0146,-4.0377,-4.0429,-4.0498,-4.0498,-4.0532,-4.0653,-4.0705,-4.0739,-4.067,-4.0774,-4.0739,-4.0601,-4.0601,-4.0532,-4.0636,-4.0256,-3.9462,-3.8945,-3.8646,-3.8525,-3.8422,-3.8163,-3.7749,-3.7922,-3.8112,-3.7853,-3.7577,-3.7629,-5.0683,-5.0683,-5.0683,-5.0683,-5.0683,-5.0683,-5.0683,-5.0673,-5.0514,-5.0442,-5.0232,-4.9685,-4.8934,-4.8041,-4.7138,-4.5878,-4.4688,-4.4236,-4.4121,-4.4005,-4.4005,-4.4005,-4.4005,-4.4005,-4.3522,-4.2686,-4.1586,-4.055,-3.977,-3.9287,-3.9138,-3.9101,-3.9101,-3.9101,-3.9101,-3.9101,-3.9045,-3.8896,-3.858,-3.8315,-3.8243,-3.8188,-3.7981,-3.7426,-3.6894,-3.6166,-3.527,-3.4677,-3.4231,-3.4162,-3.4424,-3.3955,-3.3578,-3.3682,-3.4404,-3.4956,-3.4872,-3.4545,-3.4162,-3.4507,-3.501,-3.5628,-3.5732,-3.5904,-3.618,-3.6249,-3.6284,-3.6284,-3.6284,-3.6284,-3.6301,-3.7081,-3.7426,-3.7633,-3.822,-3.8767,-3.9129,-3.9491,-3.9767,-3.9963,-3.9577,-3.9508,-3.998,-4.0101,-4.0014,-4.0273,-4.0653,-4.0791,-4.0894,-4.0894,-4.0894,-4.0894,-4.0877,-4.0877,-4.0894,-4.0894,-4.0894,-4.0894,-4.0894,-4.0894,-4.0894,-4.086,-4.0687,-4.0221,-3.9807,-3.9439,-3.9267,-3.9146,-3.8979,-3.8772,-3.8629,-3.856,-3.856,-3.8525,-3.8599,-5.0683,-5.0683,-5.0683,-5.0683,-5.0683,-5.0614,-5.0594,-5.0544,-5.026,-5.0123,-5.0087,-4.98,-4.9196,-4.8318,-4.7211,-4.5904,-4.436,-4.4094,-4.402,-4.4005,-4.4005,-4.4005,-4.4005,-4.3949,-4.3689,-4.315,-4.1962,-4.1181,-4.0271,-3.9491,-3.9138,-3.9101,-3.9101,-3.9087,-3.9073,-3.9059,-3.9036,-3.8964,-3.8925,-3.8851,-3.8777,-3.8683,-3.8368,-3.7644,-3.716,-3.6436,-3.5723,-3.5134,-3.4868,-3.4733,-3.468,-3.4576,-3.4648,-3.5097,-3.568,-3.6094,-3.5714,-3.5421,-3.5197,-3.537,-3.5645,-3.6111,-3.6249,-3.6284,-3.6284,-3.6284,-3.6284,-3.6284,-3.6284,-3.6439,-3.668,-3.7288,-3.7789,-3.822,-3.8738,-3.9272,-3.9733,-4.0095,-4.0284,-4.0302,-4.0129,-4.0215,-4.0515,-4.0567,-4.0429,-4.0446,-4.0808,-4.0825,-4.0894,-4.0894,-4.0894,-4.0894,-4.0894,-4.0894,-4.0894,-4.0894,-4.0894,-4.0894,-4.0894,-4.0894,-4.0894,-4.0894,-4.0722,-4.0601,-4.0618,-4.029,-4.0101,-3.9928,-3.9825,-3.9618,-3.9215,-3.9181,-3.9457,-3.9549,-3.9531,-5.0683,-5.0683,-5.0683,-5.0683,-5.0634,-5.0399,-5.026,-5.0218,-4.9974,-4.9838,-4.9844,-4.9531,-4.895,-4.7909,-4.6389,-4.5112,-4.429,-4.4017,-4.4005,-4.4005,-4.4005,-4.4005,-4.4005,-4.4005,-4.3949,-4.3429,-4.2259,-4.1219,-4.0438,-3.9602,-3.912,-3.9087,-3.9087,-3.9078,-3.9021,-3.9007,-3.8935,-3.8833,-3.8822,-3.8762,-3.8689,-3.8658,-3.8373,-3.7909,-3.7311,-3.6788,-3.6424,-3.5894,-3.559,-3.5863,-3.5921,-3.599,-3.6059,-3.6094,-3.618,-3.6266,-3.6146,-3.5887,-3.5473,-3.5732,-3.6042,-3.6249,-3.6284,-3.6284,-3.6284,-3.6284,-3.6284,-3.6284,-3.6335,-3.6663,-3.7271,-3.803,-3.8663,-3.9284,-3.9825,-4.0273,-4.067,-4.0446,-4.067,-4.0705,-4.0491,-4.0601,-4.0808,-4.0808,-4.0808,-4.086,-4.0894,-4.0894,-4.0894,-4.0894,-4.0894,-4.0894,-4.0894,-4.0894,-4.0894,-4.0894,-4.0894,-4.0894,-4.0894,-4.0894,-4.0894,-4.0894,-4.0894,-4.0825,-4.0894,-4.0894,-4.0601,-4.0498,-4.0618,-4.0446,-4.0066,-4.0273,-4.0653,-4.0601,-4.0308,-5.0683,-5.0692,-5.0513,-5.0421,-5.0388,-5.0099,-4.9987,-4.9904,-4.9698,-4.9554,-4.9529,-4.9236,-4.8418,-4.7247,-4.6227,-4.5284,-4.4265,-4.4023,-4.4005,-4.4005,-4.4005,-4.4005,-4.4005,-4.4005,-4.4005,-4.3615,-4.2519,-4.1571,-4.0736,-3.9825,-3.9106,-3.905,-3.905,-3.9007,-3.895,-3.8935,-3.8896,-3.8822,-3.8747,-3.8627,-3.8433,-3.8334,-3.8168,-3.7773,-3.7184,-3.6963,-3.6747,-3.6391,-3.6128,-3.6284,-3.6284,-3.6284,-3.6284,-3.6284,-3.6284,-3.6284,-3.6284,-3.6111,-3.5921,-3.6128,-3.6232,-3.6284,-3.6284,-3.6284,-3.6284,-3.6284,-3.6284,-3.6284,-3.687,-3.7353,-3.7875,-3.8669,-3.9198,-3.9819,-4.0498,-4.0705,-4.0894,-4.0894,-4.086,-4.0894,-4.0894,-4.0894,-4.0894,-4.0877,-4.086,-4.0877,-4.0894,-4.0894,-4.0894,-4.0894,-4.0894,-4.0894,-4.0894,-4.0894,-4.0894,-4.0894,-4.0894,-4.0894,-4.0894,-4.0894,-4.0894,-4.0894,-4.0894,-4.0894,-4.0894,-4.0894,-4.0894,-4.086,-4.0774,-4.0825,-4.0877,-4.0894,-4.0894,-4.086,-4.0653,-5.0472,-5.0432,-5.0272,-5.0171,-5.0087,-4.9798,-4.9712,-4.9651,-4.9393,-4.9255,-4.9209,-4.899,-4.8108,-4.6977,-4.6529,-4.5677,-4.4395,-4.4116,-4.4023,-4.4005,-4.4005,-4.4005,-4.4005,-4.4005,-4.4005,-4.3986,-4.2723,-4.1869,-4.1237,-4.0461,-3.9672,-3.9048,-3.9007,-3.8968,-3.891,-3.8881,-3.8851,-3.878,-3.8719,-3.8515,-3.8236,-3.8252,-3.7896,-3.7505,-3.7133,-3.6976,-3.6721,-3.6478,-3.6287,-3.6284,-3.6284,-3.6284,-3.6284,-3.6284,-3.6284,-3.6284,-3.6284,-3.6266,-3.6197,-3.6266,-3.6284,-3.6284,-3.6284,-3.6284,-3.6284,-3.6301,-3.6563,-3.6766,-3.8112,-3.8479,-3.8599,-3.9232,-3.9664,-4.0095,-4.0584,-4.0756,-4.0894,-4.0894,-4.0894,-4.0894,-4.0894,-4.0894,-4.0894,-4.0894,-4.0894,-4.0894,-4.0894,-4.0894,-4.0894,-4.0894,-4.0894,-4.0894,-4.0894,-4.0894,-4.0894,-4.0894,-4.0894,-4.0894,-4.0894,-4.0894,-4.0894,-4.0894,-4.0894,-4.0894,-4.0894,-4.0894,-4.0894,-4.0894,-4.0894,-4.0894,-4.0894,-4.0894,-4.0894,-4.0894,-4.0894,-4.9851,-4.9865,-5.0099,-5.005,-4.9784,-4.9544,-4.9427,-4.9396,-4.9075,-4.8959,-4.8976,-4.887,-4.8407,-4.7553,-4.6735,-4.5992,-4.5119,-4.4358,-4.4079,-4.4005,-4.4005,-4.4005,-4.4005,-4.4005,-4.3986,-4.3875,-4.2965,-4.2222,-4.1739,-4.1367,-4.0288,-3.9266,-3.9275,-3.9017,-3.8888,-3.8899,-3.8795,-3.8735,-3.8707,-3.8481,-3.8302,-3.8252,-3.8034,-3.7283,-3.7208,-3.7114,-3.6409,-3.6305,-3.6284,-3.6284,-3.6284,-3.6284,-3.6284,-3.6284,-3.6284,-3.6284,-3.6284,-3.6284,-3.6284,-3.6284,-3.6284,-3.6284,-3.6284,-3.6353,-3.649,-3.6353,-3.6736,-3.765,-3.9048,-3.9853,-3.9733,-3.9715,-4.0152,-4.0463,-4.0739,-4.0808,-4.0894,-4.0894,-4.0894,-4.0894,-4.0894,-4.0894,-4.0894,-4.0894,-4.0894,-4.0894,-4.0894,-4.0894,-4.0894,-4.0894,-4.0894,-4.0894,-4.0894,-4.0894,-4.0894,-4.0894,-4.0894,-4.0894,-4.0894,-4.0894,-4.0894,-4.0894,-4.0894,-4.0894,-4.0894,-4.0894,-4.0894,-4.0894,-4.0894,-4.0894,-4.0894,-4.0894,-4.0894,-4.0894,-4.0894,-4.9693,-4.9573,-4.967,-4.9655,-4.951,-4.9222,-4.9094,-4.9077,-4.8942,-4.889,-4.889,-4.8853,-4.8463,-4.7664,-4.6865,-4.6048,-4.5249,-4.4395,-4.4098,-4.4005,-4.4005,-4.4005,-4.4005,-4.3989,-4.4005,-4.3838,-4.3206,-4.2723,-4.237,-4.198,-4.1315,-4.0496,-3.9971,-3.9626,-3.9439,-3.9062,-3.8811,-3.8741,-3.8695,-3.8517,-3.8236,-3.817,-3.7879,-3.7055,-3.6997,-3.686,-3.6388,-3.6305,-3.6284,-3.6284,-3.6284,-3.6284,-3.6284,-3.6284,-3.6284,-3.6284,-3.6284,-3.6284,-3.6284,-3.6284,-3.6284,-3.6284,-3.6318,-3.649,-3.6835,-3.6628,-3.6943,-3.8082,-3.9721,-4.0567,-4.0549,-4.0446,-4.0636,-4.0825,-4.0894,-4.0894,-4.0894,-4.0894,-4.0894,-4.0894,-4.0894,-4.0894,-4.0894,-4.0894,-4.0894,-4.0894,-4.0894,-4.0894,-4.0894,-4.0894,-4.0894,-4.0894,-4.0894,-4.0894,-4.0894,-4.0894,-4.0912,-4.0894,-4.0894,-4.0894,-4.0894,-4.0894,-4.0894,-4.0894,-4.0894,-4.0894,-4.0894,-4.0894,-4.0894,-4.0894,-4.0894,-4.0894,-4.0894,-4.0894,-4.0894,-4.942,-4.9257,-4.9239,-4.9239,-4.9206,-4.9012,-4.889,-4.889,-4.889,-4.889,-4.889,-4.8872,-4.8612,-4.7906,-4.694,-4.629,-4.5509,-4.4636,-4.4153,-4.4005,-4.4005,-4.3989,-4.3974,-4.3976,-4.3958,-4.3809,-4.3475,-4.3067,-4.2659,-4.2399,-4.2029,-4.1569,-4.108,-4.0725,-4.0113,-3.9496,-3.9074,-3.9056,-3.9025,-3.8663,-3.826,-3.8356,-3.79,-3.7124,-3.6939,-3.6719,-3.6409,-3.6284,-3.6284,-3.6284,-3.6284,-3.6284,-3.6284,-3.6284,-3.6284,-3.6284,-3.6301,-3.6301,-3.6301,-3.6284,-3.6404,-3.668,-3.6715,-3.7042,-3.7271,-3.7219,-3.7702,-3.841,-3.9945,-4.0894,-4.0894,-4.0825,-4.0791,-4.0894,-4.0894,-4.0894,-4.0894,-4.0894,-4.0894,-4.0894,-4.0912,-4.0929,-4.0963,-4.0963,-4.1032,-4.0981,-4.0894,-4.0894,-4.0894,-4.0894,-4.0894,-4.0894,-4.0894,-4.0894,-4.0894,-4.0981,-4.1015,-4.0894,-4.0894,-4.0894,-4.0894,-4.0963,-4.0946,-4.0894,-4.0894,-4.0894,-4.0929,-4.0946,-4.0929,-4.0894,-4.0894,-4.0894,-4.0894,-4.0894,-4.0894,-4.8925,-4.889,-4.8907,-4.8925,-4.896,-4.889,-4.889,-4.889,-4.889,-4.889,-4.889,-4.889,-4.889,-4.8407,-4.7181,-4.6438,-4.5974,-4.4748,-4.4005,-4.4005,-4.4005,-4.3958,-4.3929,-4.3913,-4.3913,-4.3897,-4.3693,-4.3341,-4.2841,-4.3193,-4.3008,-4.2615,-4.2179,-4.1724,-4.1056,-4.0286,-3.99,-3.9882,-3.9882,-3.9268,-3.8851,-3.9058,-3.8438,-3.7739,-3.7183,-3.6963,-3.663,-3.6335,-3.6301,-3.6284,-3.6284,-3.6284,-3.6284,-3.6284,-3.6284,-3.6284,-3.6387,-3.6422,-3.6387,-3.6353,-3.6766,-3.7219,-3.7202,-3.7564,-3.7927,-3.822,-3.8651,-3.9307,-4.0325,-4.0843,-4.0894,-4.0894,-4.0894,-4.1084,-4.1119,-4.1188,-4.124,-4.1602,-4.174,-4.1723,-4.1257,-4.0963,-4.1015,-4.105,-4.1136,-4.1101,-4.0946,-4.0946,-4.1067,-4.1326,-4.1498,-4.1291,-4.1326,-4.1343,-4.1378,-4.1205,-4.1119,-4.0998,-4.1136,-4.1412,-4.136,-4.1343,-4.1257,-4.105,-4.1412,-4.1878,-4.1464,-4.1015,-4.1015,-4.1032,-4.0929,-4.0894,-4.0894,-4.0894,-4.0894,-4.889,-4.889,-4.889,-4.889,-4.889,-4.889,-4.889,-4.889,-4.889,-4.889,-4.889,-4.889,-4.889,-4.8389,-4.7386,-4.6531,-4.6178,-4.4822,-4.4005,-4.3989,-4.3989,-4.3976,-4.3913,-4.3865,-4.3883,-4.3835,-4.38,-4.3744,-4.3467,-4.3726,-4.3623,-4.3247,-4.2958,-4.2338,-4.1405,-4.0747,-4.0691,-4.0689,-4.0673,-4.048,-4.0108,-3.9999,-3.9607,-3.872,-3.7985,-3.7414,-3.693,-3.6542,-3.6301,-3.6284,-3.6284,-3.6284,-3.6284,-3.6284,-3.6318,-3.6525,-3.6784,-3.7525,-3.7698,-3.7818,-3.7668,-3.7685,-3.7685,-3.8134,-3.8927,-3.8686,-3.929,-4.0049,-4.0584,-4.0894,-4.0894,-4.0912,-4.1032,-4.1636,-4.1785,-4.1947,-4.2137,-4.2758,-4.3103,-4.2913,-4.2568,-4.2447,-4.2413,-4.212,-4.205,-4.1981,-4.193,-4.1723,-4.1757,-4.2292,-4.2603,-4.2154,-4.1981,-4.1964,-4.1947,-4.2171,-4.2154,-4.2102,-4.2292,-4.2568,-4.2396,-4.1964,-4.1912,-4.1878,-4.2413,-4.2879,-4.2371,-4.1888,-4.136,-4.117,-4.1226,-4.1043,-4.0894,-4.0894,-4.0894,-4.889,-4.889,-4.889,-4.889,-4.889,-4.889,-4.889,-4.889,-4.889,-4.889,-4.889,-4.889,-4.889,-4.85,-4.7627,-4.6591,-4.6331,-4.514,-4.4056,-4.4035,-4.3942,-4.3897,-4.3832,-4.3818,-4.3751,-4.3736,-4.3736,-4.3682,-4.3646,-4.3701,-4.3614,-4.351,-4.3495,-4.2945,-4.2158,-4.1791,-4.1515,-4.1515,-4.148,-4.1196,-4.0828,-4.0528,-4.0123,-3.9144,-3.8304,-3.76,-3.7076,-3.6646,-3.6284,-3.6301,-3.6284,-3.6284,-3.6301,-3.6301,-3.6439,-3.687,-3.7542,-3.8237,-3.8422,-3.8474,-3.8318,-3.8422,-3.8249,-3.8853,-3.9784,-3.9733,-4.0014,-4.0549,-4.086,-4.0929,-4.0946,-4.0963,-4.1481,-4.2061,-4.2275,-4.2396,-4.3009,-4.3655,-4.3776,-4.3638,-4.3483,-4.3552,-4.3603,-4.3431,-4.3138,-4.3051,-4.2965,-4.2741,-4.2534,-4.3,-4.3414,-4.3034,-4.2706,-4.2672,-4.3034,-4.3578,-4.35,-4.3241,-4.3293,-4.3414,-4.3086,-4.262,-4.2672,-4.2861,-4.3492,-4.3837,-4.3388,-4.2888,-4.2236,-4.1877,-4.181,-4.1515,-4.1026,-4.0974,-4.1071,-4.889,-4.889,-4.889,-4.889,-4.889,-4.889,-4.889,-4.889,-4.889,-4.889,-4.889,-4.889,-4.889,-4.8742,-4.7999,-4.7131,-4.6266,-4.5498,-4.4654,-4.4052,-4.3883,-4.3767,-4.3684,-4.3651,-4.3651,-4.3615,-4.3599,-4.3617,-4.3599,-4.3617,-4.3565,-4.3513,-4.3496,-4.3276,-4.2947,-4.2635,-4.2341,-4.2323,-4.2288,-4.1878,-4.1378,-4.1081,-4.0406,-3.9432,-3.845,-3.7711,-3.7129,-3.6646,-3.6422,-3.6335,-3.6284,-3.6318,-3.6335,-3.6318,-3.6801,-3.7616,-3.8444,-3.8634,-3.8962,-3.9026,-3.9198,-3.9474,-3.9635,-4.0204,-4.048,-4.0549,-4.0653,-4.0739,-4.0894,-4.0963,-4.1015,-4.1498,-4.1999,-4.2309,-4.2534,-4.3034,-4.3751,-4.4096,-4.4096,-4.3975,-4.3768,-4.3793,-4.3889,-4.3845,-4.4018,-4.3992,-4.3906,-4.3854,-4.3664,-4.3544,-4.388,-4.3802,-4.3552,-4.3431,-4.388,-4.4458,-4.4458,-4.4078,-4.3845,-4.3845,-4.3517,-4.3483,-4.3655,-4.3992,-4.4699,-4.4708,-4.3906,-4.3391,-4.2971,-4.268,-4.2346,-4.2096,-4.1638,-4.1429,-4.1405,-4.889,-4.889,-4.889,-4.889,-4.889,-4.889,-4.889,-4.889,-4.889,-4.889,-4.889,-4.889,-4.889,-4.8816,-4.8004,-4.7173,-4.6305,-4.5458,-4.4611,-4.4098,-4.3802,-4.3701,-4.3632,-4.3582,-4.3583,-4.3531,-4.3531,-4.3531,-4.3531,-4.3531,-4.3513,-4.3496,-4.3479,-4.3479,-4.3406,-4.324,-4.313,-4.3057,-4.302,-4.2539,-4.2067,-4.1827,-4.1047,-4.0192,-3.9215,-3.8518,-3.7892,-3.734,-3.7008,-3.649,-3.637,-3.6473,-3.715,-3.6766,-3.6991,-3.9583,-3.9784,-3.9595,-4.0101,-4.0221,-4.0273,-4.0411,-4.0532,-4.0601,-4.0843,-4.0929,-4.0946,-4.1015,-4.1205,-4.1395,-4.1688,-4.212,-4.2706,-4.312,-4.3379,-4.3837,-4.4492,-4.4699,-4.4699,-4.4647,-4.4423,-4.4423,-4.4492,-4.4596,-4.4768,-4.482,-4.482,-4.4751,-4.4665,-4.4492,-4.4406,-4.4371,-4.4389,-4.4285,-4.4561,-4.5087,-4.5035,-4.4897,-4.463,-4.4475,-4.4561,-4.4596,-4.4716,-4.488,-4.5103,-4.4741,-4.4105,-4.3735,-4.3614,-4.3057,-4.2689,-4.2501,-4.232,-4.2114,-4.1873,-4.889,-4.889,-4.889,-4.889,-4.889,-4.889,-4.889,-4.889,-4.889,-4.889,-4.889,-4.889,-4.889,-4.8817,-4.8284,-4.7454,-4.6237,-4.5796,-4.4934,-4.3852,-4.3719,-4.3634,-4.3582,-4.3548,-4.3531,-4.3496,-4.3479,-4.3496,-4.3479,-4.3479,-4.3479,-4.3479,-4.3479,-4.3479,-4.3461,-4.3424,-4.3442,-4.3424,-4.3373,-4.3142,-4.275,-4.2302,-4.1743,-4.0896,-4.0003,-3.9416,-3.8738,-3.8099,-3.7685,-3.7267,-3.7215,-3.7387,-3.8013,-3.7806,-3.8284,-4.0446,-4.0498,-4.0394,-4.067,-4.0774,-4.086,-4.0981,-4.1153,-4.1343,-4.1188,-4.1153,-4.1257,-4.136,-4.1705,-4.2033,-4.2396,-4.2785,-4.3483,-4.4138,-4.4423,-4.4751,-4.5035,-4.5311,-4.5363,-4.5345,-4.5311,-4.5294,-4.5345,-4.5414,-4.5397,-4.5242,-4.5173,-4.5156,-4.5121,-4.507,-4.5018,-4.5001,-4.5104,-4.5156,-4.5414,-4.5414,-4.5311,-4.5225,-4.5173,-4.5121,-4.5414,-4.5319,-4.5069,-4.5067,-4.5159,-4.4772,-4.4386,-4.4411,-4.4281,-4.3715,-4.3423,-4.3543,-4.3339,-4.286,-4.2612,-4.8834,-4.889,-4.889,-4.889,-4.889,-4.8816,-4.8797,-4.8854,-4.8761,-4.8817,-4.8854,-4.8891,-4.8855,-4.8784,-4.8565,-4.7606,-4.6593,-4.595,-4.5014,-4.357,-4.3583,-4.3565,-4.3531,-4.3479,-4.3496,-4.3496,-4.3479,-4.3479,-4.3479,-4.3479,-4.3479,-4.3479,-4.3479,-4.3479,-4.3479,-4.3479,-4.3479,-4.3479,-4.3392,-4.316,-4.2518,-4.2006,-4.1481,-4.0255,-3.9784,-3.9543,-3.8979,-3.8703,-3.8663,-3.8594,-3.8525,-3.8496,-3.8789,-3.929,-4.0152,-4.0515,-4.0739,-4.0808,-4.086,-4.0894,-4.0894,-4.1136,-4.1526,-4.1757,-4.1636,-4.1188,-4.1188,-4.2189,-4.2689,-4.3034,-4.3396,-4.3569,-4.4052,-4.4544,-4.4906,-4.507,-4.5242,-4.5414,-4.5414,-4.5414,-4.5414,-4.5414,-4.5414,-4.5414,-4.5414,-4.5414,-4.5414,-4.5414,-4.5414,-4.5414,-4.5414,-4.5414,-4.5414,-4.5414,-4.5414,-4.5414,-4.5414,-4.5397,-4.5371,-4.5371,-4.5344,-4.5291,-4.5264,-4.5157,-4.5022,-4.5022,-4.4807,-4.4756,-4.4695,-4.4501,-4.4371,-4.4698,-4.4412,-4.3697,-4.3456,-4.8351,-4.889,-4.889,-4.889,-4.8816,-4.824,-4.8317,-4.873,-4.8155,-4.8248,-4.8748,-4.8804,-4.875,-4.8696,-4.855,-4.761,-4.6431,-4.5825,-4.4927,-4.3955,-4.3513,-4.3513,-4.3515,-4.3479,-4.3479,-4.3479,-4.3479,-4.3479,-4.3479,-4.3479,-4.3479,-4.3479,-4.3479,-4.3479,-4.3479,-4.3479,-4.3479,-4.3479,-4.3375,-4.3014,-4.2358,-4.2092,-4.164,-4.085,-4.0498,-4.0152,-3.9704,-3.9439,-3.9077,-3.8715,-3.8612,-3.8784,-3.9203,-4.0101,-4.0636,-4.0877,-4.0894,-4.0894,-4.0894,-4.0912,-4.0946,-4.117,-4.1526,-4.1819,-4.175,-4.1216,-4.1543,-4.2819,-4.3682,-4.4009,-4.4276,-4.4397,-4.4535,-4.4923,-4.5242,-4.5328,-4.5414,-4.5414,-4.5414,-4.5414,-4.5414,-4.5414,-4.5414,-4.5414,-4.5414,-4.5414,-4.5414,-4.5414,-4.5414,-4.5414,-4.5414,-4.5414,-4.5414,-4.5414,-4.5414,-4.5371,-4.5344,-4.5318,-4.5274,-4.5274,-4.5247,-4.5167,-4.5076,-4.493,-4.482,-4.4858,-4.4886,-4.4824,-4.4769,-4.4737,-4.4776,-4.4858,-4.4803,-4.4269,-4.4221,-4.7423,-4.7831,-4.7831,-4.8054,-4.8167,-4.7463,-4.7523,-4.8009,-4.7363,-4.742,-4.8143,-4.8493,-4.866,-4.8458,-4.8182,-4.7371,-4.6102,-4.5552,-4.4616,-4.3808,-4.3479,-4.3496,-4.3479,-4.3479,-4.3479,-4.3479,-4.3479,-4.3479,-4.3479,-4.3479,-4.3479,-4.3479,-4.3479,-4.3479,-4.3479,-4.3479,-4.3479,-4.3479,-4.3357,-4.2864,-4.2257,-4.2113,-4.1753,-4.118,-4.0808,-4.0549,-4.0498,-4.0233,-4.0032,-3.9738,-3.9738,-3.9807,-4.0135,-4.0549,-4.0825,-4.0894,-4.0894,-4.0894,-4.0894,-4.0963,-4.1084,-4.1429,-4.2085,-4.2603,-4.3327,-4.2948,-4.2957,-4.4078,-4.4544,-4.4889,-4.4872,-4.4958,-4.4992,-4.5242,-4.5328,-4.538,-4.5414,-4.5414,-4.5414,-4.5414,-4.5414,-4.5414,-4.5414,-4.5414,-4.5414,-4.5414,-4.5414,-4.5414,-4.5414,-4.5414,-4.5414,-4.5371,-4.5371,-4.5397,-4.5397,-4.5327,-4.5274,-4.523,-4.515,-4.5069,-4.5032,-4.4951,-4.4886,-4.4803,-4.4765,-4.4748,-4.4776,-4.4776,-4.4737,-4.4654,-4.4748,-4.4869,-4.4776,-4.4692,-4.4608,-4.642,-4.6494,-4.6531,-4.6903,-4.7315,-4.6542,-4.6621,-4.7142,-4.6444,-4.643,-4.7132,-4.7849,-4.8237,-4.8108,-4.7518,-4.6708,-4.5918,-4.5222,-4.4287,-4.3699,-4.3497,-4.3479,-4.3479,-4.3479,-4.3479,-4.3479,-4.3479,-4.3479,-4.3479,-4.3479,-4.3479,-4.3479,-4.3479,-4.3479,-4.3479,-4.3479,-4.3479,-4.3392,-4.3178,-4.2711,-4.2396,-4.2133,-4.1596,-4.1157,-4.0894,-4.0894,-4.0894,-4.0894,-4.0877,-4.0791,-4.0653,-4.0653,-4.067,-4.0808,-4.0843,-4.0894,-4.0894,-4.0894,-4.0929,-4.1101,-4.1447,-4.1964,-4.281,-4.3569,-4.4259,-4.4509,-4.4527,-4.4768,-4.519,-4.5345,-4.5328,-4.5328,-4.5363,-4.5397,-4.5397,-4.5414,-4.5414,-4.5414,-4.5414,-4.5414,-4.5414,-4.5414,-4.5414,-4.5414,-4.5414,-4.5414,-4.5414,-4.5414,-4.5414,-4.5371,-4.5371,-4.5344,-4.5318,-4.5344,-4.5353,-4.5274,-4.515,-4.5069,-4.4988,-4.4879,-4.4841,-4.4858,-4.4831,-4.4759,-4.472,-4.4692,-4.472,-4.4737,-4.4682,-4.4598,-4.4682,-4.4748,-4.4765,-4.4709,-4.4737,-4.5918,-4.6513,-4.6513,-4.6554,-4.645,-4.5675,-4.5739,-4.6172,-4.5473,-4.5495,-4.614,-4.6324,-4.6709,-4.7353,-4.6526,-4.592,-4.5625,-4.4966,-4.4268,-4.3606,-4.3663,-4.3571,-4.3479,-4.3479,-4.3479,-4.3479,-4.3479,-4.3479,-4.3479,-4.3479,-4.3479,-4.3479,-4.3479,-4.3479,-4.3479,-4.3479,-4.3479,-4.3357,-4.3032,-4.2614,-4.2213,-4.1878,-4.1396,-4.1088,-4.0894,-4.0894,-4.0894,-4.0894,-4.0894,-4.0894,-4.0894,-4.0894,-4.0894,-4.0894,-4.0894,-4.0963,-4.0963,-4.1067,-4.1153,-4.1567,-4.2033,-4.2378,-4.3189,-4.4018,-4.4561,-4.4958,-4.4983,-4.5087,-4.5397,-4.5397,-4.538,-4.538,-4.5397,-4.5397,-4.5414,-4.5414,-4.5414,-4.5414,-4.5414,-4.5414,-4.5414,-4.5414,-4.5414,-4.5414,-4.5414,-4.5414,-4.5414,-4.5414,-4.5414,-4.5371,-4.5344,-4.5318,-4.5264,-4.5318,-4.5353,-4.5167,-4.5015,-4.4906,-4.4841,-4.4814,-4.4786,-4.4776,-4.4748,-4.472,-4.4665,-4.4671,-4.4671,-4.4709,-4.4654,-4.4598,-4.4615,-4.4643,-4.4671,-4.4671,-4.4682]},{"header":{"parameterUnit":"m.s-1","parameterCategory":1,"la1":31.0,"la2":29.5877,"lo1":-88.7671,"lo2":-86.6584,"dy":0.0162,"dx":0.0185,"nx":115,"ny":88,"refTime":"2026-05-20T00:00:00:Z","depth":0,"parameterNumber":3,"parameterNumberName":"V-component_of_WINDS"},"data":[0.0,0.0,0.0,0.0,0.0,0.0,0.0,0.0,0.0,0.0,0.0,0.0,0.0,0.0,0.0,0.0,0.0,0.0,0.0,0.0,0.0,0.0,0.0,0.0,0.0,0.0,0.0,0.0,0.0,0.0,0.0,0.0,0.0,0.0,0.0,0.0,0.0,0.0,0.0,0.0,0.0,0.0,0.0,0.0,0.0,0.0,0.0,0.0,0.0,0.0,0.0,0.0,0.0,0.0,0.0,0.0,0.0,0.0,0.0,0.0,0.0,0.0,0.0,0.0,0.0,0.0,0.0,0.0,0.0,0.0,0.0,0.0,0.0,0.0,0.0,0.0,0.0,0.0,0.0,0.0,0.0,0.0,0.0,0.0,0.0,0.0,0.0,0.0,0.0,0.0,0.0,0.0,0.0,0.0,0.0,0.0,0.0,0.0,0.0,0.0,0.0,0.0,0.0,0.0,0.0,0.0,0.0,0.0,0.0,0.0,0.0,0.0,0.0,0.0,0.0,0.0,0.0,0.0,0.0,0.0,0.0,0.0,0.0,0.0,0.0,0.0,0.0,0.0,0.0,0.0,0.0,0.0,0.0,0.0,0.0,0.0,0.0,0.0,0.0,0.0,0.0,0.0,0.0,0.0,0.0,0.0,0.0,0.0,0.0,0.0,0.0,0.0,0.0,0.0,0.0,0.0,0.0,0.0,0.0,0.0,0.0,0.0,0.0,0.0,0.0,0.0,0.0,0.0,0.0,0.0,0.0,0.0,0.0,0.0,0.0,0.0,0.0,0.0,0.0,0.0,0.0,0.0,0.0,0.0,0.0,0.0,0.0,0.0,0.0,0.0,0.0,0.0,0.0,0.0,0.0,0.0,0.0,0.0,0.0,0.0,0.0,0.0,0.0,0.0,0.0,0.0,0.0,0.0,0.0,0.0,0.0,0.0,0.0,0.0,0.0,0.0,0.0,0.0,0.0,0.0,0.0,0.0,0.0,0.0,0.0,0.0,0.0,0.0,0.0,0.0,0.0,0.0,0.0,0.0,0.0,0.0,0.0,0.0,0.0,0.0,0.0,0.0,0.0,0.0,0.0,0.0,0.0,0.0,0.0,0.0,0.0,0.0,0.0,0.0,0.0,0.0,0.0,0.0,0.0,0.0,0.0,0.0,0.0,0.0,0.0,0.0,0.0,0.0,0.0,0.0,0.0,0.0,0.0,0.0,0.0,0.0,0.0,0.0,0.0,0.0,0.0,0.0,0.0,0.0,0.0,0.0,0.0,0.0,0.0,0.0,0.0,0.0,0.0,0.0,0.0,0.0,0.0,0.0,0.0,0.0,0.0,0.0,0.0,0.0,0.0,0.0,0.0,0.0,0.0,0.0,0.0,0.0,0.0,0.0,0.0,0.0,0.0,0.0,0.0,0.0,0.0,0.0,0.0,0.0,0.0,0.0,0.0,0.0,0.0,0.0,0.0,0.0,0.0,0.0,0.0,0.0,0.0,0.0,0.0,0.0,0.0,0.0,0.0,0.0,0.0,0.0,0.0,0.0,0.0,0.0,0.0,0.0,0.0,0.0,0.0,0.0,0.0,0.0,0.0,0.0,0.0,0.0,0.0,0.0,0.0,0.0,0.0,0.0,0.0,0.0,0.0,0.0,0.0,0.0,0.0,0.0,0.0,0.0,0.0,0.0,0.0,0.0,0.0,0.0,0.0,0.0,0.0,0.0,0.0,0.0,0.0,0.0,0.0,0.0,0.0,0.0,0.0,0.0,0.0,0.0,0.0,0.0,0.0,0.0,0.0,0.0,0.0,0.0,0.0,0.0,0.0,0.0,0.0,0.0,0.0,0.0,0.0,0.0,0.0,0.0,0.0,0.0,0.0,0.0,0.0,0.0,0.0,0.0,0.0,0.0,0.0,0.0,0.0,0.0,0.0,0.0,0.0,0.0,0.0,0.0,0.0,0.0,0.0,0.0,0.0,0.0,0.0,0.0,0.0,0.0,0.0,0.0,0.0,0.0,0.0,0.0,0.0,0.0,0.0,0.0,0.0,0.0,0.0,0.0,0.0,0.0,0.0,0.0,0.0,0.0,0.0,0.0,0.0,0.0,0.0,0.0,0.0,0.0,0.0,0.0,0.0,0.0,0.0,0.0,0.0,0.0,0.0,0.0,0.0,0.0,0.0,0.0,0.0,0.0,0.0,0.0,0.0,0.0,0.0,0.0,0.0,0.0,0.0,0.0,0.0,0.0,0.0,0.0,0.0,0.0,0.0,0.0,0.0,0.0,0.0,0.0,0.0,0.0,0.0,0.0,0.0,0.0,0.0,0.0,0.0,0.0,0.0,0.0,0.0,0.0,0.0,0.0,0.0,0.0,0.0,0.0,0.0,0.0,0.0,0.0,0.0,0.0,0.0,0.0,0.0,0.0,0.0,0.0,0.0,0.0,0.0,0.0,0.0,0.0,0.0,0.0,0.0,0.0,0.0,0.0,0.0,0.0,0.0,0.0,0.0,0.0,0.0,0.0,0.0,0.0,0.0,0.0,0.0,0.0,0.0,0.0,0.0,0.0,0.0,0.0,0.0,0.0,0.0,0.0,0.0,0.0,0.0,0.0,0.0,0.0,0.0,0.0,0.0,0.0,0.0,0.0,0.0,0.0,0.0,0.0,0.0,0.0,0.0,0.0,0.0,0.0,0.0,0.0,0.0,0.0,0.0,0.0,0.0,0.0,0.0,0.0,0.0,0.0,0.0,0.0,0.0,0.0,0.0,0.0,0.0,0.0,0.0,0.0,0.0,0.0,0.0,0.0,0.0,0.0,0.0,0.0,0.0,0.0,0.0,0.0,0.0,0.0,0.0,0.0,0.0,0.0,0.0,0.0,0.0,0.0,0.0,0.0,0.0,0.0,0.0,0.0,0.0,0.0,0.0,0.0,0.0,0.0,0.0,0.0,0.0,0.0,0.0,0.0,0.0,0.0,0.0,0.0,0.0,0.0,0.0,0.0,0.0,0.0,0.0,0.0,0.0,0.0,0.0,0.0,0.0,0.0,0.0,0.0,0.0,0.0,0.0,0.0,0.0,0.0,0.0,0.0,0.0,0.0,0.0,0.0,0.0,0.0,0.0,0.0,0.0,0.0,0.0,0.0,0.0,0.0,0.0,0.0,0.0,0.0,0.0,0.0,0.0,0.0,0.0,0.0,0.0,0.0,0.0,0.0,0.0,0.0,0.0,0.0,0.0,0.0,0.0,0.0,0.0,0.0,0.0,0.0,0.0,0.0,0.0,0.0,0.0,0.0,0.0,0.0,0.0,0.0,0.0,0.0,0.0,0.0,0.0,0.0,0.0,0.0,0.0,0.0,0.0,0.0,0.0,0.0,0.0,0.0,0.0,0.0,0.0,0.0,0.0,0.0,0.0,0.0,0.0,0.0,0.0,0.0,0.0,0.0,0.0,0.0,0.0,0.0,0.0,0.0,0.0,0.0,0.0,0.0,0.0,0.0,0.0,0.0,0.0,0.0,0.0,0.0,0.0,0.0,0.0,0.0,0.0,0.0,0.0,0.0,0.0,0.0,0.0,0.0,0.0,0.0,0.0,0.0,0.0,0.0,0.0,0.0,0.0,0.0,0.0,0.0,0.0,0.0,0.0,0.0,0.0,0.0,0.0,0.0,0.0,0.0,0.0,0.0,0.0,0.0,0.0,0.0,0.0,0.0,0.0,0.0,0.0,0.0,0.0,0.0,0.0,0.0,0.0,0.0,0.0,0.0,0.0,0.0,0.0,0.0,0.0,0.0,0.0,0.0,0.0,0.0,0.0,0.0,0.0,0.0,0.0,0.0,0.0,0.0,0.0,0.0,0.0,0.0,0.0,0.0,0.0,0.0,0.0,0.0,0.0,0.0,0.0,0.0,0.0,0.0,0.0,0.0,0.0,0.0,0.0,0.0,0.0,0.0,0.0,0.0,0.0,0.0,0.0,0.0,0.0,0.0,0.0,0.0,0.0,0.0,0.0,0.0,0.0,0.0,0.0,0.0,0.0,0.0,0.0,0.0,0.0,0.0,0.0,0.0,0.0,0.0,0.0,0.0,0.0,0.0,0.0,0.0,0.0,0.0,0.0,0.0,0.0,0.0,0.0,0.0,0.0,0.0,0.0,0.0,0.0,0.0,0.0,0.0,0.0,0.0,0.0,0.0,0.0,0.0,0.0,0.0,0.0,0.0,0.0,0.0,0.0,0.0,0.0,0.0,0.0,0.0,0.0,0.0,0.0,0.0,0.0,0.0,0.0,0.0,0.6176,0.0,0.0,0.0,0.0,0.0,0.0,0.0,0.0,0.0,0.0,0.0,0.0,0.0,0.0,0.0,0.0,0.0,0.0,0.0,0.0,0.0,0.0,0.0,0.0,0.0,0.0,0.0,0.0,0.0,0.0,0.0,0.0,0.0,0.0,0.0,0.0,0.0,0.0,0.0,0.0,0.0,0.0,0.0,0.0,0.0,0.0,0.0,0.0,0.0,0.0,0.0,0.0,0.0,0.0,0.0,0.0,0.0,0.0,0.0,0.0,0.0,0.0,0.0,0.0,0.0,0.0,0.0,0.0,0.0,0.0,0.0,0.0,0.0,0.0,0.0,0.0,0.0,0.0,0.0,0.0,0.0,0.0,0.0,0.0,0.0,0.0,0.0,0.0,0.0,0.0,0.0,0.0,0.0,0.0,0.0,0.0,0.0,0.0,0.0,0.0,0.0,0.0,0.0,0.0,0.0,0.0,0.0,0.0,0.0,0.0,0.5851,0.626,0.6101,0.6081,0.6244,0.0,0.0,0.0,0.0,0.0,0.0,0.0,0.0,0.0,0.0,0.0,0.0,0.0,0.0,0.0,0.0,0.0,0.0,0.0,0.0,0.0,0.0,0.0,0.0,0.0,0.0,0.0,0.0,0.0,0.0,0.0,0.0,0.0,0.0,0.0,0.0,0.0,0.0,0.0,0.0,0.0,0.0,0.0,0.0,0.0,0.0,0.0,0.0,0.0,0.0,0.0,0.0,0.0,0.0,0.0,0.0,0.0,0.0,0.0,0.0,0.0,0.0,0.0,0.0,0.0,0.0,0.0,0.0,0.0,0.0,0.0,0.0,0.0,0.0,0.0,0.0,0.0,0.0,0.0,0.0,0.0,0.0,0.0,0.0,0.0,0.0,0.0,0.0,0.0,0.0,0.0,0.0,0.0,0.0,0.0,0.0,0.0,0.0,0.0,0.0,0.0,0.0,0.0,0.0,0.0,0.0,0.0,0.0,0.0,0.0,0.0,0.0,0.6063,0.6144,0.6387,0.0,0.0,0.0,0.0,0.0,0.0,0.0,0.0,0.0,0.0,0.0,0.0,0.0,0.0,0.0,0.0,0.0,0.0,0.0,0.0,0.0,0.0,0.0,0.0,0.0,0.0,0.0,0.0,0.0,0.0,0.0,0.0,0.0,0.0,0.0,0.0,0.0,0.0,0.0,0.0,0.0,0.0,0.0,0.0,0.0,0.0,0.0,0.0,0.0,0.0,0.0,0.0,0.0,0.0,0.0,0.0,0.0,0.0,0.0,0.0,0.0,0.0,0.0,0.0,0.0,0.0,0.0,0.0,0.0,0.0,0.0,0.0,0.0,0.0,0.0,0.0,0.0,0.0,0.0,0.0,0.0,0.0,0.0,0.0,0.0,0.0,0.0,0.0,0.0,0.0,0.0,0.0,0.0,0.0,0.0,0.0,0.0,0.0,0.0,0.0,0.0,0.0,0.0,0.0,0.0,0.0,0.0,0.0,0.0,0.0,0.5468,0.6161,0.5958,0.0,0.6629,0.0,0.0,0.0,0.0,0.0,0.0,0.0,0.0,0.0,0.0,0.0,0.0,0.0,0.0,0.0,0.0,0.0,0.0,0.0,0.0,0.0,0.0,0.0,0.0,0.0,0.0,0.0,0.0,0.0,0.0,0.0,0.0,0.0,0.0,0.0,0.0,0.0,0.0,0.0,0.0,0.0,0.0,0.0,0.0,0.0,0.0,0.0,0.0,0.0,0.0,0.0,0.0,0.0,0.0,0.0,0.0,0.0,0.0,0.0,0.0,0.0,0.0,0.0,0.0,0.0,0.0,0.0,0.0,0.0,0.0,0.0,0.0,0.0,0.0,0.0,0.0,0.0,0.0,0.0,0.0,0.0,0.0,0.0,0.0,0.0,0.0,0.0,0.0,0.0,0.0,0.0,0.0,0.0,0.0,0.0,0.0,0.0,0.0,0.0,0.0,0.0,0.0,0.0,0.0,0.0,0.0,0.0,0.0,0.0,0.0,0.5322,0.5668,0.5629,0.5923,0.0,0.0,0.0,0.0,0.0,0.0,0.0,0.0,0.0,0.0,0.0,0.0,0.0,0.0,0.0,0.0,0.0,0.0,0.0,0.0,0.0,0.0,0.0,0.0,0.0,0.0,0.0,0.0,0.0,0.0,0.0,0.0,0.0,0.0,0.0,0.0,0.0,0.0,0.0,0.0,0.0,0.0,0.0,0.0,0.0,0.0,0.0,0.0,0.0,0.0,0.0,0.0,0.0,0.0,0.0,0.0,0.0,0.0,0.0,0.0,0.0,0.0,0.0,0.0,0.0,0.0,0.0,0.0,0.0,0.0,0.0,0.0,0.0,0.0,0.0,0.0,0.0,0.0,0.0,0.0,0.0,0.0,0.0,0.0,0.0,0.0,0.0,0.0,0.0,0.0,0.0,0.0,0.0,0.0,0.0,0.0,0.0,0.0,0.0,0.0,0.0,0.0,0.0,0.0,0.0,0.0,0.0,0.0,0.0,0.0,0.5292,0.0,0.5492,0.5584,0.5844,0.6356,0.0,0.0,0.0,0.0,0.0,0.0,0.0,0.0,0.0,0.0,0.0,0.0,0.0,0.0,0.0,0.0,0.0,0.0,0.0,0.0,0.0,0.0,0.0,0.0,0.0,0.0,0.0,0.0,0.0,0.0,0.0,0.0,0.0,0.0,0.0,0.0,0.0,0.0,0.0,0.0,0.0,0.0,0.0,0.0,0.0,0.0,0.0,0.0,0.0,0.0,0.0,0.0,0.0,0.0,0.0,0.0,0.0,0.0,0.0,0.0,0.0,0.0,0.0,0.0,0.0,0.0,0.0,0.0,0.0,0.0,0.0,0.0,0.0,0.0,0.0,0.0,0.0,0.0,0.0,0.0,0.0,0.0,0.0,0.0,0.0,0.0,0.0,0.0,0.0,0.0,0.0,0.0,0.0,0.0,0.0,0.0,0.0,0.0,0.0,0.0,0.0,0.0,0.0,0.0,0.0,0.0,0.0,0.0,0.0,0.5827,0.5737,0.6035,0.5946,0.5935,0.0,0.0,0.0,0.0,0.0,0.0,0.0,0.0,0.0,0.0,0.0,0.0,0.0,0.0,0.0,0.0,0.0,0.0,0.0,0.0,0.0,0.0,0.0,0.0,0.0,0.0,0.0,0.0,0.0,0.0,0.0,0.0,0.0,0.0,0.0,0.0,0.0,0.0,0.0,0.0,0.0,0.0,0.0,0.0,0.0,0.0,0.0,0.0,0.0,0.0,0.0,0.0,0.0,0.0,0.0,0.0,0.0,0.0,0.0,0.0,0.0,0.0,0.0,0.0,0.0,0.0,0.0,0.0,0.0,0.0,0.0,0.0,0.0,0.0,0.0,0.0,0.0,0.0,0.0,0.0,0.0,0.0,0.0,0.0,0.0,0.0,0.0,0.0,0.0,0.0,0.0,0.0,0.0,0.0,0.0,0.0,0.0,0.0,0.0,0.0,0.0,0.0,0.0,0.0,0.0,0.0,0.0,0.0,0.0,0.5311,0.5359,0.5597,0.606,0.5588,0.5528,0.0,0.0,0.0,0.0,0.0,0.0,0.0,0.0,0.0,0.0,0.0,0.0,0.0,0.0,0.0,0.0,0.0,0.0,0.0,0.0,0.0,0.0,0.0,0.0,0.0,0.0,0.0,0.0,0.0,0.0,0.0,0.0,0.0,0.0,0.0,0.0,0.0,0.0,0.0,0.0,0.0,0.0,0.0,0.0,0.0,0.0,0.0,0.0,0.0,0.0,0.0,0.0,0.0,0.0,0.0,0.0,0.0,0.0,0.0,0.0,0.0,0.0,0.0,0.0,0.0,0.0,0.0,0.0,0.0,0.0,0.0,0.0,0.0,0.0,0.0,0.0,0.0,0.0,0.0,0.0,0.0,0.0,0.0,0.0,0.0,0.0,0.0,0.0,0.0,0.0,0.0,0.0,0.0,0.0,0.0,0.0,0.0,0.0,0.0,0.0,0.0,0.0,0.0,0.0,0.0,0.0,0.0,0.0,0.0,0.5165,0.0,0.5768,0.0,0.5521,0.529,0.0,0.0,0.0,0.0,0.0,0.0,0.0,0.0,0.0,0.0,0.0,0.0,0.0,0.0,0.0,0.0,0.0,0.0,0.0,0.0,0.0,0.0,0.0,0.0,0.0,0.0,0.0,0.0,0.0,0.0,0.0,0.0,0.0,0.0,0.0,0.0,0.0,0.0,0.0,0.0,0.0,0.0,0.0,0.0,0.0,0.0,0.0,0.0,0.0,0.0,0.0,0.0,0.0,0.0,0.0,0.0,0.0,0.0,0.0,0.0,0.0,0.0,0.0,0.0,0.0,0.0,0.0,0.0,0.0,0.0,0.0,0.0,0.0,0.0,0.0,0.0,0.0,0.0,0.0,0.0,0.0,0.0,0.0,0.0,0.0,0.0,0.0,0.0,0.0,0.0,0.0,0.0,0.0,0.0,0.0,0.0,0.0,0.0,0.0,0.0,0.0,0.0,0.0,0.0,0.0,0.0,0.0,0.0,0.4911,0.5938,0.6222,0.6261,0.6115,0.5743,0.5272,0.0,0.0,0.0,0.0,0.0,0.0,0.0,0.0,0.0,0.0,0.0,0.0,0.0,0.0,0.0,0.0,0.0,0.0,0.0,0.0,0.0,0.0,0.0,0.0,0.0,0.0,0.0,0.0,0.0,0.0,0.0,0.0,0.0,0.0,0.0,0.0,0.0,0.0,0.0,0.0,0.0,0.0,0.0,0.0,0.0,0.0,0.0,0.0,0.0,0.0,0.0,0.0,0.0,0.0,0.0,0.0,0.0,0.0,0.0,0.0,0.0,0.0,0.0,0.0,0.0,0.0,0.0,0.0,0.0,0.0,0.0,0.0,0.0,0.0,0.0,0.0,0.0,0.0,0.0,0.0,0.0,0.0,0.0,0.0,0.0,0.0,0.0,0.0,0.0,0.0,0.0,0.0,0.0,0.0,0.0,0.0,0.0,0.0,0.0,0.0,0.0,0.0,0.0,0.0,0.0,0.0,0.0,0.0,0.0,0.545,0.5888,0.6214,0.6344,0.5602,0.5303,0.0,0.0,0.0,0.0,0.0,0.0,0.0,0.0,0.0,0.0,0.0,0.0,0.0,0.0,0.0,0.0,0.0,0.0,0.0,0.0,0.0,0.0,0.0,0.0,0.0,0.0,0.0,0.0,0.0,0.0,0.0,0.0,0.0,0.0,0.0,0.0,0.0,0.0,0.0,0.0,0.0,0.0,0.0,0.0,0.0,0.0,0.0,0.0,0.0,0.0,0.0,0.0,0.0,0.0,0.0,0.0,0.0,0.0,0.0,0.0,0.0,0.0,0.0,0.0,0.0,0.0,0.0,0.0,0.0,0.0,0.0,0.0,0.0,0.0,0.0,0.0,0.0,0.0,0.0,0.0,0.0,0.0,0.0,0.0,0.0,0.0,0.0,0.0,0.0,0.0,0.0,0.0,0.0,0.0,0.0,0.0,0.0,0.0,0.0,0.0,0.0,0.0,0.0,0.0,0.0,0.0,0.0,0.0,0.0,0.5827,0.6222,0.652,0.6653,0.5813,0.5437,0.5585,0.0,0.0,0.0,0.0,0.0,0.0,0.0,0.0,0.0,0.0,0.0,0.0,0.0,0.0,0.0,0.0,0.0,0.0,0.0,0.0,0.0,0.0,0.0,0.0,0.0,0.0,0.0,0.0,0.0,0.0,0.0,0.0,0.0,0.0,0.0,0.0,0.0,0.0,0.0,0.0,0.0,0.0,0.0,0.0,0.0,0.0,0.0,0.0,0.0,0.0,0.0,0.0,0.0,0.0,0.0,0.0,0.0,0.0,0.0,0.0,0.0,0.0,0.0,0.0,0.0,0.0,0.0,0.0,0.0,0.0,0.0,0.0,0.0,0.0,0.0,0.0,0.0,0.0,0.0,0.0,0.0,0.0,0.0,0.0,0.0,0.0,0.0,0.0,0.0,0.0,0.0,0.0,0.0,0.0,0.0,0.0,0.0,0.0,0.0,0.0,0.0,0.0,0.0,0.0,0.0,0.0,0.0,0.0,0.6872,0.7145,0.7175,0.6941,0.6367,0.5769,0.0,0.0,0.0,0.0,0.0,0.0,0.0,0.0,0.0,0.0,0.0,0.0,0.0,0.0,0.0,0.0,0.0,0.0,0.0,0.0,0.0,0.0,0.0,0.0,0.0,0.0,0.0,0.0,0.0,0.0,0.0,0.0,0.0,0.0,0.0,0.0,0.0,0.0,0.0,0.0,0.0,0.0,0.0,0.0,0.0,0.0,0.0,0.0,0.0,0.0,0.0,0.0,0.0,0.0,0.0,0.0,0.0,0.0,0.0,0.0,0.0,0.0,0.0,0.0,0.0,0.0,0.0,0.0,0.0,0.0,0.0,0.0,0.0,0.0,0.0,0.0,0.0,0.0,0.0,0.0,0.0,0.0,0.0,0.0,0.0,0.0,0.0,0.0,0.0,0.0,0.0,0.0,0.0,0.0,0.0,0.0,0.0,0.0,0.0,0.0,0.0,0.0,0.0,0.0,0.0,0.0,0.0,0.0,0.0,0.7603,0.8088,0.8106,0.7641,0.6992,0.6498,0.0,0.0,0.0,0.0,0.0,0.0,0.0,0.0,0.0,0.0,0.0,0.0,0.0,0.0,0.0,0.0,0.0,0.0,0.0,0.0,0.0,0.0,0.0,0.0,0.0,0.0,0.0,0.0,0.0,0.0,0.0,0.0,0.0,0.0,0.0,0.0,0.0,0.0,0.0,0.0,0.0,0.0,0.0,0.0,0.0,0.0,0.0,0.0,0.0,0.0,0.0,0.0,0.0,0.0,0.0,0.0,0.0,0.0,0.0,0.0,0.0,0.0,0.0,0.0,0.0,0.0,0.0,0.0,0.0,0.0,0.0,0.0,0.0,0.0,0.0,0.0,0.0,0.0,0.0,0.0,0.0,0.0,0.0,0.0,0.0,0.0,0.0,0.0,0.0,0.0,0.0,0.0,0.0,0.0,0.0,0.0,0.0,0.0,0.0,0.0,0.0,0.0,0.0,0.0,0.0,0.0,0.0,0.0,0.6737,0.763,0.8298,0.8418,0.8,0.7486,0.6988,0.0,0.0,0.0,0.0,0.0,0.0,0.0,0.0,0.0,0.0,0.0,0.0,0.0,0.0,0.0,0.0,0.0,0.0,0.0,0.0,0.0,0.0,0.0,0.0,0.0,0.0,0.0,0.0,0.0,0.0,0.0,0.0,0.0,0.0,0.0,0.0,0.0,0.0,0.0,0.0,0.0,0.0,0.0,0.0,0.0,0.0,0.0,0.0,0.0,0.0,0.0,0.0,0.0,0.0,0.0,0.0,0.0,0.0,0.0,0.0,0.0,0.0,0.0,0.0,0.0,0.0,0.0,0.0,0.0,0.0,0.0,0.0,0.0,0.0,0.0,0.0,0.0,0.0,0.0,0.0,0.0,0.0,0.0,0.0,0.0,0.0,0.0,0.0,0.0,0.0,0.0,0.0,0.0,0.0,0.0,0.0,0.0,0.0,0.0,0.0,0.0,0.0,0.0,0.0,0.0,0.0,0.0,0.0,0.6215,0.7255,0.8083,0.8382,0.8093,0.7819,0.7328,0.0,0.0,0.0,0.0,0.0,0.0,0.0,0.0,0.0,0.0,0.0,0.0,0.0,0.0,0.0,0.0,0.0,0.0,0.0,0.0,0.0,0.0,0.0,0.0,0.0,0.0,0.0,0.0,0.0,0.0,0.0,0.0,0.0,0.0,0.0,0.0,0.0,0.0,0.0,0.0,0.0,0.0,0.0,0.0,0.0,0.0,0.0,0.0,0.0,0.0,0.0,0.0,0.0,0.0,0.0,0.0,0.0,0.0,0.0,0.0,0.0,0.0,0.0,0.0,0.0,0.0,0.0,0.0,0.0,0.0,0.0,0.0,0.0,0.0,0.0,0.0,0.0,0.0,0.0,0.0,0.0,0.0,0.0,0.0,0.0,0.0,0.0,0.0,0.0,0.0,0.0,0.0,0.0,0.0,0.0,0.0,0.0,0.0,0.0,0.0,0.0,0.0,0.0,0.0,0.0,0.0,0.0,0.0,0.6593,0.7146,0.8032,0.8377,0.8114,0.8138,0.7804,0.0,0.0,0.0,0.0,0.0,0.0,0.0,0.0,0.0,0.0,0.0,0.0,0.0,0.0,0.0,0.0,0.0,0.0,0.0,0.0,0.0,0.0,0.0,0.0,0.0,0.0,0.0,0.0,0.0,0.0,0.0,0.0,0.0,0.0,0.0,0.0,0.0,0.0,0.0,0.0,0.0,0.0,0.0,0.0,0.0,0.0,0.0,0.0,0.6156,0.0,0.0,0.0,0.0,0.0,0.0,0.0,0.0,0.0,0.0,0.0,0.0,0.0,0.0,0.0,0.0,0.0,0.0,0.0,0.0,0.0,0.0,0.0,0.0,0.0,0.0,0.0,0.0,0.0,0.0,0.0,0.0,0.0,0.0,0.0,0.0,0.0,0.0,0.0,0.0,0.0,0.0,0.0,0.0,0.0,0.0,0.0,0.0,0.0,0.0,0.0,0.0,0.0,0.0,0.0,0.0,0.0,0.0,0.0,0.5912,0.6657,0.7524,0.7962,0.7931,0.8406,0.8253,0.0,0.0,0.0,0.0,0.0,0.0,0.0,0.0,0.0,0.0,0.0,0.0,0.0,0.0,0.0,0.0,0.0,0.0,0.0,0.0,0.0,0.0,0.0,0.0,0.0,0.0,0.0,0.0,0.0,0.0,0.0,0.0,0.0,0.0,0.0,0.0,0.0,0.0,0.0,0.0,0.0,0.0,0.0,0.0,0.0,0.0,0.0,0.0,0.0,0.0,0.0,0.0,0.0,0.0,0.0,0.0,0.0,0.0,0.0,0.0,0.0,0.0,0.0,0.0,0.0,0.0,0.0,0.0,0.0,0.0,0.0,0.0,0.0,0.0,0.0,0.0,0.0,0.0,0.0,0.0,0.0,0.0,0.0,0.0,0.0,0.0,0.0,0.0,0.0,0.0,0.0,0.0,0.0,0.0,0.0,0.0,0.0,0.0,0.0,0.0,0.0,0.0,0.0,0.0,0.0,0.0,0.0,0.4639,0.5085,0.6086,0.6946,0.7513,0.7701,0.86,0.8649,0.7667,0.0,0.0,0.0,0.0,0.0,0.0,0.0,0.0,0.0,0.0,0.0,0.0,0.0,0.0,0.0,0.0,0.0,0.0,0.0,0.0,0.0,0.0,0.0,0.0,0.0,0.0,0.0,0.0,0.0,0.0,0.0,0.0,0.0,0.0,0.0,0.0,0.0,0.0,0.5696,0.6863,0.0,0.0,0.0,0.0,0.0,0.0,0.0,0.0,0.708,0.0,0.0,0.0,0.0,0.0,0.0,0.0,0.0,0.0,0.0,0.0,0.0,0.0,0.0,0.0,0.0,0.0,0.0,0.0,0.0,0.0,0.0,0.0,0.0,0.0,0.0,0.0,0.0,0.0,0.0,0.0,0.0,0.0,0.0,0.0,0.0,0.0,0.0,0.0,0.0,0.0,0.0,0.0,0.0,0.0,0.0,0.0,0.0,0.0,0.0,0.0,0.0,0.0,0.0,0.0,0.0,0.4522,0.4894,0.5292,0.5696,0.6813,0.7513,0.7696,0.8605,0.871,0.7886,0.0,0.0,0.0,0.0,0.0,0.0,0.0,0.0,0.0,0.0,0.0,0.0,0.0,0.0,0.0,0.0,0.0,0.0,0.0,0.0,0.0,0.0,0.0,0.0,0.0,0.0,0.0,0.0,0.0,0.0,0.0,0.0,0.0,0.0,0.0,0.0,0.0,0.0,0.0,0.7418,0.7792,0.0,0.0,0.0,0.0,0.0,0.0,0.0,0.0,0.7098,0.0,0.0,0.0,0.0,0.0,0.0,0.0,0.0,0.0,0.0,0.0,0.0,0.0,0.0,0.0,0.0,0.0,0.0,0.0,0.0,0.0,0.0,0.0,0.0,0.0,0.0,0.0,0.0,0.0,0.0,0.0,0.0,0.0,0.0,0.0,0.0,0.0,0.0,0.0,0.0,0.0,0.0,0.0,0.0,0.0,0.0,0.0,0.0,0.0,0.0,0.0,0.0,0.0,0.0,0.0,0.4235,0.4841,0.535,0.5706,0.6625,0.734,0.7797,0.8249,0.831,0.0,0.0,0.0,0.0,0.0,0.0,0.0,0.0,0.0,0.0,0.0,0.0,0.0,0.0,0.0,0.0,0.0,0.0,0.0,0.0,0.0,0.0,0.0,0.0,0.0,0.0,0.0,0.0,0.0,0.0,0.0,0.0,0.0,0.0,0.0,0.0,0.0,0.0,0.0,0.0,0.8071,0.8472,0.8472,0.0,0.0,0.0,0.0,0.0,0.0,0.7504,0.7551,0.0,0.0,0.0,0.0,0.0,0.0,0.0,0.0,0.0,0.0,0.0,0.0,0.0,0.0,0.0,0.0,0.0,0.0,0.0,0.0,0.0,0.0,0.0,0.0,0.0,0.0,0.0,0.0,0.0,0.0,0.0,0.0,0.0,0.0,0.0,0.0,0.0,0.0,0.0,0.0,0.0,0.0,0.0,0.0,0.0,0.0,0.0,0.0,0.0,0.0,0.0,0.0,0.0,0.0,0.0,0.4001,0.4722,0.5315,0.5815,0.6659,0.7367,0.7884,0.8139,0.8173,0.0,0.0,0.0,0.0,0.0,0.0,0.0,0.0,0.0,0.0,0.0,0.0,0.0,0.0,0.0,0.0,0.0,0.0,0.0,0.0,0.0,0.0,0.0,0.0,0.0,0.0,0.0,0.0,0.0,0.0,0.0,0.0,0.0,0.0,0.0,0.0,0.0,0.0,0.0,0.0,0.0,0.9419,0.9244,0.8949,0.0,0.0,0.0,0.0,0.8317,0.8322,0.0,0.0,0.0,0.0,0.0,0.0,0.0,0.0,0.0,0.0,0.0,0.0,0.0,0.0,0.0,0.0,0.0,0.0,0.0,0.0,0.0,0.0,0.0,0.0,0.0,0.0,0.0,0.0,0.0,0.0,0.0,0.0,0.0,0.0,0.0,0.0,0.0,0.0,0.0,0.0,0.0,0.0,0.0,0.0,0.0,0.0,0.0,0.0,0.0,0.0,0.0,0.0,0.0,0.0,0.0,0.0,0.4008,0.4726,0.5348,0.5844,0.7225,0.7934,0.7924,0.9056,0.9091,0.0,0.0,0.0,0.0,0.0,0.0,0.0,0.0,0.0,0.0,0.0,0.0,0.0,0.0,0.0,0.0,0.0,0.0,0.0,0.0,0.0,0.0,0.0,0.0,0.0,0.0,0.0,0.0,0.0,0.0,0.0,0.0,0.0,0.0,0.0,0.0,0.0,0.0,0.0,0.0,0.0,1.0419,0.973,0.9592,0.9565,0.0,0.0,0.8922,0.8829,0.9347,0.0,0.0,0.0,0.0,0.0,0.0,0.0,0.0,0.0,0.0,0.0,0.0,0.0,0.0,0.0,0.0,0.0,0.0,0.0,0.0,0.0,0.0,0.0,0.0,0.0,0.0,0.0,0.0,0.0,0.0,0.0,0.0,0.0,0.0,0.0,0.0,0.0,0.0,0.0,0.0,0.0,0.0,0.0,0.0,0.0,0.0,0.0,0.0,0.0,0.0,0.0,0.0,0.0,0.0,0.0,0.3846,0.4139,0.4938,0.5569,0.5918,0.7122,0.7806,0.7898,0.8604,0.8663,0.0,0.0,0.0,0.0,0.0,0.0,0.0,0.0,0.0,0.0,0.0,0.0,0.0,0.0,0.0,0.0,0.0,0.0,0.0,0.0,0.0,0.0,0.0,0.0,0.0,0.0,0.0,0.0,0.0,0.0,0.0,0.0,0.0,0.0,0.0,0.0,0.0,0.0,0.0,0.0,0.0,0.0,0.9776,0.9886,0.0,0.0,0.0,0.9822,1.0026,0.0,0.0,0.0,0.0,0.0,0.0,0.0,0.0,0.0,0.0,0.0,0.0,0.0,0.0,0.0,0.0,0.0,0.0,0.0,0.0,0.0,0.0,0.0,0.0,0.0,0.0,0.0,0.0,0.0,0.0,0.0,0.0,0.0,0.0,0.0,0.0,0.0,0.0,0.0,0.0,0.0,0.0,0.0,0.0,0.0,0.0,0.0,0.0,0.0,0.0,0.0,0.0,0.0,0.0,0.0,0.0,0.0,0.4284,0.5186,0.5769,0.6023,0.7159,0.7829,0.7903,0.8428,0.0,0.0,0.0,0.0,0.0,0.0,0.0,0.0,0.0,0.0,0.0,0.0,0.0,0.0,0.0,0.0,0.0,0.0,0.0,0.0,0.0,0.0,0.0,0.0,0.0,0.0,0.0,0.3272,0.0,0.0,0.0,0.0,0.0,0.0,0.0,0.0,0.0,0.0,0.0,0.0,0.0,0.0,1.0594,1.0162,1.0474,1.0787,0.0,0.0,1.0695,1.0989,1.0687,1.0129,0.0,0.0,0.0,0.0,0.0,0.0,0.0,0.0,0.0,0.0,0.0,0.0,0.0,0.0,0.0,0.0,0.0,0.0,0.0,0.0,0.0,0.0,0.0,0.0,0.0,0.0,0.0,0.0,0.0,0.0,0.0,0.0,0.0,0.0,0.0,0.0,0.0,0.0,0.0,0.0,0.0,0.0,0.0,0.0,0.0,0.0,0.0,0.0,0.0,0.0,0.0,0.0,0.0,0.0,0.0,0.4494,0.5332,0.5864,0.6064,0.7727,0.8389,0.7938,0.9128,0.9201,0.0,0.0,0.0,0.0,0.0,0.0,0.0,0.0,0.0,0.0,0.0,0.0,0.0,0.0,0.0,0.0,0.0,0.0,0.0,0.0,0.0,0.0,0.0,0.0,0.0,0.0,0.0,0.0,0.0,0.0,0.0,0.0,0.0,0.0,0.0,0.0,0.0,0.0,0.0,0.0,0.0,1.1788,1.1274,1.1641,1.1981,0.0,0.0,1.1439,1.1443,1.1724,1.1315,0.9419,0.0,0.0,0.0,0.0,0.0,0.0,0.0,0.0,0.0,0.0,0.0,0.0,0.0,0.0,0.0,0.0,0.0,0.0,0.0,0.0,0.0,0.0,0.0,0.0,0.0,0.0,0.0,0.0,0.0,0.0,0.0,0.0,0.0,0.0,0.0,0.0,0.0,0.0,0.0,0.0,0.0,0.0,0.0,0.0,0.0,0.0,0.0,0.0,0.0,0.0,0.0,0.0,0.0,0.4212,0.4631,0.5393,0.5918,0.6235,0.7825,0.8463,0.7903,0.9357,0.945,0.0,0.0,0.0,0.0,0.0,0.0,0.0,0.0,0.0,0.0,0.0,0.0,0.0,0.0,0.0,0.0,0.0,0.0,0.0,0.0,0.0,0.0,0.0,0.0,0.0,0.0,0.0,0.0,0.4859,0.5042,0.5287,0.0,0.0,0.0,0.0,0.0,0.0,0.0,0.0,0.0,0.0,1.2147,1.2266,1.2615,0.0,0.0,1.2606,1.2424,1.1954,1.2009,1.1577,1.0082,0.9492,0.0,0.0,0.0,0.0,0.0,0.0,0.0,0.0,0.0,0.0,0.0,0.0,0.0,0.0,0.0,0.0,0.0,0.0,0.0,0.0,0.0,0.0,0.0,0.0,0.0,0.0,0.0,0.0,0.0,0.0,0.0,0.0,0.0,0.0,0.0,0.0,0.0,0.0,0.0,0.0,0.0,0.0,0.0,0.0,0.0,0.0,0.0,0.0,0.0,0.0,0.0,0.0,0.4263,0.4755,0.5447,0.5989,0.6293,0.7863,0.8426,0.7978,0.9373,0.951,0.0,0.0,0.0,0.0,0.0,0.0,0.0,0.0,0.0,0.0,0.0,0.0,0.0,0.0,0.0,0.0,0.0,0.0,0.0,0.0,0.0,0.0,0.0,0.0,0.0,0.0,0.0,0.0,0.5579,0.5686,0.5975,0.0,0.0,0.0,0.0,0.0,0.0,0.0,0.0,0.0,0.0,1.2608,1.3084,1.3249,1.325,1.3148,1.3038,1.2799,1.2349,1.2183,1.1724,1.0662,0.0,0.0,0.0,0.0,0.0,0.0,0.0,0.0,0.0,0.0,0.0,0.0,0.0,0.0,0.0,0.0,0.0,0.0,0.0,0.0,0.0,0.0,0.0,0.0,0.0,0.0,0.0,0.0,0.0,0.0,0.2713,0.0,0.0,0.0,0.0,0.0,0.0,0.0,0.0,0.0,0.0,0.0,0.0,0.0,0.0,0.0,0.0,0.0,0.0,0.0,0.0,0.0,0.0,0.4287,0.4908,0.5498,0.5986,0.6363,0.7863,0.8463,0.7978,0.9219,0.9408,0.8297,0.0,0.0,0.0,0.0,0.0,0.0,0.0,0.0,0.0,0.0,0.0,0.0,0.0,0.0,0.0,0.0,0.0,0.0,0.0,0.0,0.0,0.0,0.0,0.0,0.0,0.0,0.5993,0.5984,0.5993,0.0,0.0,0.0,0.0,0.0,0.0,0.0,0.0,0.0,0.0,1.2507,1.336,1.3644,1.3479,1.3433,1.3644,1.2836,1.2285,1.2634,1.2367,1.1825,0.0,0.0,0.0,0.0,0.0,0.0,0.0,0.0,0.0,0.0,0.0,0.0,0.0,0.0,0.0,0.0,0.0,0.0,0.0,0.0,0.0,0.0,0.0,0.0,0.0,0.0,0.0,0.3636,0.35,0.0,0.0,0.0,0.0,0.0,0.0,0.0,0.0,0.0,0.0,0.0,0.4467,0.4518,0.0,0.0,0.0,0.0,0.0,0.0,0.0,0.0,0.0,0.0,0.0,0.0,0.4436,0.5019,0.5552,0.6203,0.7088,0.8131,0.8681,0.872,0.965,0.9504,0.8075,0.0,0.0,0.0,0.0,0.0,0.0,0.0,0.0,0.0,0.0,0.0,0.0,0.0,0.0,0.0,0.0,0.0,0.0,0.0,0.0,0.0,0.0,0.0,0.0,0.0,0.6507,0.0,0.0,0.0,0.0,0.0,0.0,0.0,0.0,0.0,0.0,0.0,1.1402,1.2193,1.3121,1.3745,1.3828,1.3983,1.4038,0.0,0.0,0.0,0.0,0.0,0.0,0.0,0.0,0.0,0.0,0.0,0.0,0.0,0.0,1.0482,0.873,0.7814,0.7737,0.9063,0.0,0.0,0.0,0.0,0.0,0.0,0.0,0.0,0.0,0.0,0.0,0.0,0.0,0.0,0.4247,0.0,0.4128,0.0,0.0,0.0,0.0,0.0,0.0,0.0,0.0,0.4799,0.504,0.5009,0.5104,0.5101,0.0,0.4752,0.4277,0.0,0.0,0.0,0.0,0.0,0.0,0.0,0.0,0.4485,0.5121,0.5848,0.6613,0.7412,0.8509,0.9089,0.9106,0.9609,0.9312,0.8075,0.7121,0.6391,0.0,0.0,0.0,0.0,0.0,0.0,0.0,0.0,0.0,0.0,0.0,0.0,0.0,0.0,0.0,0.0,0.0,0.0,0.0,0.0,0.0,0.0,0.0,0.7117,0.0,0.0,0.0,0.0,0.0,0.0,0.0,0.0,0.0,1.2303,1.2165,1.222,1.302,1.3671,1.4102,1.4102,0.0,0.0,0.0,0.0,0.0,0.0,0.0,1.3204,1.2955,1.3341,1.3396,1.2468,1.1476,1.1053,1.1788,0.0,0.0,0.9967,0.9402,0.9488,1.0311,1.036,1.0516,1.1256,1.141,1.1441,0.0,0.0,0.0,0.0,0.0,0.0,0.0,0.0,0.4941,0.4965,0.0,0.4799,0.0,0.0,0.0,0.0,0.0,0.4763,0.0,0.0,0.5684,0.5881,0.5616,0.561,0.5606,0.5596,0.547,0.5138,0.4694,0.4134,0.0,0.0,0.0,0.0,0.0,0.0,0.453,0.5205,0.6333,0.7061,0.7368,0.897,0.9617,0.9165,0.913,0.8872,0.8349,0.7965,0.7293,0.621,0.5755,0.0,0.0,0.0,0.0,0.0,0.0,0.0,0.0,0.0,0.0,0.0,0.0,0.0,0.0,0.0,0.0,0.0,0.0,0.0,0.0,0.757,0.0,0.0,0.0,0.0,0.0,0.0,0.0,0.0,0.0,0.0,1.3241,1.301,1.3029,1.3819,0.0,0.0,0.0,0.0,1.4093,1.4497,1.3892,1.3534,1.3929,1.3607,1.336,1.3387,0.0,0.0,1.3001,1.29,1.2909,1.2781,1.2882,1.29,1.2689,1.1917,1.172,1.2475,1.2365,1.2312,1.2696,1.3275,1.3608,0.6131,0.0,0.0,0.0,0.0,0.5528,0.5755,0.6176,0.5999,0.5878,0.5897,0.5599,0.0,0.0,0.0,0.0,0.0,0.0,0.5443,0.5683,0.6047,0.6187,0.6105,0.6105,0.6013,0.5898,0.5749,0.5555,0.5332,0.519,0.4545,0.3537,0.0,0.0,0.0,0.0,0.5241,0.6234,0.6204,0.7122,0.9093,0.9087,0.9353,0.995,0.9388,0.8945,0.8579,0.8124,0.7621,0.7038,0.6325,0.0,0.0,0.0,0.0,0.0,0.0,0.0,0.0,0.0,0.0,0.0,0.0,0.0,0.0,0.0,0.0,0.0,0.0,0.0,0.7573,0.7473,0.7741,0.0,0.0,0.0,0.0,0.0,0.0,0.0,0.0,0.0,1.4616,1.4168,1.3764,0.0,0.0,1.4937,1.4937,1.5065,1.5212,1.5331,1.5148,0.0,1.5157,1.4607,1.4359,1.4909,1.5203,1.523,1.4882,1.4708,1.4478,1.4066,1.402,1.391,1.3451,1.2606,1.2349,1.3157,1.3598,1.3912,1.4213,1.4418,1.4443,0.7,0.6488,0.6193,0.6152,0.6285,0.6196,0.64,0.6776,0.6603,0.6556,0.659,0.6291,0.6006,0.5739,0.5443,0.0,0.0,0.0,0.5982,0.621,0.6366,0.6437,0.6434,0.6477,0.6386,0.6288,0.6081,0.5939,0.585,0.5732,0.5206,0.4348,0.0,0.0,0.4446,0.4793,0.5445,0.6383,0.671,0.7701,0.9314,0.9311,0.9641,1.0257,0.9624,0.9137,0.8872,0.8514,0.8176,0.7779,0.7082,0.6366,0.0,0.0,0.0,0.0,0.0,0.0,0.0,0.0,0.0,0.0,0.0,0.5969,0.5342,0.0,0.0,0.0,0.7083,0.8115,0.8502,0.8473,0.0,0.0,0.0,0.0,0.0,0.0,0.0,1.1325,1.1798,1.2855,1.4928,1.4955,1.4818,1.4964,1.5184,1.5304,1.5194,0.0,1.5725,1.5835,1.5762,1.5684,1.5551,1.5322,1.5281,1.5771,1.5785,1.5643,1.5551,1.557,1.5505,1.523,1.5139,1.4909,1.4168,1.3708,1.3745,1.4508,1.4946,1.5243,1.543,1.552,1.5568,0.7665,0.7594,0.6892,0.6668,0.677,0.677,0.6861,0.6953,0.6987,0.7011,0.7109,0.6878,0.6749,0.6709,0.6266,0.0,0.6107,0.6403,0.6529,0.6546,0.6675,0.6729,0.6719,0.6715,0.6712,0.6692,0.6467,0.6327,0.63,0.5993,0.574,0.5446,0.5142,0.5026,0.511,0.5137,0.5459,0.6029,0.7593,0.8465,0.8626,0.9725,1.0333,1.0292,0.9763,0.9348,0.9077,0.8984,0.8752,0.8307,0.784,0.7451,0.7085,0.0,0.0,0.0,0.0,0.0,0.0,0.0,0.0,0.0,0.0,0.0,0.0,0.0,0.0,0.0,0.8407,0.0,0.9758,1.0098,0.0,0.0,0.0,1.0622,1.1094,1.2119,1.2661,1.2305,0.0,0.0,1.4698,1.556,1.6074,1.5817,1.5762,1.5652,1.5414,1.5634,1.5872,1.6156,1.5964,1.5716,1.5615,1.5872,1.6138,1.6175,1.5955,1.5762,1.5588,1.5854,1.6138,1.6065,1.6111,1.5826,1.4818,1.5166,1.5817,1.6046,1.6239,1.634,1.6312,1.6541,1.6752,0.8258,0.8135,0.779,0.756,0.7387,0.7387,0.7465,0.759,0.7485,0.7458,0.7478,0.7295,0.7146,0.6987,0.6879,0.69,0.7095,0.7004,0.7044,0.719,0.7071,0.6937,0.6832,0.6875,0.6814,0.6702,0.663,0.6539,0.6463,0.6388,0.6162,0.5881,0.5764,0.561,0.5361,0.5532,0.6384,0.7833,0.7625,0.8166,0.9547,1.0064,1.0333,1.0292,0.9582,0.9071,0.8806,0.8576,0.8398,0.8228,0.7766,0.7643,0.7875,0.6507,0.0,0.0,0.0,0.0,0.0,0.0,0.0,0.0,0.0,0.7464,0.6089,0.0,0.7847,0.0,0.8821,1.0514,1.0606,1.041,0.0,0.0,1.1853,1.2073,1.3075,1.3451,1.3681,1.391,1.4277,1.4943,1.6184,1.656,1.6688,1.6615,1.6358,1.6111,1.5955,1.6321,1.6633,1.6679,1.6633,1.6597,1.6514,1.6624,1.6716,1.6716,1.6652,1.6597,1.6532,1.6615,1.6633,1.6349,1.6276,1.6087,1.578,1.59,1.6175,1.6597,1.6743,1.6771,1.6762,1.6844,1.6908,0.8435,0.8357,0.8269,0.8106,0.7889,0.7753,0.774,0.7801,0.7729,0.7692,0.7689,0.7607,0.7485,0.7301,0.7301,0.7394,0.7465,0.7383,0.7353,0.7363,0.7282,0.7122,0.698,0.698,0.6937,0.6895,0.6831,0.6756,0.6671,0.6536,0.639,0.6227,0.6162,0.601,0.5847,0.6212,0.6963,0.8038,0.83,0.9063,1.0383,1.0349,1.0238,1.0112,0.9582,0.9101,0.8716,0.8543,0.8403,0.8213,0.7854,0.7856,0.8172,0.7334,0.7022,0.0,0.0,0.0,0.0,0.0,0.0,0.0,0.0,0.0,0.0,0.0,0.9495,0.8794,1.0162,1.1237,1.1651,1.184,1.2266,1.3139,1.336,1.3718,1.4359,1.4744,1.4983,1.5038,1.5359,1.5909,1.6789,1.6908,1.6908,1.6908,1.6691,1.6551,1.6505,1.6725,1.6908,1.6908,1.6908,1.6908,1.6908,1.6908,1.6908,1.6908,1.6908,1.6908,1.6908,1.6908,1.6835,1.6624,1.6578,1.656,1.6477,1.6459,1.6578,1.6752,1.6606,1.6523,1.6826,1.6908,1.6908,0.8526,0.8537,0.8499,0.8408,0.8327,0.7991,0.7862,0.7841,0.7838,0.7838,0.7838,0.7821,0.7756,0.7655,0.7658,0.7655,0.7658,0.7634,0.7543,0.7446,0.7426,0.7288,0.7098,0.7095,0.7095,0.7088,0.697,0.6946,0.6879,0.6641,0.6572,0.6664,0.6524,0.649,0.6637,0.7213,0.7655,0.7825,0.9243,1.0355,1.1014,1.0515,1.0136,0.9901,0.9588,0.916,0.8728,0.8644,0.8454,0.8166,0.7998,0.7967,0.8156,0.8258,0.8365,0.0,0.8618,0.0,0.0,0.0,0.0,0.0,0.0,0.0,0.0,1.0254,1.0998,1.2067,1.1966,1.2165,1.2863,1.3617,1.4095,1.413,1.479,1.5258,1.5285,1.5936,1.6257,1.589,1.6477,1.6908,1.6908,1.6908,1.6908,1.6908,1.689,1.6872,1.6899,1.6899,1.6908,1.6908,1.6908,1.6908,1.6908,1.6908,1.6908,1.6908,1.6908,1.6908,1.6908,1.6908,1.6899,1.6899,1.6881,1.689,1.6908,1.689,1.6862,1.6798,1.6349,1.6193,1.6707,1.6762,1.6771,0.874,0.8774,0.8584,0.8465,0.8428,0.8258,0.8113,0.7948,0.7948,0.7948,0.7938,0.7865,0.7862,0.7904,0.7957,0.7957,0.7901,0.7824,0.7692,0.7553,0.7428,0.7288,0.7102,0.7095,0.7095,0.7095,0.7071,0.6997,0.6883,0.6746,0.6916,0.7458,0.7336,0.7595,0.8246,0.0,0.0,0.0,1.0171,1.061,1.0737,1.025,0.9955,0.9889,0.9221,0.0,0.8698,0.8295,0.803,0.7949,0.7921,0.0,0.0,0.0,0.0,0.0,0.0,0.0,0.0,0.0,0.0,0.0,1.1053,1.064,1.0257,1.0588,1.1255,1.2256,1.3861,1.4662,1.4212,1.4579,1.4992,1.5331,1.578,1.6083,1.6077,1.6471,1.6752,1.6697,1.6817,1.6908,1.6908,1.6908,1.6908,1.6908,1.6908,1.6908,1.6908,1.6908,1.6908,1.6908,1.6908,1.6908,1.6908,1.6908,1.6908,1.6908,1.6908,1.6908,1.6908,1.6908,1.6908,1.6908,1.6908,1.6908,1.6908,1.6908,1.6817,1.6471,1.6541,1.6725,1.6862,1.6376,1.6028,0.8686,0.0,0.8659,0.8513,0.0,0.8374,0.8248,0.7988,0.7988,0.7988,0.7985,0.7907,0.7917,0.7988,0.7988,0.7988,0.7988,0.7911,0.7796,0.7699,0.7553,0.7404,0.7251,0.7132,0.7095,0.7139,0.758,0.7541,0.7067,0.7678,0.7918,0.7829,0.7996,0.828,0.8699,0.9501,1.0105,1.0475,1.0757,1.0912,1.0857,1.0364,1.0033,0.9901,0.939,0.0,0.0,0.0,0.0,0.0,0.0,0.0,0.0,0.0,0.0,0.9842,1.0701,1.1206,1.1196,1.1535,1.1963,1.2358,1.2553,1.2349,1.154,1.1853,1.2463,1.3359,1.4851,1.5524,1.5157,1.546,1.578,1.5991,1.6367,1.6606,1.6633,1.678,1.6908,1.6908,1.6908,1.6908,1.6908,1.6908,1.6908,1.6908,1.6908,1.6908,1.6908,1.6908,1.6908,1.6908,1.6908,1.6908,1.6908,1.6908,1.6908,1.6908,1.6908,1.6908,1.6908,1.6908,1.6908,1.6908,1.6908,1.6908,1.6908,1.6908,1.6844,1.6652,1.6551,1.6633,1.6807,1.6422,1.6056,0.857,0.8706,0.8679,0.8547,0.8357,0.8472,0.8353,0.8025,0.0,0.0,0.0,0.7988,0.7988,0.7988,0.7988,0.7988,0.7988,0.7988,0.7907,0.7807,0.7665,0.7519,0.7412,0.721,0.7095,0.7139,0.7885,0.7929,0.739,0.851,0.8814,0.8421,0.8746,0.8965,0.915,0.9803,1.0443,1.1068,1.1063,1.1039,1.1027,1.0491,1.0124,0.9907,0.9606,0.9196,0.8794,0.8875,0.8763,0.8384,0.8318,0.8449,0.8791,1.0019,1.0998,1.1487,1.2647,1.3194,1.2937,1.3277,1.3424,1.324,1.3818,1.3847,1.2955,1.3259,1.3864,1.4726,1.5469,1.5881,1.5817,1.6175,1.6389,1.6422,1.678,1.7009,1.7018,1.7082,1.7147,1.7064,1.7128,1.7101,1.7073,1.7055,1.6972,1.6927,1.6908,1.6954,1.6982,1.6954,1.6908,1.6908,1.6908,1.6908,1.6908,1.6908,1.6908,1.6908,1.6908,1.6908,1.6908,1.6908,1.6908,1.6908,1.6908,1.6908,1.6908,1.6908,1.6881,1.6817,1.6489,1.6349,1.6661,1.6551,1.6285,0.857,0.8699,0.857,0.8567,0.8648,0.8669,0.8513,0.8235,0.8046,0.7988,0.7988,0.7988,0.7988,0.7988,0.7988,0.7988,0.7988,0.7988,0.7911,0.7807,0.7665,0.7519,0.7412,0.7214,0.7095,0.7095,0.7228,0.7621,0.8241,0.8182,0.8737,0.9943,0.9872,1.0062,1.0738,1.0887,1.0993,1.1111,1.0851,1.0737,1.0767,1.0226,0.9943,0.9889,0.942,0.9125,0.9047,0.886,0.8791,0.8891,0.8991,0.9134,0.9387,1.0645,1.142,1.1527,1.2619,1.3415,1.3727,1.4102,1.4607,1.5194,1.5399,1.49,1.3709,1.4029,1.4781,1.578,1.6367,1.6597,1.6288,1.6578,1.6807,1.6853,1.7165,1.7413,1.7422,1.7706,1.7825,1.7614,1.7807,1.7816,1.7578,1.744,1.7229,1.7,1.7027,1.7046,1.7248,1.7119,1.6936,1.6908,1.6908,1.6908,1.6945,1.6908,1.6908,1.6908,1.6908,1.6908,1.6908,1.6908,1.6908,1.6908,1.6908,1.6908,1.6908,1.6908,1.6789,1.6578,1.6578,1.6707,1.6551,1.6361,1.6211,0.857,0.8696,0.8635,0.8601,0.8587,0.8584,0.8465,0.8323,0.8194,0.8116,0.7992,0.7988,0.7988,0.7988,0.7988,0.7988,0.7988,0.7988,0.7951,0.7919,0.7702,0.7563,0.7478,0.7255,0.7095,0.7139,0.8141,0.858,0.8595,0.9516,1.0201,1.0533,1.0522,1.0738,1.1074,1.1117,1.1117,1.1111,1.096,1.093,1.0924,1.0527,1.0262,1.0124,0.9733,0.9462,0.9324,0.9169,0.9143,0.9317,0.9313,0.9548,1.011,1.1406,1.2286,1.2653,1.3887,1.4671,1.4876,1.5038,1.5304,1.5652,1.5689,1.5515,1.5038,1.5093,1.545,1.6156,1.6642,1.6835,1.6652,1.6798,1.6991,1.7211,1.7394,1.7642,1.7972,1.8064,1.8091,1.8109,1.7917,1.7761,1.7715,1.7394,1.7266,1.7284,1.7449,1.7559,1.7541,1.7559,1.7532,1.7496,1.7211,1.7037,1.7156,1.7027,1.6927,1.6908,1.6908,1.6908,1.6908,1.6908,1.6908,1.6908,1.6908,1.6908,1.6908,1.6908,1.6817,1.6709,1.6752,1.6798,1.6661,1.6477,1.6028,0.8601,0.871,0.8713,0.8659,0.8584,0.8584,0.8486,0.8323,0.8371,0.8214,0.8002,0.7988,0.7988,0.7988,0.7988,0.7988,0.7988,0.7988,0.7988,0.7958,0.7736,0.7597,0.7567,0.724,0.7095,0.7272,0.8619,0.8969,0.8761,1.044,1.1163,1.0777,1.0992,1.1117,1.1117,1.1117,1.1117,1.1117,1.1117,1.1117,1.1105,1.0852,1.0622,1.0388,1.013,0.9895,0.9697,0.9626,0.9674,0.9813,0.9741,0.9972,1.0708,1.1879,1.2869,1.3604,1.4987,1.5799,1.5826,1.5826,1.5863,1.5964,1.5964,1.6056,1.6239,1.6092,1.6092,1.6422,1.6734,1.6899,1.689,1.6899,1.7064,1.7431,1.7587,1.7889,1.8421,1.8411,1.8374,1.8485,1.8082,1.7798,1.7651,1.7403,1.7385,1.7743,1.8064,1.8109,1.788,1.8128,1.8366,1.82,1.7706,1.7303,1.7458,1.7156,1.6936,1.6908,1.6908,1.6908,1.6908,1.6908,1.6908,1.6908,1.6908,1.6908,1.6908,1.6908,1.6899,1.6872,1.689,1.6899,1.6872,1.667,1.612,0.8696,0.871,0.872,0.8788,0.8882,0.8889,0.8723,0.8476,0.8462,0.8303,0.8002,0.7988,0.7988,0.7988,0.7988,0.7988,0.7988,0.7988,0.7988,0.7958,0.7736,0.7597,0.7573,0.724,0.7095,0.7139,0.7445,0.8057,0.8615,0.9432,1.0346,1.1226,1.1218,1.1117,1.1117,1.1117,1.1117,1.1117,1.1117,1.1117,1.1093,1.0852,1.0671,1.0647,1.0394,1.0256,1.019,1.0236,1.0287,1.0492,1.0477,1.0666,1.1078,1.1769,1.2603,1.3584,1.5171,1.612,1.6206,1.6233,1.6404,1.6752,1.6752,1.6762,1.6807,1.6789,1.6798,1.6844,1.6872,1.6908,1.6908,1.6917,1.711,1.7504,1.7825,1.8229,1.8576,1.8999,1.9072,1.8724,1.8568,1.8385,1.788,1.7899,1.7981,1.799,1.8374,1.8605,1.8522,1.8806,1.9063,1.9008,1.8504,1.7871,1.7605,1.7165,1.6991,1.6936,1.6908,1.6908,1.6908,1.6908,1.6908,1.6908,1.6908,1.6908,1.6908,1.6908,1.6908,1.6908,1.6908,1.6908,1.6908,1.6853,1.645,0.879,0.8845,0.879,0.8879,0.8878,0.8937,0.8764,0.8542,0.8535,0.8316,0.8008,0.7988,0.7988,0.7988,0.7988,0.7988,0.7988,0.7988,0.7988,0.7961,0.7736,0.7597,0.7567,0.724,0.7095,0.7228,0.8185,0.8921,0.9438,1.0392,1.1118,1.1418,1.1212,1.1117,1.1117,1.1117,1.1117,1.1117,1.1117,1.1117,1.1105,1.1009,1.0876,1.0725,1.0581,1.0478,1.031,1.0333,1.0396,1.0569,1.0575,1.0852,1.1396,1.2171,1.3059,1.4148,1.5703,1.6597,1.6661,1.667,1.6743,1.6899,1.6908,1.6908,1.6908,1.6908,1.6908,1.6908,1.6908,1.6908,1.6917,1.711,1.7413,1.7798,1.8036,1.8237,1.8669,1.8852,1.8871,1.8733,1.8705,1.8595,1.8339,1.855,1.8586,1.8319,1.8594,1.8962,1.8797,1.9045,1.9265,1.9265,1.8999,1.8568,1.7999,1.7605,1.7293,1.7018,1.6908,1.6908,1.6927,1.6908,1.6908,1.6908,1.6908,1.6908,1.6908,1.6908,1.6908,1.6908,1.6908,1.6908,1.6908,1.6908,1.6716,0.8937,0.8937,0.8937,0.8937,0.8937,0.8937,0.8764,0.8555,0.8535,0.8316,0.8002,0.7988,0.7988,0.7988,0.7988,0.7988,0.7988,0.7988,0.7988,0.7961,0.7773,0.7638,0.7577,0.7336,0.7136,0.7363,0.8711,0.9749,1.0273,1.1089,1.1616,1.1558,1.1359,1.1184,1.1123,1.1117,1.1117,1.1117,1.1117,1.1117,1.1117,1.1117,1.1021,1.0815,1.0791,1.0701,1.0527,1.0544,1.0579,1.0715,1.0715,1.0985,1.1533,1.2231,1.3275,1.474,1.6114,1.6908,1.6908,1.6908,1.6908,1.6908,1.6908,1.6908,1.6908,1.6908,1.6908,1.6908,1.6908,1.6908,1.6945,1.7165,1.7541,1.799,1.8045,1.8174,1.8779,1.8806,1.8724,1.8705,1.8705,1.8678,1.865,1.8935,1.9045,1.8669,1.8935,1.9228,1.8981,1.9118,1.9292,1.9292,1.9283,1.9008,1.8412,1.8091,1.7715,1.7394,1.7229,1.711,1.7037,1.7009,1.6908,1.6908,1.6908,1.6908,1.6908,1.6908,1.6908,1.6908,1.6908,1.6908,1.6908,1.6908,1.6908,0.8937,0.8937,0.8937,0.8937,0.8937,0.8937,0.8767,0.8535,0.8535,0.8316,0.8008,0.7988,0.7988,0.7988,0.7988,0.7988,0.7988,0.7988,0.7988,0.7975,0.7868,0.7726,0.7594,0.7434,0.7278,0.7326,0.8321,0.9628,1.1133,1.1074,1.1254,1.1816,1.1585,1.1377,1.1172,1.1123,1.1117,1.1117,1.1117,1.1117,1.1117,1.1117,1.1105,1.1075,1.1087,1.1063,1.1051,1.1063,1.1063,1.1069,1.1082,1.1174,1.1422,1.1822,1.307,1.5152,1.6333,1.6908,1.6908,1.6908,1.6908,1.6908,1.6908,1.6908,1.6908,1.6908,1.6908,1.6908,1.6908,1.6908,1.6917,1.7064,1.7358,1.7917,1.7789,1.8146,1.9081,1.8861,1.8724,1.8705,1.8742,1.877,1.8742,1.9054,1.9237,1.9173,1.9256,1.9265,1.9246,1.9274,1.9292,1.9292,1.9274,1.9155,1.876,1.8476,1.8302,1.8009,1.7651,1.7449,1.733,1.7202,1.7027,1.6908,1.6908,1.6908,1.6908,1.6908,1.6908,1.6908,1.6908,1.6908,1.6908,1.6908,1.6908,0.8937,0.8937,0.8937,0.8937,0.8937,0.8937,0.8764,0.8542,0.8535,0.8316,0.8022,0.7988,0.7988,0.7988,0.7988,0.7988,0.7988,0.7988,0.7988,0.7971,0.7882,0.7736,0.7594,0.7441,0.7649,0.808,0.8973,1.0361,1.198,1.1931,1.1899,1.2032,1.17,1.1435,1.1327,1.1196,1.1117,1.1117,1.1117,1.1117,1.1117,1.1117,1.1117,1.1117,1.1117,1.1117,1.1117,1.1117,1.1117,1.1117,1.1223,1.1335,1.1521,1.2689,1.4279,1.6114,1.67,1.6908,1.6908,1.6908,1.6908,1.6908,1.6908,1.6908,1.6908,1.6908,1.6908,1.6908,1.6908,1.6908,1.7018,1.7358,1.7678,1.7724,1.8054,1.8284,1.8513,1.8632,1.8678,1.866,1.8843,1.9091,1.9091,1.921,1.9292,1.9292,1.9292,1.9292,1.9292,1.9292,1.9292,1.9292,1.9292,1.9256,1.9146,1.8806,1.855,1.8357,1.81,1.7779,1.7578,1.7183,1.6945,1.7,1.6982,1.7055,1.7101,1.7082,1.7055,1.6963,1.6963,1.6982,1.6908,1.6908,1.6908,0.8937,0.8937,0.8937,0.8937,0.8937,0.8937,0.8794,0.856,0.8503,0.834,0.8136,0.8012,0.7988,0.7988,0.7988,0.7988,0.7988,0.7988,0.7988,0.7982,0.7933,0.7784,0.7607,0.7492,0.7835,0.8616,0.9802,1.1182,1.251,1.2524,1.2403,1.2247,1.1826,1.1573,1.1465,1.1212,1.1117,1.1117,1.1117,1.1117,1.1117,1.1117,1.1117,1.1117,1.1117,1.1117,1.1117,1.1117,1.1117,1.1111,1.1298,1.1446,1.1706,1.3549,1.518,1.6263,1.6735,1.6908,1.6908,1.6908,1.6908,1.6908,1.6908,1.6908,1.6908,1.6908,1.6908,1.6908,1.6908,1.6908,1.7027,1.7504,1.7844,1.7734,1.8082,1.8403,1.8495,1.8632,1.8724,1.8834,1.9072,1.9265,1.9292,1.9292,1.9292,1.9292,1.9292,1.9292,1.9292,1.9292,1.9292,1.9292,1.9292,1.9292,1.9237,1.9045,1.8935,1.877,1.8504,1.8164,1.7825,1.7358,1.7082,1.7119,1.7174,1.7257,1.7258,1.7249,1.722,1.7128,1.7119,1.7174,1.7055,1.6908,1.6927,0.8937,0.8937,0.8937,0.8937,0.8937,0.8937,0.8797,0.8686,0.8554,0.8414,0.8265,0.8123,0.8015,0.8002,0.7998,0.7988,0.7988,0.7988,0.7988,0.7985,0.7975,0.7816,0.7607,0.7721,0.8143,0.8859,1.0458,1.1757,1.265,1.2668,1.256,1.2324,1.2071,1.1772,1.1507,1.1266,1.1129,1.1117,1.1117,1.1117,1.1117,1.1117,1.1117,1.1117,1.1117,1.1117,1.1117,1.1117,1.1117,1.1149,1.1335,1.1564,1.2231,1.4135,1.5498,1.5727,1.6412,1.6874,1.6908,1.6908,1.6908,1.6908,1.6908,1.6908,1.6908,1.6908,1.6908,1.6908,1.6908,1.6927,1.7037,1.7339,1.7669,1.7999,1.7899,1.8192,1.8843,1.8935,1.8861,1.9155,1.9283,1.9292,1.9292,1.9292,1.9292,1.9292,1.9292,1.9292,1.9292,1.9292,1.9292,1.9292,1.9292,1.9292,1.9292,1.9283,1.9274,1.921,1.8916,1.8566,1.8348,1.7954,1.7633,1.7605,1.766,1.7697,1.7697,1.7688,1.7678,1.7596,1.7523,1.7358,1.7193,1.7064,1.6991,0.8937,0.8937,0.8937,0.8937,0.8937,0.8937,0.8801,0.8713,0.8655,0.8557,0.8408,0.8265,0.8201,0.817,0.8092,0.7988,0.7988,0.7988,0.7988,0.8038,0.8038,0.7885,0.779,0.829,0.9208,1.043,1.1666,1.24,1.2619,1.2705,1.265,1.2548,1.2312,1.2018,1.176,1.154,1.1323,1.1135,1.1117,1.1117,1.1117,1.1117,1.1117,1.1117,1.1117,1.1117,1.1117,1.1117,1.1192,1.1298,1.1521,1.2077,1.3251,1.4645,1.5745,1.6368,1.6691,1.6908,1.6908,1.6908,1.6908,1.6908,1.6908,1.6908,1.6908,1.6908,1.6908,1.6908,1.6917,1.7092,1.7587,1.7568,1.7605,1.7688,1.8073,1.8412,1.8861,1.9036,1.9155,1.9256,1.9292,1.9292,1.9292,1.9292,1.9292,1.9292,1.9292,1.9292,1.9292,1.9292,1.9292,1.9292,1.9292,1.9292,1.9292,1.9292,1.9292,1.9292,1.9118,1.8953,1.8724,1.8595,1.8284,1.8082,1.8146,1.8174,1.8136,1.8136,1.8137,1.7944,1.777,1.7568,1.7348,1.7266,1.7238,0.8937,0.8937,0.8937,0.8937,0.8937,0.8937,0.8886,0.8791,0.8733,0.8652,0.8543,0.8353,0.8323,0.8238,0.8109,0.7992,0.7988,0.7988,0.8237,0.8531,0.8577,0.8481,0.8473,0.9481,1.0362,1.1305,1.2229,1.2699,1.2705,1.2705,1.2699,1.2656,1.2445,1.2193,1.2035,1.1676,1.1387,1.1274,1.1166,1.1117,1.1117,1.1117,1.1117,1.1117,1.1117,1.1117,1.1117,1.1186,1.126,1.1521,1.2174,1.3157,1.4106,1.533,1.6289,1.6726,1.6908,1.6908,1.6908,1.6908,1.6908,1.6908,1.6908,1.6908,1.6908,1.6908,1.6908,1.6908,1.711,1.7423,1.7935,1.7917,1.7798,1.7944,1.8385,1.876,1.8916,1.9146,1.9274,1.9292,1.9292,1.9292,1.9292,1.9292,1.9292,1.9292,1.9292,1.9292,1.9292,1.9292,1.9292,1.9292,1.9292,1.9292,1.9292,1.9292,1.9292,1.9292,1.9265,1.9146,1.899,1.9036,1.888,1.8623,1.8577,1.8586,1.8595,1.866,1.8612,1.8357,1.8082,1.7972,1.7844,1.7651,1.7587,0.8937,0.8937,0.8937,0.8937,0.8937,0.8937,0.8875,0.8851,0.874,0.8733,0.8665,0.8428,0.8347,0.8255,0.8119,0.7988,0.7988,0.7988,0.8581,0.9266,0.9596,0.964,0.9858,1.0863,1.1425,1.1673,1.2338,1.2656,1.2705,1.2705,1.2705,1.2674,1.2487,1.2324,1.2204,1.1766,1.1519,1.1429,1.1206,1.1117,1.1117,1.1117,1.1117,1.1111,1.1155,1.1149,1.1186,1.1484,1.1589,1.1737,1.3259,1.4199,1.478,1.6044,1.683,1.6908,1.6908,1.6908,1.6908,1.6908,1.6908,1.6908,1.6908,1.6908,1.6908,1.6908,1.6963,1.7055,1.7394,1.7816,1.81,1.8145,1.8292,1.866,1.8779,1.8953,1.9228,1.9292,1.9292,1.9292,1.9292,1.9292,1.9292,1.9292,1.9292,1.9292,1.9292,1.9292,1.9292,1.9292,1.9292,1.9292,1.9301,1.9292,1.9292,1.9292,1.9292,1.9292,1.9292,1.9256,1.9201,1.9256,1.9292,1.9072,1.8926,1.8953,1.8981,1.9008,1.8981,1.8779,1.8595,1.8466,1.8302,1.8064,1.7963,0.8937,0.8937,0.8937,0.8937,0.8937,0.8937,0.8937,0.8878,0.8841,0.8866,0.8811,0.8557,0.8477,0.8397,0.8153,0.7988,0.7988,0.8038,0.8577,0.9608,1.0435,1.1057,1.1377,1.1631,1.2048,1.254,1.2623,1.2705,1.2705,1.2705,1.2705,1.2705,1.2626,1.2493,1.2288,1.1986,1.1721,1.1477,1.1256,1.1117,1.1117,1.1117,1.1117,1.1105,1.1223,1.1298,1.144,1.2254,1.2725,1.2792,1.3839,1.453,1.4708,1.6044,1.6908,1.6908,1.6908,1.6908,1.6908,1.6908,1.6908,1.6908,1.6908,1.6908,1.6908,1.6908,1.7101,1.7385,1.7669,1.8073,1.8715,1.8715,1.8779,1.9063,1.9109,1.9155,1.9256,1.9292,1.9292,1.9292,1.9292,1.9292,1.9292,1.9292,1.9311,1.932,1.9338,1.9301,1.9311,1.9366,1.9402,1.9329,1.9311,1.9301,1.9292,1.9292,1.9292,1.9292,1.9301,1.9311,1.9274,1.9274,1.9292,1.9219,1.9136,1.9127,1.9173,1.921,1.9146,1.9063,1.8898,1.8705,1.855,1.8357,1.8366,0.8937,0.8937,0.8937,0.8937,0.8937,0.8937,0.8937,0.8937,0.8937,0.8937,0.8882,0.8693,0.8543,0.8459,0.8241,0.8099,0.8045,0.8482,0.9316,1.0391,1.1858,1.2651,1.2854,1.2626,1.2684,1.2997,1.2837,1.2717,1.2705,1.2705,1.2705,1.2705,1.2705,1.262,1.2487,1.2216,1.1916,1.1663,1.1387,1.1244,1.1123,1.1117,1.1155,1.1223,1.1335,1.1446,1.1744,1.2652,1.3237,1.3528,1.4394,1.4966,1.478,1.6035,1.6874,1.6908,1.6908,1.6908,1.6908,1.6908,1.6908,1.6908,1.6908,1.7009,1.7119,1.7156,1.7348,1.7623,1.7935,1.8504,1.9045,1.9081,1.9081,1.9228,1.9292,1.9292,1.9292,1.9292,1.9292,1.9292,1.9292,1.9292,1.9292,1.9301,1.9402,1.9522,1.9604,1.9476,1.9356,1.9457,1.9472,1.9467,1.9531,1.9604,1.9705,1.9732,1.9778,1.9742,1.9577,1.954,1.9412,1.9384,1.9292,1.9292,1.9292,1.9292,1.9292,1.9292,1.9256,1.9155,1.9017,1.8953,1.8834,1.8715,1.8724,0.8937,0.8937,0.8937,0.8937,0.8937,0.8937,0.8937,0.8937,0.8937,0.8937,0.8838,0.8757,0.8584,0.8472,0.8279,0.816,0.8038,0.8973,1.0243,1.156,1.3011,1.3981,1.3737,1.3439,1.3246,1.3169,1.2868,1.2723,1.2705,1.2705,1.2705,1.2705,1.2705,1.2705,1.2608,1.2421,1.2192,1.191,1.1597,1.1363,1.1244,1.1245,1.1364,1.1471,1.1583,1.1869,1.2311,1.2981,1.3557,1.3781,1.5081,1.5357,1.5108,1.6298,1.6804,1.6908,1.6908,1.6908,1.6908,1.6908,1.6954,1.6991,1.7009,1.7138,1.7449,1.7568,1.7669,1.7917,1.8338,1.8806,1.9173,1.9274,1.9265,1.9292,1.9292,1.9292,1.9292,1.9292,1.9292,1.9292,1.9292,1.9292,1.9311,1.9375,1.9512,1.9742,1.9811,1.9857,1.9806,1.9879,1.9833,1.9696,1.9815,1.9948,2.0076,2.0237,2.0301,2.031,2.004,1.9884,1.9677,1.9558,1.9375,1.9292,1.9292,1.9292,1.9292,1.9292,1.9311,1.9274,1.9164,1.921,1.9237,1.9109,1.9063,0.8937,0.8937,0.8937,0.8937,0.8937,0.8937,0.8937,0.8937,0.8937,0.8937,0.8882,0.8659,0.853,0.8465,0.8241,0.8015,0.824,0.9316,1.0534,1.2436,1.3607,1.4226,1.4111,1.3749,1.3501,1.3314,1.2922,1.2717,1.2705,1.2705,1.2705,1.2705,1.2705,1.2705,1.2662,1.2475,1.23,1.2115,1.1748,1.1546,1.1518,1.1635,1.1744,1.1808,1.2075,1.2556,1.3177,1.3918,1.4609,1.5223,1.5613,1.5974,1.6263,1.6701,1.6919,1.6917,1.6927,1.6927,1.6917,1.6963,1.7055,1.733,1.7394,1.755,1.7926,1.7944,1.8118,1.8374,1.8641,1.8926,1.9219,1.9292,1.9292,1.9292,1.9292,1.9301,1.9301,1.9311,1.9338,1.9338,1.9329,1.9311,1.9338,1.9641,1.9806,1.9921,2.0095,2.0259,2.0296,2.0338,2.0191,2.0044,2.0209,2.0393,2.0475,2.0622,2.0769,2.0769,2.0515,2.0342,2.0136,1.9806,1.965,1.9457,1.9292,1.932,1.9439,1.9366,1.9393,1.9347,1.9292,1.9292,1.9292,1.9292,1.9292,0.8937,0.8937,0.8937,0.8937,0.8937,0.8937,0.8937,0.8937,0.8937,0.8937,0.8854,0.8699,0.8621,0.8476,0.8316,0.839,0.9092,1.0391,1.1901,1.3318,1.41,1.4298,1.4232,1.3906,1.364,1.3477,1.3115,1.2862,1.2741,1.2705,1.2705,1.2705,1.2705,1.2705,1.2705,1.256,1.2433,1.2342,1.2186,1.2013,1.1942,1.2114,1.2214,1.2209,1.2478,1.2914,1.3463,1.4178,1.4966,1.5657,1.614,1.6482,1.6904,1.7212,1.7284,1.6982,1.711,1.7165,1.7183,1.7202,1.7367,1.7752,1.7789,1.8027,1.8247,1.831,1.854,1.8852,1.9008,1.91,1.9265,1.9292,1.9292,1.9292,1.9301,1.9384,1.9549,1.9604,1.9632,1.965,1.9668,1.9842,1.9989,2.0063,2.0237,2.0448,2.0613,2.0769,2.0726,2.0741,2.0594,2.053,2.0677,2.0796,2.0851,2.0989,2.1156,2.1154,2.0998,2.086,2.0695,2.0319,1.9952,1.9815,1.9714,1.965,1.9714,1.9613,1.9494,1.9375,1.932,1.9301,1.932,1.9375,1.9347,0.8937,0.8937,0.8937,0.8937,0.8937,0.8937,0.8937,0.8937,0.8937,0.8937,0.8982,0.903,0.9126,0.8881,0.9053,0.9439,1.0375,1.1609,1.3071,1.4052,1.4202,1.4298,1.4238,1.4063,1.3833,1.3568,1.3242,1.2976,1.2765,1.2705,1.2705,1.2705,1.2705,1.2705,1.2705,1.2693,1.2638,1.2546,1.2548,1.2541,1.2466,1.2588,1.2672,1.2739,1.2795,1.3338,1.3926,1.4546,1.5176,1.6103,1.6785,1.7003,1.711,1.7513,1.7844,1.7128,1.7449,1.7504,1.7468,1.755,1.777,1.8136,1.8173,1.8403,1.866,1.8742,1.8871,1.9081,1.9246,1.9246,1.9292,1.9421,1.9421,1.9439,1.9457,1.9659,1.9925,2.0021,2.0149,2.0168,2.0095,2.02,2.0402,2.0488,2.0732,2.0924,2.108,2.1181,2.1181,2.1163,2.0991,2.0964,2.1101,2.1209,2.1245,2.1245,2.1431,2.1403,2.1328,2.1264,2.1181,2.0979,2.0649,2.0323,2.0204,2.0113,2.0063,2.0026,1.9842,1.954,1.9558,1.9751,1.9677,1.9503,1.9494,0.8937,0.8937,0.8937,0.8937,0.8937,0.8937,0.8937,0.8937,0.8937,0.8937,0.9085,0.9834,1.0105,1.0052,1.0782,1.1442,1.1957,1.2684,1.3366,1.4196,1.4298,1.4298,1.4274,1.4226,1.4057,1.3773,1.3399,1.3019,1.2795,1.2705,1.2705,1.2705,1.2705,1.2705,1.2705,1.2699,1.2772,1.2837,1.2827,1.2772,1.2934,1.3072,1.3196,1.3313,1.3299,1.3924,1.4927,1.5213,1.5893,1.7521,1.8145,1.7798,1.733,1.7468,1.7752,1.7917,1.7917,1.7908,1.7715,1.7862,1.8192,1.8466,1.8566,1.8788,1.9054,1.9146,1.9155,1.921,1.9292,1.9292,1.9311,1.9558,1.9738,1.9838,2.0053,2.0273,2.0429,2.057,2.0753,2.0744,2.0607,2.0515,2.0735,2.0882,2.0989,2.1163,2.1346,2.1412,2.144,2.1476,2.1476,2.1495,2.1559,2.1586,2.1604,2.1568,2.1623,2.1604,2.1531,2.1531,2.1495,2.1549,2.1348,2.0927,2.0653,2.0549,2.0484,2.0429,2.0292,2.0072,2.0163,2.0264,2.0127,1.998,2.0008,0.8937,0.8937,0.8937,0.8937,0.8937,0.8937,0.8937,0.8992,0.9533,0.9805,1.0163,1.0958,1.1354,1.1312,1.148,1.2079,1.2656,1.3366,1.3806,1.4298,1.4298,1.4298,1.4298,1.4298,1.4141,1.387,1.3462,1.3175,1.2922,1.2765,1.2717,1.2705,1.2705,1.2705,1.2705,1.2705,1.2875,1.3014,1.3096,1.3146,1.3355,1.357,1.3683,1.3668,1.3978,1.4658,1.5427,1.6124,1.6742,1.7831,1.8255,1.8054,1.7807,1.7862,1.8293,1.8586,1.8493,1.8319,1.8164,1.8348,1.8566,1.8944,1.8999,1.9091,1.9237,1.9274,1.9292,1.9292,1.9292,1.9292,1.9301,1.9664,1.9847,1.9957,2.0268,2.0613,2.0805,2.0998,2.1145,2.1193,2.1044,2.1007,2.1202,2.1266,2.122,2.1357,2.1559,2.1632,2.1687,2.1687,2.1687,2.1687,2.1678,2.1678,2.1687,2.1687,2.1687,2.1687,2.1687,2.1687,2.1687,2.1668,2.1577,2.133,2.111,2.097,2.0879,2.0814,2.0671,2.0561,2.0539,2.0503,2.0503,2.0484,2.047,0.8937,0.8937,0.8937,0.8937,0.8937,0.921,0.932,0.9482,1.0511,1.1055,1.1219,1.2186,1.2666,1.2552,1.254,1.273,1.3087,1.3956,1.425,1.4298,1.4298,1.4298,1.4298,1.428,1.4195,1.402,1.3634,1.3381,1.3085,1.2831,1.2717,1.2705,1.2705,1.2747,1.279,1.2833,1.2966,1.3179,1.3355,1.3568,1.3779,1.3984,1.4107,1.3981,1.4591,1.5232,1.628,1.6758,1.748,1.8129,1.844,1.8385,1.8374,1.8612,1.8971,1.9191,1.899,1.8834,1.8715,1.8806,1.8953,1.9201,1.9274,1.9292,1.9292,1.9292,1.9292,1.9292,1.9292,1.9375,1.9503,1.9774,2.004,2.0268,2.0543,2.0827,2.1126,2.1319,2.142,2.1429,2.1337,2.1383,2.1485,2.1513,2.144,2.1449,2.1641,2.165,2.1687,2.1687,2.1687,2.1687,2.1687,2.1687,2.1687,2.1687,2.1687,2.1687,2.1687,2.1687,2.1687,2.1687,2.1595,2.1531,2.154,2.1366,2.1266,2.1174,2.1119,2.101,2.0851,2.0833,2.0979,2.0973,2.0964,0.8937,0.8937,0.8937,0.8937,0.9099,1.0025,1.0511,1.0617,1.171,1.2195,1.2254,1.3388,1.3805,1.3681,1.4072,1.417,1.4177,1.4196,1.4298,1.4298,1.4298,1.4298,1.4298,1.4298,1.428,1.4111,1.3731,1.3393,1.3139,1.2868,1.2711,1.2747,1.2747,1.2839,1.3009,1.3052,1.3264,1.3561,1.3652,1.3822,1.4082,1.4166,1.4538,1.4981,1.5264,1.5853,1.7227,1.7652,1.8085,1.8918,1.91,1.9136,1.9173,1.9191,1.9237,1.9283,1.9219,1.9081,1.8861,1.8999,1.9164,1.9274,1.9292,1.9292,1.9292,1.9292,1.9292,1.9292,1.932,1.9494,1.9765,2.0168,2.0558,2.0888,2.1119,2.1357,2.1568,2.1449,2.1568,2.1586,2.153,2.1531,2.1641,2.1641,2.1641,2.1668,2.1687,2.1687,2.1687,2.1687,2.1687,2.1687,2.1687,2.1687,2.1687,2.1687,2.1687,2.1687,2.1687,2.1687,2.1687,2.1687,2.1687,2.165,2.1687,2.1687,2.1531,2.1476,2.154,2.1449,2.1248,2.1357,2.1559,2.1531,2.1376,0.8937,0.8995,0.9647,0.9915,1.008,1.1164,1.1655,1.1923,1.2911,1.3452,1.3619,1.4643,1.4918,1.4671,1.4853,1.4659,1.4383,1.4304,1.4298,1.4298,1.4298,1.4298,1.4298,1.4298,1.4298,1.4171,1.3815,1.3507,1.3236,1.294,1.2753,1.2924,1.2924,1.3052,1.3222,1.3264,1.344,1.3652,1.3864,1.425,1.4657,1.4859,1.5228,1.6083,1.641,1.7089,1.7774,1.8492,1.8707,1.9292,1.9292,1.9292,1.9292,1.9292,1.9292,1.9292,1.9292,1.9201,1.91,1.921,1.9265,1.9292,1.9292,1.9292,1.9292,1.9292,1.9292,1.9292,1.9604,1.9861,2.0085,2.0506,2.0842,2.1172,2.1476,2.1586,2.1687,2.1687,2.1668,2.1687,2.1687,2.1687,2.1687,2.1678,2.1668,2.1678,2.1687,2.1687,2.1687,2.1687,2.1687,2.1687,2.1687,2.1687,2.1687,2.1687,2.1687,2.1687,2.1687,2.1687,2.1687,2.1687,2.1687,2.1687,2.1687,2.1687,2.1687,2.1668,2.1623,2.165,2.1678,2.1687,2.1687,2.1668,2.1559,0.9754,0.986,1.0457,1.0836,1.1219,1.2358,1.2856,1.3014,1.4105,1.4648,1.4869,1.5446,1.5573,1.5264,1.5062,1.4841,1.4425,1.4334,1.4304,1.4298,1.4298,1.4298,1.4298,1.4298,1.4298,1.4292,1.3882,1.3604,1.3399,1.3195,1.3034,1.3113,1.3052,1.3228,1.3398,1.3483,1.3568,1.3828,1.3997,1.4496,1.511,1.5068,1.5842,1.6698,1.7464,1.7885,1.8359,1.8838,1.9244,1.9292,1.9292,1.9292,1.9292,1.9292,1.9292,1.9292,1.9292,1.9283,1.9246,1.9283,1.9292,1.9292,1.9292,1.9292,1.9292,1.9301,1.939,1.9549,2.0264,2.0406,2.047,2.086,2.1089,2.1319,2.1522,2.1614,2.1687,2.1687,2.1687,2.1687,2.1687,2.1687,2.1687,2.1687,2.1687,2.1687,2.1687,2.1687,2.1687,2.1687,2.1687,2.1687,2.1687,2.1687,2.1687,2.1687,2.1687,2.1687,2.1687,2.1687,2.1687,2.1687,2.1687,2.1687,2.1687,2.1687,2.1687,2.1687,2.1687,2.1687,2.1687,2.1687,2.1687,2.1687,2.1687,1.2141,1.2087,1.1164,1.1383,1.2413,1.3565,1.4056,1.4164,1.5238,1.5672,1.5618,1.582,1.5728,1.5451,1.5185,1.4944,1.466,1.4413,1.4322,1.4298,1.4298,1.4298,1.4298,1.4298,1.4292,1.4256,1.396,1.3719,1.3562,1.3441,1.3285,1.3138,1.3236,1.3387,1.358,1.3727,1.3786,1.3955,1.4088,1.4531,1.4943,1.5068,1.556,1.7188,1.735,1.7504,1.9054,1.9253,1.9292,1.9292,1.9292,1.9292,1.9292,1.9292,1.9292,1.9292,1.9292,1.9292,1.9292,1.9292,1.9292,1.9292,1.9292,1.9329,1.9402,1.9329,1.9481,1.9966,2.0708,2.119,2.1126,2.1117,2.1293,2.1458,2.1604,2.1641,2.1687,2.1687,2.1687,2.1687,2.1687,2.1687,2.1687,2.1687,2.1687,2.1687,2.1687,2.1687,2.1687,2.1687,2.1687,2.1687,2.1687,2.1687,2.1687,2.1687,2.1687,2.1687,2.1687,2.1687,2.1687,2.1687,2.1687,2.1687,2.1687,2.1687,2.1687,2.1687,2.1687,2.1687,2.1687,2.1687,2.1687,2.1687,2.1687,1.2852,1.3457,1.3019,1.3073,1.3614,1.4756,1.5244,1.5298,1.5725,1.5885,1.5885,1.5873,1.5747,1.5487,1.5228,1.4962,1.4702,1.4425,1.4328,1.4298,1.4298,1.4298,1.4298,1.4346,1.4298,1.4244,1.4039,1.3882,1.3767,1.364,1.3724,1.3648,1.3617,1.3838,1.4015,1.4025,1.403,1.4053,1.4179,1.4545,1.511,1.5276,1.5884,1.7674,1.7796,1.8078,1.9094,1.9253,1.9292,1.9292,1.9292,1.9292,1.9292,1.9292,1.9292,1.9292,1.9292,1.9292,1.9292,1.9292,1.9292,1.9292,1.9311,1.9402,1.9586,1.9476,1.9591,2.0195,2.1065,2.1513,2.1504,2.1449,2.1549,2.165,2.1687,2.1687,2.1687,2.1687,2.1687,2.1687,2.1687,2.1687,2.1687,2.1687,2.1687,2.1687,2.1687,2.1687,2.1687,2.1687,2.1687,2.1687,2.1687,2.1687,2.1687,2.1687,2.1696,2.1687,2.1687,2.1687,2.1687,2.1687,2.1687,2.1687,2.1687,2.1687,2.1687,2.1687,2.1687,2.1687,2.1687,2.1687,2.1687,2.1687,2.1687,1.3938,1.4708,1.4702,1.4702,1.4809,1.5571,1.5885,1.5885,1.5885,1.5885,1.5885,1.5879,1.5795,1.5565,1.5252,1.504,1.4787,1.4503,1.4346,1.4298,1.4298,1.4346,1.4394,1.4448,1.4442,1.4393,1.4283,1.4149,1.4015,1.393,1.4114,1.4314,1.4295,1.4421,1.4451,1.4376,1.4222,1.4215,1.43,1.46,1.5313,1.5546,1.6234,1.7757,1.7917,1.8407,1.9054,1.9292,1.9292,1.9292,1.9292,1.9292,1.9292,1.9292,1.9292,1.9292,1.9301,1.9301,1.9301,1.9292,1.9356,1.9503,1.9522,1.9696,1.9765,1.9738,1.9994,2.0369,2.1183,2.1687,2.1687,2.165,2.1632,2.1687,2.1687,2.1687,2.1687,2.1687,2.1687,2.1687,2.1696,2.1705,2.1723,2.1723,2.176,2.1733,2.1687,2.1687,2.1687,2.1687,2.1687,2.1687,2.1687,2.1687,2.1687,2.1733,2.1751,2.1687,2.1687,2.1687,2.1687,2.1723,2.1714,2.1687,2.1687,2.1687,2.1705,2.1714,2.1705,2.1687,2.1687,2.1687,2.1687,2.1687,2.1687,1.5779,1.5885,1.5832,1.5779,1.5731,1.5885,1.5885,1.5885,1.5885,1.5885,1.5885,1.5885,1.5885,1.5728,1.533,1.5089,1.4938,1.4539,1.4298,1.4298,1.4298,1.4442,1.4592,1.464,1.464,1.4688,1.462,1.4502,1.4334,1.4452,1.4756,1.4934,1.4937,1.4878,1.4943,1.4663,1.4522,1.4516,1.4516,1.4877,1.5255,1.5632,1.6663,1.7598,1.8085,1.853,1.9221,1.932,1.9301,1.9292,1.9292,1.9292,1.9292,1.9292,1.9292,1.9292,1.9347,1.9366,1.9347,1.9329,1.9549,1.9738,1.9729,1.9921,2.0113,2.0268,2.0497,2.0845,2.1385,2.1659,2.1687,2.1687,2.1687,2.1787,2.1806,2.1842,2.187,2.2062,2.2135,2.2126,2.1879,2.1723,2.1751,2.1769,2.1815,2.1797,2.1714,2.1714,2.1778,2.1916,2.2007,2.1897,2.1916,2.1925,2.1943,2.1851,2.1806,2.1742,2.1815,2.1961,2.1934,2.1925,2.1879,2.1769,2.1961,2.2208,2.1989,2.1751,2.1751,2.176,2.1705,2.1687,2.1687,2.1687,2.1687,1.5885,1.5885,1.5885,1.5885,1.5885,1.5885,1.5885,1.5885,1.5885,1.5885,1.5885,1.5885,1.5885,1.5722,1.5396,1.5119,1.5004,1.4564,1.4298,1.4346,1.4346,1.4448,1.464,1.4783,1.479,1.4933,1.4975,1.4956,1.4861,1.4949,1.5127,1.5315,1.5371,1.5305,1.507,1.4881,1.4861,1.481,1.4854,1.4984,1.5196,1.5857,1.6761,1.785,1.822,1.8807,1.9533,1.943,1.9301,1.9292,1.9292,1.9292,1.9292,1.9292,1.9311,1.9421,1.9558,1.9952,2.0044,2.0108,1.9976,1.9985,1.9985,2.0223,2.0644,2.0515,2.0836,2.1238,2.1522,2.1687,2.1687,2.1696,2.176,2.208,2.2217,2.2245,2.2346,2.2675,2.2858,2.2757,2.2574,2.251,2.2492,2.2336,2.23,2.2263,2.2236,2.2126,2.2144,2.2428,2.2593,2.2355,2.2263,2.2254,2.2245,2.2364,2.2355,2.2327,2.2428,2.2574,2.2483,2.2254,2.2227,2.2208,2.2492,2.2739,2.2529,2.2272,2.1934,2.1833,2.1978,2.1823,2.1687,2.1687,2.1687,1.5885,1.5885,1.5885,1.5885,1.5885,1.5885,1.5885,1.5885,1.5885,1.5885,1.5885,1.5885,1.5885,1.5759,1.5475,1.5251,1.5166,1.4721,1.4581,1.452,1.449,1.4688,1.4879,1.4981,1.5118,1.522,1.522,1.5255,1.5242,1.5261,1.5391,1.5568,1.5724,1.5578,1.5344,1.5211,1.511,1.511,1.5149,1.53,1.5775,1.6477,1.7342,1.8097,1.8682,1.9261,1.9507,1.9485,1.9292,1.9301,1.9292,1.9292,1.9301,1.9301,1.9375,1.9604,1.9962,2.0278,2.0429,2.0457,2.0374,2.0429,2.0338,2.0659,2.1154,2.1126,2.122,2.1504,2.1668,2.1705,2.1714,2.1723,2.1998,2.2364,2.2419,2.2483,2.2868,2.3151,2.3215,2.3142,2.3059,2.3096,2.3123,2.3032,2.2876,2.2831,2.2785,2.2666,2.2556,2.2803,2.3023,2.2821,2.2648,2.2629,2.2821,2.3171,2.3068,2.2931,2.2959,2.3023,2.2849,2.2602,2.2629,2.273,2.3125,2.3308,2.307,2.2804,2.2575,2.2501,2.2583,2.2307,2.1814,2.1786,2.1895,1.5885,1.5885,1.5885,1.5885,1.5885,1.5885,1.5885,1.5885,1.5885,1.5885,1.5885,1.5885,1.5885,1.5837,1.5596,1.5484,1.5424,1.4948,1.4887,1.49,1.479,1.507,1.5309,1.5404,1.5404,1.5445,1.5493,1.5499,1.5493,1.5499,1.5588,1.573,1.5778,1.5698,1.5631,1.5518,1.5411,1.5404,1.5444,1.5762,1.6352,1.7438,1.8202,1.8861,1.9486,1.9683,1.9742,1.9485,1.9366,1.932,1.9292,1.9311,1.932,1.9311,1.9567,1.9948,2.0387,2.0488,2.0662,2.075,2.0842,2.0989,2.1019,2.1321,2.1467,2.1504,2.1559,2.1604,2.1687,2.1723,2.1751,2.2007,2.2272,2.2437,2.2556,2.2821,2.3263,2.3446,2.3446,2.3382,2.3272,2.3224,2.3336,2.3251,2.3343,2.3391,2.3345,2.3318,2.3217,2.3153,2.327,2.329,2.3096,2.3032,2.327,2.3639,2.3639,2.3437,2.3251,2.3251,2.3078,2.3059,2.3151,2.3391,2.3767,2.3834,2.3469,2.3315,2.327,2.3233,2.3112,2.2916,2.249,2.2261,2.2306,1.5885,1.5885,1.5885,1.5885,1.5885,1.5885,1.5885,1.5885,1.5885,1.5885,1.5885,1.5885,1.5885,1.5861,1.5829,1.5669,1.5493,1.5376,1.5198,1.513,1.5029,1.5261,1.5397,1.554,1.5594,1.5683,1.5683,1.5683,1.5683,1.5683,1.573,1.5778,1.5825,1.5825,1.5798,1.5738,1.5698,1.5671,1.5658,1.6276,1.7049,1.8078,1.8868,1.9712,2.0305,2.0373,2.0095,1.9802,1.9677,1.9402,1.9338,1.9393,1.9701,1.9549,1.9668,2.0991,2.1154,2.1053,2.1266,2.133,2.1357,2.1431,2.1495,2.1531,2.1659,2.1705,2.1714,2.1751,2.1851,2.1952,2.2108,2.2336,2.2648,2.2867,2.3004,2.3308,2.3657,2.3767,2.3767,2.3739,2.362,2.362,2.3657,2.3712,2.3804,2.3831,2.3831,2.3794,2.3749,2.3657,2.3611,2.3593,2.3602,2.3547,2.3694,2.4036,2.4009,2.3935,2.373,2.3648,2.3694,2.3712,2.3776,2.3926,2.4171,2.4103,2.376,2.3746,2.3804,2.3561,2.342,2.3317,2.3158,2.2925,2.2795,1.5885,1.5885,1.5885,1.5885,1.5885,1.5885,1.5885,1.5885,1.5885,1.5885,1.5885,1.5885,1.5885,1.5921,1.598,1.5936,1.5695,1.5657,1.5582,1.5421,1.5267,1.5452,1.554,1.5635,1.5683,1.5778,1.5825,1.5778,1.5825,1.5825,1.5825,1.5825,1.5825,1.5825,1.5818,1.5805,1.5812,1.5805,1.6001,1.6669,1.7598,1.8503,1.941,2.0446,2.0991,2.0848,2.0543,2.0204,1.9985,1.9815,1.9787,1.9879,2.0159,2.0049,2.0356,2.1449,2.1476,2.1421,2.1568,2.1623,2.1668,2.1733,2.1824,2.1925,2.1842,2.1824,2.1879,2.1934,2.2117,2.2291,2.2483,2.2749,2.3059,2.3407,2.362,2.3794,2.4009,2.4156,2.4183,2.4174,2.4156,2.4146,2.4174,2.4211,2.4202,2.4119,2.4082,2.4073,2.4055,2.4027,2.3999,2.399,2.4045,2.4073,2.4211,2.4211,2.4156,2.411,2.4082,2.4055,2.4211,2.4223,2.4153,2.4279,2.452,2.4373,2.4225,2.4302,2.4294,2.4107,2.407,2.4136,2.39,2.3514,2.3438,1.5867,1.5885,1.5885,1.5885,1.5885,1.5861,1.5855,1.5933,1.5902,1.5921,1.5933,1.5945,1.5992,1.6146,1.6309,1.6218,1.6043,1.599,1.5885,1.5804,1.5594,1.5588,1.5683,1.5825,1.5778,1.5778,1.5825,1.5825,1.5825,1.5825,1.5825,1.5825,1.5825,1.5825,1.5825,1.5825,1.5825,1.5825,1.6062,1.6622,1.8102,1.8977,1.9509,2.0844,2.1154,2.1025,2.0671,2.0525,2.0558,2.0521,2.0484,2.0415,2.057,2.0836,2.1293,2.1485,2.1604,2.1641,2.1668,2.1687,2.1687,2.1815,2.208,2.2144,2.208,2.1842,2.1842,2.2373,2.2638,2.2821,2.3014,2.3105,2.3361,2.3684,2.3877,2.4027,2.4119,2.4211,2.4211,2.4211,2.4211,2.4211,2.4211,2.4211,2.4211,2.4211,2.4211,2.4211,2.4211,2.4211,2.4211,2.4211,2.4211,2.4211,2.4211,2.4211,2.4211,2.4202,2.4251,2.4251,2.4301,2.4399,2.4449,2.4646,2.4892,2.4892,2.4837,2.4809,2.4838,2.4985,2.4976,2.5032,2.4745,2.4221,2.4212,1.571,1.5885,1.5885,1.5885,1.5861,1.5674,1.5816,1.6187,1.5996,1.6026,1.6193,1.6211,1.6311,1.6471,1.6717,1.6626,1.6271,1.6227,1.6186,1.5944,1.573,1.573,1.5784,1.5825,1.5825,1.5825,1.5825,1.5825,1.5825,1.5825,1.5825,1.5825,1.5825,1.5825,1.5825,1.5825,1.5825,1.5825,1.6109,1.6943,1.8473,1.9072,1.9583,2.0927,2.1476,2.1293,2.1055,2.097,2.0778,2.0585,2.053,2.0622,2.079,2.1266,2.1549,2.1678,2.1687,2.1687,2.1687,2.1696,2.1714,2.1833,2.208,2.2236,2.2199,2.1915,2.2089,2.2767,2.3226,2.34,2.348,2.3544,2.3618,2.3886,2.4119,2.4165,2.4211,2.4211,2.4211,2.4211,2.4211,2.4211,2.4211,2.4211,2.4211,2.4211,2.4211,2.4211,2.4211,2.4211,2.4211,2.4211,2.4211,2.4211,2.4211,2.4251,2.4301,2.435,2.439,2.439,2.444,2.4587,2.4794,2.5098,2.5294,2.5186,2.5137,2.5167,2.5265,2.544,2.5333,2.5186,2.5284,2.4919,2.5083,1.5409,1.5541,1.5541,1.5614,1.5709,1.5536,1.5728,1.6064,1.5962,1.6097,1.646,1.6461,1.6577,1.6685,1.6885,1.6775,1.6382,1.6411,1.6184,1.5891,1.5825,1.5778,1.5825,1.5825,1.5825,1.5825,1.5825,1.5825,1.5825,1.5825,1.5825,1.5825,1.5825,1.5825,1.5825,1.5825,1.5825,1.5825,1.6157,1.7318,1.8703,1.9026,1.9803,2.1096,2.1641,2.1504,2.1476,2.1392,2.1229,2.1074,2.1074,2.111,2.1284,2.1504,2.165,2.1687,2.1687,2.1687,2.1687,2.1723,2.1787,2.197,2.2318,2.2593,2.2977,2.2776,2.2841,2.3437,2.3684,2.3868,2.3859,2.3904,2.3923,2.4119,2.4165,2.4192,2.4211,2.4211,2.4211,2.4211,2.4211,2.4211,2.4211,2.4211,2.4211,2.4211,2.4211,2.4211,2.4211,2.4211,2.4211,2.4251,2.4251,2.4202,2.4202,2.4291,2.439,2.443,2.4578,2.4726,2.4833,2.4981,2.5137,2.5284,2.5391,2.5382,2.5333,2.5333,2.544,2.5586,2.5382,2.5128,2.5333,2.5479,2.5431,1.5083,1.5107,1.5119,1.524,1.5488,1.546,1.5656,1.5945,1.5935,1.6214,1.6632,1.6651,1.6727,1.6741,1.6711,1.6483,1.6373,1.6348,1.6119,1.5905,1.5832,1.5825,1.5825,1.5825,1.5825,1.5825,1.5825,1.5825,1.5825,1.5825,1.5825,1.5825,1.5825,1.5825,1.5825,1.5825,1.5825,1.6062,1.6574,1.7692,1.8434,1.898,2.0175,2.1141,2.1687,2.1687,2.1687,2.1687,2.1678,2.1632,2.1559,2.1559,2.1568,2.1641,2.1659,2.1687,2.1687,2.1687,2.1705,2.1797,2.198,2.2254,2.2702,2.3105,2.3471,2.3666,2.3675,2.3804,2.4091,2.4174,2.4165,2.4165,2.4183,2.4202,2.4202,2.4211,2.4211,2.4211,2.4211,2.4211,2.4211,2.4211,2.4211,2.4211,2.4211,2.4211,2.4211,2.4211,2.4211,2.4251,2.4251,2.4301,2.435,2.4301,2.4242,2.439,2.4578,2.4726,2.4873,2.5069,2.5177,2.5186,2.5235,2.5323,2.543,2.5479,2.543,2.544,2.5538,2.5684,2.5538,2.5382,2.5391,2.5489,2.544,1.492,1.5113,1.5113,1.5239,1.5429,1.5283,1.5582,1.6124,1.5991,1.6222,1.6623,1.6746,1.6828,1.706,1.6819,1.66,1.6437,1.6366,1.6112,1.5818,1.5892,1.5858,1.5825,1.5825,1.5825,1.5825,1.5825,1.5825,1.5825,1.5825,1.5825,1.5825,1.5825,1.5825,1.5825,1.5825,1.5825,1.6157,1.6897,1.7924,1.885,1.9583,2.0583,2.1275,2.1687,2.1687,2.1687,2.1687,2.1687,2.1687,2.1687,2.1687,2.1687,2.1687,2.1687,2.1723,2.1723,2.1778,2.1824,2.2044,2.2291,2.2474,2.2904,2.3343,2.3694,2.3904,2.3981,2.4036,2.4202,2.4202,2.4192,2.4192,2.4202,2.4202,2.4211,2.4211,2.4211,2.4211,2.4211,2.4211,2.4211,2.4211,2.4211,2.4211,2.4211,2.4211,2.4211,2.4211,2.4211,2.4251,2.4301,2.435,2.4449,2.435,2.4242,2.4587,2.4824,2.502,2.5177,2.5226,2.5274,2.5333,2.5382,2.543,2.5528,2.5596,2.5596,2.5489,2.5586,2.5684,2.5693,2.5645,2.5596,2.5596,2.5538]}]]